[[{"header":{"parameterUnit":"m.s-1","parameterCategory":1,"la1":30.6,"la2":29.2853,"lo1":-89.7004,"lo2":-87.6739,"dy":0.0162,"dx":0.0183,"nx":112,"ny":82,"refTime":"2023-11-13T06:00:00:Z","depth":0,"parameterNumber":2,"parameterNumberName":"U-component_of_WINDS"},"data":[0.0,0.0,0.0,0.0,0.0,0.0,0.0,0.0,0.0,0.0,0.0,0.0,0.0,0.0,0.0,0.0,0.0,0.0,0.0,0.0,0.0,0.0,0.0,0.0,0.0,0.0,0.0,0.0,0.0,0.0,0.0,0.0,0.0,0.0,0.0,0.0,0.0,0.0,0.0,0.0,0.0,0.0,0.0,0.0,0.0,0.0,0.0,0.0,0.0,0.0,0.0,0.0,0.0,0.0,0.0,0.0,0.0,0.0,0.0,0.0,0.0,0.0,0.0,0.0,0.0,0.0,0.0,0.0,0.0,0.0,0.0,0.0,0.0,0.0,0.0,0.0,0.0,0.0,0.0,0.0,0.0,0.0,0.0,0.0,0.0,0.0,0.0,0.0,0.0,0.0,0.0,4.63,4.63,4.63,4.63,4.63,4.63,4.63,0.0,0.0,0.0,0.0,0.0,0.0,0.0,0.0,0.0,0.0,0.0,0.0,0.0,0.0,0.0,0.0,0.0,0.0,0.0,0.0,0.0,0.0,0.0,0.0,0.0,0.0,0.0,0.0,0.0,0.0,0.0,0.0,0.0,0.0,0.0,0.0,0.0,0.0,0.0,0.0,0.0,0.0,0.0,0.0,0.0,0.0,0.0,0.0,0.0,0.0,0.0,0.0,0.0,0.0,0.0,0.0,0.0,0.0,0.0,0.0,0.0,0.0,0.0,0.0,0.0,0.0,0.0,0.0,0.0,0.0,0.0,0.0,0.0,0.0,0.0,0.0,0.0,0.0,0.0,0.0,0.0,0.0,0.0,0.0,0.0,0.0,0.0,0.0,0.0,0.0,0.0,0.0,0.0,0.0,0.0,0.0,0.0,0.0,0.0,0.0,0.0,0.0,0.0,0.0,4.63,4.63,4.63,4.63,4.63,4.63,4.63,4.63,0.0,0.0,0.0,0.0,0.0,0.0,0.0,0.0,0.0,0.0,0.0,0.0,0.0,0.0,0.0,0.0,0.0,0.0,0.0,0.0,0.0,0.0,0.0,0.0,0.0,0.0,0.0,0.0,0.0,0.0,0.0,0.0,0.0,0.0,0.0,0.0,0.0,0.0,0.0,0.0,0.0,0.0,0.0,0.0,0.0,0.0,0.0,0.0,0.0,0.0,0.0,0.0,0.0,0.0,0.0,0.0,0.0,0.0,0.0,0.0,0.0,0.0,0.0,0.0,0.0,0.0,0.0,0.0,0.0,0.0,0.0,0.0,0.0,0.0,0.0,0.0,0.0,0.0,0.0,0.0,0.0,0.0,0.0,0.0,0.0,0.0,0.0,0.0,0.0,0.0,0.0,0.0,0.0,0.0,0.0,0.0,0.0,0.0,0.0,0.0,0.0,0.0,0.0,4.63,4.63,4.63,4.63,4.63,4.63,4.63,4.63,4.63,4.63,0.0,0.0,0.0,0.0,0.0,0.0,0.0,0.0,0.0,0.0,0.0,0.0,0.0,0.0,0.0,0.0,0.0,0.0,0.0,0.0,0.0,0.0,0.0,0.0,0.0,0.0,0.0,0.0,0.0,0.0,0.0,0.0,0.0,0.0,0.0,0.0,0.0,0.0,0.0,0.0,0.0,0.0,0.0,0.0,0.0,0.0,0.0,0.0,0.0,0.0,0.0,0.0,0.0,0.0,0.0,0.0,0.0,0.0,0.0,0.0,0.0,0.0,0.0,0.0,0.0,0.0,0.0,0.0,0.0,0.0,0.0,0.0,0.0,0.0,0.0,0.0,0.0,0.0,0.0,0.0,0.0,0.0,0.0,0.0,0.0,0.0,0.0,0.0,0.0,0.0,0.0,0.0,0.0,0.0,0.0,0.0,0.0,0.0,0.0,0.0,0.0,0.0,4.63,4.63,4.63,4.63,4.63,4.63,4.63,4.63,4.63,4.63,0.0,0.0,0.0,0.0,0.0,0.0,0.0,0.0,0.0,0.0,0.0,0.0,0.0,0.0,0.0,0.0,0.0,0.0,0.0,0.0,0.0,0.0,0.0,0.0,0.0,0.0,0.0,0.0,0.0,0.0,0.0,0.0,0.0,0.0,0.0,0.0,0.0,0.0,0.0,0.0,0.0,0.0,0.0,0.0,0.0,0.0,0.0,0.0,0.0,0.0,0.0,0.0,0.0,0.0,0.0,0.0,0.0,0.0,0.0,0.0,0.0,0.0,0.0,0.0,0.0,0.0,0.0,0.0,0.0,0.0,0.0,0.0,0.0,0.0,0.0,0.0,0.0,0.0,0.0,0.0,0.0,0.0,0.0,0.0,0.0,0.0,0.0,0.0,0.0,0.0,0.0,0.0,0.0,0.0,0.0,0.0,0.0,0.0,0.0,0.0,0.0,0.0,4.63,4.63,4.63,4.63,4.63,4.63,4.63,4.63,4.63,4.63,0.0,0.0,0.0,0.0,0.0,0.0,0.0,0.0,0.0,0.0,0.0,0.0,0.0,0.0,0.0,0.0,0.0,0.0,0.0,0.0,0.0,0.0,0.0,0.0,0.0,0.0,0.0,0.0,0.0,0.0,0.0,0.0,0.0,0.0,0.0,0.0,0.0,0.0,0.0,0.0,0.0,0.0,0.0,0.0,0.0,0.0,0.0,0.0,0.0,0.0,0.0,0.0,0.0,0.0,0.0,0.0,0.0,0.0,0.0,0.0,0.0,0.0,0.0,0.0,0.0,0.0,0.0,0.0,0.0,0.0,0.0,0.0,0.0,0.0,0.0,0.0,0.0,0.0,0.0,0.0,0.0,0.0,0.0,0.0,0.0,0.0,0.0,0.0,0.0,0.0,0.0,0.0,0.0,0.0,0.0,0.0,0.0,0.0,0.0,0.0,0.0,0.0,4.63,4.63,0.0,4.63,4.63,4.63,4.63,4.63,4.63,0.0,0.0,0.0,0.0,0.0,0.0,0.0,0.0,0.0,0.0,0.0,0.0,0.0,0.0,0.0,0.0,0.0,0.0,0.0,0.0,0.0,0.0,0.0,0.0,0.0,0.0,0.0,0.0,0.0,0.0,0.0,0.0,0.0,0.0,0.0,0.0,0.0,0.0,0.0,0.0,0.0,0.0,0.0,0.0,0.0,0.0,0.0,0.0,0.0,0.0,0.0,0.0,0.0,0.0,0.0,0.0,0.0,0.0,0.0,0.0,0.0,0.0,0.0,0.0,0.0,0.0,0.0,0.0,0.0,0.0,0.0,0.0,0.0,0.0,0.0,0.0,0.0,0.0,0.0,0.0,0.0,0.0,0.0,0.0,0.0,0.0,0.0,0.0,0.0,0.0,0.0,0.0,0.0,0.0,0.0,0.0,0.0,0.0,0.0,0.0,0.0,0.0,4.63,4.63,4.63,0.0,4.63,4.63,4.63,4.63,4.63,4.63,0.0,0.0,0.0,0.0,0.0,0.0,0.0,0.0,0.0,0.0,0.0,0.0,0.0,0.0,0.0,0.0,0.0,0.0,0.0,0.0,0.0,0.0,0.0,0.0,0.0,0.0,0.0,0.0,0.0,0.0,0.0,0.0,0.0,0.0,0.0,0.0,0.0,0.0,0.0,0.0,0.0,0.0,0.0,0.0,0.0,0.0,0.0,0.0,0.0,0.0,0.0,0.0,0.0,0.0,0.0,0.0,0.0,0.0,0.0,0.0,0.0,0.0,0.0,0.0,0.0,0.0,0.0,0.0,0.0,0.0,0.0,0.0,0.0,0.0,0.0,0.0,0.0,0.0,0.0,0.0,0.0,0.0,0.0,0.0,0.0,0.0,0.0,0.0,0.0,0.0,0.0,0.0,0.0,0.0,0.0,0.0,0.0,0.0,0.0,0.0,0.0,0.0,4.63,4.63,4.63,4.63,4.63,4.63,4.63,4.63,4.63,0.0,0.0,0.0,0.0,0.0,0.0,0.0,0.0,0.0,0.0,0.0,0.0,0.0,0.0,0.0,0.0,0.0,0.0,0.0,0.0,0.0,0.0,0.0,0.0,0.0,0.0,0.0,0.0,0.0,0.0,0.0,0.0,0.0,0.0,0.0,0.0,0.0,0.0,0.0,0.0,0.0,0.0,0.0,0.0,0.0,0.0,0.0,0.0,0.0,0.0,0.0,0.0,0.0,0.0,0.0,0.0,0.0,0.0,0.0,0.0,0.0,0.0,0.0,0.0,0.0,0.0,0.0,0.0,0.0,0.0,0.0,0.0,0.0,0.0,0.0,0.0,0.0,0.0,0.0,0.0,0.0,0.0,0.0,0.0,0.0,0.0,0.0,0.0,0.0,0.0,0.0,0.0,0.0,0.0,0.0,0.0,0.0,0.0,0.0,0.0,0.0,0.0,0.0,4.63,4.63,4.63,4.63,4.63,4.63,4.63,4.63,4.63,4.63,0.0,0.0,0.0,0.0,0.0,0.0,0.0,0.0,0.0,0.0,0.0,0.0,0.0,0.0,0.0,0.0,0.0,0.0,0.0,0.0,0.0,0.0,0.0,0.0,0.0,0.0,0.0,0.0,0.0,0.0,0.0,0.0,0.0,0.0,0.0,0.0,0.0,0.0,0.0,0.0,0.0,0.0,0.0,0.0,0.0,0.0,0.0,0.0,0.0,0.0,0.0,0.0,0.0,0.0,0.0,0.0,0.0,0.0,0.0,0.0,0.0,0.0,0.0,0.0,0.0,0.0,0.0,0.0,0.0,0.0,0.0,0.0,0.0,0.0,0.0,0.0,0.0,0.0,0.0,0.0,0.0,0.0,0.0,0.0,0.0,0.0,0.0,0.0,0.0,0.0,0.0,0.0,0.0,0.0,0.0,0.0,0.0,0.0,0.0,0.0,0.0,0.0,4.63,4.63,4.63,4.63,4.63,4.63,4.63,4.63,4.63,4.63,0.0,0.0,0.0,0.0,0.0,0.0,0.0,0.0,0.0,0.0,0.0,0.0,0.0,0.0,0.0,0.0,0.0,0.0,0.0,0.0,0.0,0.0,0.0,0.0,0.0,0.0,0.0,0.0,0.0,0.0,0.0,0.0,0.0,0.0,0.0,0.0,0.0,0.0,0.0,0.0,0.0,0.0,0.0,0.0,0.0,0.0,0.0,0.0,0.0,0.0,0.0,0.0,0.0,0.0,0.0,0.0,0.0,0.0,0.0,0.0,0.0,0.0,0.0,0.0,0.0,0.0,0.0,0.0,0.0,0.0,0.0,0.0,0.0,0.0,0.0,0.0,0.0,0.0,0.0,0.0,0.0,0.0,0.0,0.0,0.0,0.0,0.0,0.0,0.0,0.0,0.0,0.0,0.0,0.0,0.0,0.0,0.0,0.0,0.0,0.0,0.0,0.0,4.63,4.63,4.63,4.63,4.63,4.63,4.63,4.63,4.63,4.63,0.0,0.0,0.0,0.0,0.0,0.0,0.0,0.0,0.0,0.0,0.0,0.0,0.0,0.0,0.0,0.0,0.0,0.0,0.0,0.0,0.0,0.0,0.0,0.0,0.0,0.0,0.0,0.0,0.0,0.0,0.0,0.0,0.0,0.0,0.0,0.0,0.0,0.0,0.0,0.0,0.0,0.0,0.0,0.0,0.0,0.0,0.0,0.0,0.0,0.0,0.0,0.0,0.0,0.0,0.0,0.0,0.0,0.0,0.0,0.0,4.4301,0.0,0.0,0.0,0.0,0.0,0.0,0.0,0.0,0.0,0.0,0.0,0.0,0.0,0.0,0.0,0.0,0.0,0.0,0.0,0.0,0.0,0.0,0.0,0.0,0.0,0.0,0.0,0.0,0.0,0.0,0.0,0.0,0.0,0.0,0.0,0.0,0.0,0.0,0.0,0.0,0.0,4.63,4.63,4.63,4.63,4.63,4.63,4.63,4.63,4.63,4.63,4.63,0.0,0.0,0.0,0.0,0.0,0.0,0.0,0.0,0.0,0.0,0.0,0.0,0.0,0.0,0.0,0.0,0.0,0.0,0.0,0.0,0.0,0.0,0.0,0.0,0.0,0.0,0.0,0.0,0.0,0.0,0.0,0.0,0.0,0.0,0.0,0.0,0.0,0.0,0.0,0.0,0.0,0.0,0.0,0.0,0.0,0.0,0.0,0.0,0.0,0.0,0.0,0.0,0.0,0.0,0.0,0.0,0.0,0.0,0.0,0.0,4.4913,0.0,0.0,0.0,0.0,0.0,0.0,0.0,0.0,0.0,0.0,0.0,0.0,0.0,0.0,0.0,0.0,0.0,0.0,0.0,0.0,0.0,0.0,0.0,0.0,0.0,0.0,0.0,0.0,0.0,0.0,0.0,0.0,0.0,0.0,0.0,0.0,0.0,0.0,0.0,0.0,4.63,4.63,4.63,4.63,4.63,4.63,4.63,4.63,4.63,4.63,4.63,0.0,0.0,0.0,0.0,0.0,0.0,0.0,0.0,0.0,0.0,0.0,0.0,0.0,0.0,0.0,0.0,0.0,0.0,0.0,0.0,0.0,0.0,0.0,0.0,0.0,0.0,0.0,0.0,0.0,0.0,0.0,0.0,0.0,0.0,0.0,0.0,0.0,0.0,0.0,0.0,0.0,0.0,0.0,0.0,0.0,0.0,0.0,0.0,0.0,0.0,0.0,0.0,0.0,4.63,4.6305,4.6305,4.6305,4.6305,4.6305,4.623,4.6248,4.6303,4.63,0.0,0.0,0.0,0.0,0.0,0.0,0.0,0.0,0.0,0.0,0.0,0.0,0.0,0.0,0.0,0.0,0.0,0.0,0.0,0.0,0.0,0.0,0.0,0.0,4.6217,4.62,4.6206,0.0,0.0,0.0,0.0,0.0,0.0,0.0,0.0,0.0,0.0,0.0,4.63,4.63,4.63,4.63,4.63,4.63,4.63,4.63,4.63,4.63,4.63,4.63,0.0,0.0,0.0,0.0,0.0,0.0,0.0,0.0,0.0,0.0,0.0,0.0,0.0,0.0,0.0,0.0,0.0,0.0,0.0,0.0,0.0,0.0,0.0,0.0,0.0,0.0,0.0,0.0,0.0,0.0,0.0,0.0,4.0854,4.1069,0.0,0.0,0.0,0.0,0.0,0.0,0.0,0.0,0.0,0.0,0.0,0.0,0.0,4.6007,4.6124,4.6124,4.6183,4.63,4.6303,4.6306,4.6306,4.6306,4.6306,4.6306,4.629,0.0,4.63,4.6303,0.0,0.0,0.0,0.0,0.0,0.0,0.0,0.0,0.0,0.0,0.0,0.0,0.0,0.0,0.0,0.0,0.0,0.0,0.0,0.0,0.0,0.0,4.63,4.6289,4.6289,4.6269,0.0,4.62,4.6225,4.6289,4.6289,0.0,0.0,0.0,0.0,0.0,0.0,0.0,4.63,4.63,4.63,4.63,4.63,4.63,4.63,4.63,4.63,4.63,4.63,4.63,4.63,4.63,0.0,0.0,0.0,0.0,0.0,0.0,0.0,0.0,0.0,0.0,0.0,0.0,0.0,0.0,0.0,0.0,0.0,0.0,0.0,0.0,0.0,0.0,0.0,0.0,0.0,0.0,0.0,0.0,0.0,4.0327,4.1108,4.1108,4.1537,4.183,0.0,0.0,0.0,0.0,0.0,0.0,0.0,0.0,0.0,4.5734,4.6105,4.63,4.63,4.63,4.63,4.63,4.63,4.63,4.63,4.63,4.63,4.63,4.63,4.63,4.63,4.63,4.63,4.63,0.0,0.0,0.0,0.0,4.63,4.63,4.63,4.63,4.63,4.63,0.0,0.0,0.0,0.0,0.0,0.0,0.0,0.0,0.0,0.0,4.6301,4.6306,4.6303,4.6282,4.6269,4.6269,4.6248,0.0,4.6269,4.6306,4.63,0.0,0.0,0.0,0.0,4.63,4.63,4.63,4.63,4.63,4.63,4.63,4.63,4.63,4.63,4.63,4.63,4.63,4.63,4.63,4.63,0.0,0.0,0.0,0.0,0.0,0.0,0.0,0.0,0.0,0.0,0.0,0.0,0.0,0.0,0.0,0.0,0.0,0.0,0.0,0.0,0.0,0.0,0.0,0.0,0.0,0.0,0.0,0.0,4.0698,4.1186,4.14,4.2006,4.2494,0.0,0.0,0.0,0.0,0.0,0.0,4.5324,4.5925,4.6277,4.63,4.6277,4.6277,4.63,4.63,4.63,4.63,4.63,4.63,4.63,4.63,4.63,4.63,4.63,4.63,4.63,4.63,4.63,4.63,4.63,4.63,4.63,4.63,4.63,4.63,4.63,4.63,4.63,4.63,4.63,4.63,4.63,0.0,0.0,0.0,0.0,4.6301,4.6306,4.6295,4.6303,4.6303,4.6293,4.6306,4.6301,4.6293,4.6293,0.0,4.6268,4.6303,4.6303,0.0,0.0,0.0,0.0,4.63,4.63,4.63,4.63,4.63,4.63,4.63,4.63,4.63,4.63,4.63,4.63,4.63,4.63,4.63,4.63,4.63,0.0,0.0,0.0,0.0,0.0,0.0,0.0,0.0,0.0,0.0,0.0,0.0,0.0,0.0,0.0,0.0,0.0,0.0,0.0,0.0,0.0,0.0,0.0,0.0,0.0,0.0,0.0,0.0,0.0,4.224,4.2376,0.0,0.0,0.0,0.0,4.4933,4.5734,4.6222,4.6222,4.6221,4.6221,4.63,4.624,4.624,4.63,4.63,4.63,4.63,4.63,4.63,4.63,4.63,4.63,4.63,4.63,4.63,4.63,4.63,4.63,4.63,4.63,4.63,4.63,4.63,4.63,4.63,4.63,4.63,4.63,4.63,4.63,4.63,4.63,4.63,0.0,0.0,4.63,4.6303,4.63,4.63,4.6303,4.6303,4.63,4.63,4.6303,4.63,4.63,0.0,4.6303,4.6303,4.6303,0.0,4.6303,4.63,4.63,4.63,4.63,4.63,4.63,4.63,4.63,4.63,4.63,4.63,4.63,4.63,4.63,4.63,4.63,4.63,4.63,4.63,4.63,0.0,0.0,0.0,0.0,0.0,0.0,0.0,0.0,0.0,0.0,0.0,0.0,0.0,0.0,0.0,0.0,0.0,0.0,0.0,0.0,0.0,0.0,0.0,0.0,0.0,0.0,0.0,0.0,4.2357,4.3391,0.0,4.4504,4.5324,4.5831,4.5831,4.6124,4.63,4.63,4.6273,4.6273,4.63,4.6273,4.6273,4.63,4.6269,4.624,4.624,4.624,4.624,4.624,4.6277,4.63,4.63,4.63,4.63,4.63,4.63,4.63,4.63,4.63,4.63,4.63,4.63,4.63,4.63,4.63,4.63,4.63,4.63,4.63,4.63,4.63,4.63,4.63,4.63,4.63,4.63,4.63,4.63,4.63,4.63,4.63,4.63,4.63,4.63,4.63,4.63,4.63,4.63,4.63,4.63,4.63,4.63,4.63,4.63,4.63,4.63,4.63,4.63,4.63,4.63,4.63,4.63,4.63,4.63,4.63,4.63,4.63,4.63,4.63,4.63,4.63,4.63,0.0,0.0,0.0,0.0,0.0,0.0,0.0,0.0,0.0,0.0,0.0,0.0,0.0,0.0,0.0,0.0,0.0,0.0,0.0,0.0,0.0,0.0,0.0,0.0,0.0,0.0,4.263,4.3216,4.4309,4.5129,4.5402,4.5968,4.63,4.63,4.63,4.6296,4.6273,4.6264,4.6279,4.6279,4.6231,4.6231,4.6279,4.6211,4.6206,4.6206,4.6216,4.6221,4.624,4.6277,4.63,4.63,4.63,4.63,4.63,4.63,4.63,4.63,4.63,4.63,4.63,4.63,4.63,4.63,4.63,4.63,4.63,4.63,4.63,4.63,4.63,4.63,4.63,4.63,4.63,4.63,4.63,4.63,4.63,4.63,4.63,4.63,4.63,4.63,4.63,4.63,4.63,4.63,4.63,4.63,4.6397,4.669,4.6495,4.6495,4.7061,4.6905,4.6846,4.71,4.7139,4.7139,4.7139,4.7139,4.7022,4.6768,4.6749,4.6612,4.63,4.63,4.63,4.63,4.63,4.63,4.63,0.0,0.0,0.0,0.0,0.0,0.0,0.0,0.0,0.0,0.0,0.0,0.0,0.0,0.0,0.0,0.0,0.0,0.0,0.0,0.0,0.0,0.0,0.0,4.2435,4.2454,4.3118,4.4797,4.5012,4.5363,4.6222,4.63,4.63,4.63,4.63,4.6273,4.6206,4.6196,4.6196,4.6196,4.6138,4.6119,4.6196,4.6189,4.6206,4.6206,4.6269,4.6296,4.6296,4.63,4.63,4.63,4.63,4.63,4.63,4.63,4.63,4.63,4.63,4.63,4.63,4.63,4.63,4.63,4.63,4.63,4.63,4.63,4.63,4.63,4.63,4.63,4.63,4.63,4.63,4.63,4.63,4.63,4.63,4.6339,4.6339,4.6358,4.6378,4.6378,4.6378,4.6378,4.6378,4.6378,4.6339,4.6358,4.6651,4.751,4.6924,0.0,4.8584,4.8115,4.7939,4.872,4.8798,4.8798,4.8798,4.8798,4.8466,4.7686,4.7647,4.7256,4.6417,4.6378,4.6378,4.6339,4.63,4.63,4.63,0.0,0.0,0.0,0.0,0.0,0.0,0.0,0.0,0.0,0.0,0.0,0.0,0.0,0.0,0.0,0.0,0.0,0.0,0.0,0.0,0.0,0.0,4.3333,4.3333,4.3899,4.4465,4.4933,4.5558,4.6046,4.628,4.63,4.6277,4.624,4.6236,4.6226,4.6196,4.6203,4.6196,4.6196,4.6177,4.6177,4.6196,4.6209,4.6183,4.6135,4.6142,4.615,4.6169,4.6216,4.624,4.6236,4.6236,4.6269,4.63,4.63,4.63,4.63,4.63,4.63,4.63,4.63,4.63,4.63,4.63,4.63,4.63,4.63,4.63,4.63,4.63,4.63,4.63,4.63,4.63,4.63,4.63,4.63,4.6456,4.71,4.7237,4.7393,4.7998,4.8115,4.8115,4.8115,4.8115,4.7939,4.7334,4.7725,4.8193,4.8427,4.8271,0.0,4.874,4.8603,4.8545,4.8779,4.8798,4.8798,4.8798,4.8798,4.8701,4.8486,4.8466,4.8369,4.8115,4.8115,4.7842,4.7256,4.6612,4.63,0.0,0.0,0.0,0.0,0.0,0.0,0.0,0.0,0.0,0.0,0.0,0.0,0.0,0.0,0.0,0.0,0.0,0.0,0.0,0.0,0.0,0.0,4.3918,4.4364,4.4708,4.4887,4.5148,4.55,4.5987,4.6296,4.6269,4.6269,4.624,4.6189,4.6209,4.6196,4.6154,4.6154,4.6146,4.613,4.6115,4.6115,4.613,4.6146,4.6138,4.6093,4.6138,4.6146,4.6146,4.6189,4.6196,4.6206,4.6206,4.624,4.63,4.63,4.63,0.0,0.0,0.0,0.0,0.0,4.63,4.63,4.63,4.63,4.63,4.63,4.63,4.63,4.63,4.63,4.6378,4.6749,4.6846,4.6924,4.7256,4.7354,4.7471,4.7978,4.8096,4.8232,4.8701,4.8798,4.8798,4.8798,4.9091,0.0,4.874,4.874,4.8915,4.9286,4.9032,4.9052,4.9794,4.9579,4.9481,4.9852,4.9891,4.9891,4.9891,4.9891,0.0,0.0,0.0,4.9189,4.8818,4.8798,0.0,0.0,0.0,4.7354,4.7354,4.7002,0.0,0.0,4.6475,4.63,0.0,0.0,0.0,0.0,0.0,0.0,0.0,0.0,0.0,0.0,0.0,0.0,0.0,0.0,0.0,0.0,4.5086,4.5391,4.6119,4.5581,4.5414,4.6195,4.6296,4.6269,4.6206,4.6201,4.6209,4.6196,4.6189,4.6154,4.6093,0.0,0.0,0.0,0.0,4.6007,4.5997,4.6075,4.6093,4.6084,4.6146,4.6189,4.6189,4.6189,4.619,4.6195,4.6206,4.6221,4.6296,4.63,4.63,4.63,4.63,4.63,4.63,4.63,4.63,4.63,4.63,0.0,0.0,4.63,4.6378,4.6456,4.6456,4.6515,4.6749,4.753,4.7744,4.79,4.8603,4.8798,4.8818,4.8915,4.8954,4.8974,4.9072,4.9091,4.9091,4.9091,4.9716,5.0243,5.0243,4.9618,4.9364,5.0126,4.9599,4.9657,5.1199,5.0711,5.0535,5.1316,0.0,0.0,5.1394,5.1394,5.1063,5.0301,5.0243,4.9891,4.913,4.8993,4.8954,4.8954,4.8857,4.8798,4.8798,4.8076,4.7744,4.7705,4.6749,4.63,0.0,0.0,0.0,0.0,0.0,0.0,0.0,0.0,0.0,0.0,0.0,0.0,0.0,0.0,0.0,4.4972,4.5542,4.6045,4.6253,4.6108,4.6021,4.6196,4.622,4.6206,4.619,4.6209,4.6176,4.6111,4.613,4.6093,4.6017,4.6017,4.6007,4.5997,4.6047,4.6047,4.5997,4.6075,4.6075,4.6017,0.0,0.0,4.6037,4.6093,4.6111,4.6127,4.6183,4.6211,4.6216,4.6273,4.63,4.63,4.63,4.63,4.63,4.63,4.63,4.63,4.63,4.63,4.63,4.63,4.6788,4.7354,4.7354,4.7803,0.0,4.8525,4.8564,4.8603,4.8759,4.8798,4.8974,4.9677,4.9852,5.0048,5.075,5.0906,5.0906,5.0906,5.1023,5.116,5.116,5.1004,5.0945,5.1121,5.1004,5.1023,5.1355,5.1258,5.1219,5.1375,5.1394,5.1394,5.1394,5.1394,5.1336,5.116,5.116,5.1063,5.0906,5.0223,4.9852,4.9852,4.9169,4.8798,4.8798,4.8642,4.8564,4.8525,4.7002,4.63,0.0,0.0,0.0,0.0,0.0,0.0,0.0,0.0,0.0,0.0,0.0,4.3814,4.4182,0.0,4.5597,4.5601,4.5933,4.6201,4.6209,4.6203,4.6203,4.6203,4.6203,4.619,4.6154,4.6146,4.6111,4.6066,4.6037,4.6047,4.5997,4.5997,4.5997,4.5997,4.6027,4.6027,4.5997,4.6027,4.6027,4.5997,4.5997,4.5997,4.5997,4.6027,4.6075,4.6102,4.6142,4.617,4.6209,4.6236,4.6273,4.63,4.63,4.63,4.63,4.63,4.63,4.63,4.63,4.6593,4.6944,4.6944,4.753,4.8193,4.8193,4.8486,4.8896,4.9325,4.9442,4.956,4.9989,5.0106,5.0204,5.0653,5.075,5.0867,5.1316,5.1394,5.1394,5.1394,5.1394,5.1394,5.1394,5.1394,5.1394,5.1394,5.1394,5.1394,5.1394,5.1394,5.1394,5.1394,5.1394,5.1394,5.1394,5.1394,5.1394,5.1394,5.1394,5.1394,5.1394,5.0984,5.075,5.075,5.0321,5.0106,5.0106,4.9657,4.9442,4.9423,4.8135,4.7549,0.0,0.0,0.0,0.0,0.0,0.0,0.0,0.0,4.267,4.2846,4.3992,4.5011,4.5117,4.5713,4.6195,4.6203,4.6203,4.6183,4.6138,4.613,4.6164,4.6189,4.6183,4.6154,4.6084,4.6084,4.6066,4.6007,4.5997,4.5997,4.5997,4.5997,4.5997,4.5997,4.5997,4.5997,4.5997,4.5997,4.5997,4.5997,4.5997,4.5997,4.5997,4.6007,4.6037,4.6084,4.6093,4.6138,4.6203,4.6195,4.624,4.6277,4.63,4.63,4.63,4.63,4.63,4.6319,4.6495,4.7002,4.7627,4.7783,4.8388,4.9052,4.9052,4.9169,4.9442,5.0145,5.036,5.0516,5.1219,5.1394,5.1394,5.1394,5.1394,5.1394,5.1394,5.1394,5.1394,5.1394,5.1394,5.1394,5.1394,5.1394,5.1394,5.1394,5.1394,5.1394,5.1394,5.1394,5.1394,5.1394,5.1394,5.1394,5.1394,5.1394,5.1394,5.1394,5.1394,5.1394,5.1394,5.1394,5.1394,5.1394,5.1394,5.1394,5.1394,5.0692,5.036,5.034,4.9638,4.9111,4.0993,4.1007,0.0,4.1013,4.1578,4.2175,0.0,0.0,4.3689,4.4462,4.478,4.5124,4.5846,4.6092,4.6195,4.6203,4.6203,4.6203,4.6196,4.6093,4.6047,4.6111,4.6111,4.6084,4.6017,4.6007,4.6007,4.5997,4.5997,4.5997,4.5997,4.5997,4.5997,4.5997,4.5997,4.5997,4.5997,4.5997,4.5997,4.5997,4.5997,4.5997,4.6007,4.6066,4.6066,4.6007,4.6075,4.6138,4.6203,4.6195,4.6211,4.6216,4.6273,4.63,4.63,4.63,4.63,4.6417,4.7198,4.753,4.7725,4.8427,4.9247,4.995,4.995,5.0496,5.1121,5.1238,5.1258,5.1277,5.1375,5.1394,5.1394,5.1394,5.1394,5.1394,5.1394,5.1394,5.1394,5.1394,5.1394,5.1394,5.1394,5.1394,5.1394,5.1394,5.1394,5.1394,5.1394,5.1394,5.1394,5.1394,5.1394,5.1394,5.1394,5.1394,5.1394,5.1394,5.1394,5.1394,5.1394,5.1394,5.1394,5.1394,5.1394,5.1394,5.1394,5.1297,5.1258,5.1258,5.1141,5.0282,4.0941,0.0,0.0,0.0,4.2381,4.3004,4.3026,4.3714,4.4455,4.4764,4.5285,4.5753,4.6044,4.6127,4.6135,0.0,4.613,4.6138,4.6084,4.6075,4.6047,4.6037,4.6037,4.6027,4.6007,4.5997,4.5997,4.5997,4.5997,4.5997,4.5997,4.5997,4.5997,4.5997,4.5997,4.5997,4.5997,4.5997,4.5997,4.5997,4.5997,4.5997,4.5997,4.6027,4.6017,4.5997,4.6027,4.6093,4.6196,4.6196,4.622,4.6269,4.6296,4.6612,4.7061,4.7061,4.7061,4.7178,4.8017,4.8623,4.9111,4.9442,5.0145,5.0867,5.0867,5.1102,5.1394,5.1394,5.1394,5.1394,5.1394,5.1394,5.1394,5.1394,5.1394,5.1394,5.1394,5.1394,5.1394,5.1394,5.1394,5.1394,5.1394,5.1394,5.1394,5.1394,5.1394,5.1394,5.1394,5.1394,5.1394,5.1394,5.1394,5.1394,5.1394,5.1394,5.1394,5.1394,5.1394,5.1394,5.1394,5.1394,5.1394,5.1394,5.1394,5.1394,5.1394,5.1394,5.1394,5.1394,5.1394,5.1004,4.1489,0.0,0.0,4.2615,4.3218,4.3802,4.3801,4.4482,4.5123,4.5113,4.5637,4.6113,4.6075,4.6084,4.6084,4.6007,4.6066,4.6075,4.6007,4.6037,4.6047,4.6007,4.5997,4.5997,4.5997,4.5997,4.5997,4.5997,4.5997,4.5997,4.5997,4.5997,4.5997,4.5997,4.5997,4.5997,4.5997,4.5975,4.6091,4.6366,4.6324,4.643,4.6663,4.6628,4.6615,4.6615,4.6615,4.6663,4.6766,4.6822,4.6858,4.6908,4.6967,4.7389,4.7959,4.8193,4.8135,4.8057,4.8876,4.9579,5.0145,5.0379,5.0887,5.1394,5.1394,5.1394,5.1394,5.1394,5.1394,5.1394,5.1394,5.1394,5.1394,5.1394,5.1394,5.1394,5.1394,5.1394,5.1394,5.1394,5.1394,5.1394,5.1394,5.1394,5.1394,5.1394,5.1394,5.1394,5.1394,5.1394,5.1394,5.1394,5.1394,5.1394,5.1394,5.1394,5.1394,5.1394,5.1394,5.1394,5.1394,5.1394,5.1394,5.1394,5.1394,5.1394,5.1394,5.1394,5.1394,5.1394,5.1394,5.1394,4.297,0.0,4.3291,4.3432,4.4029,4.4582,4.4564,4.5131,4.5699,4.5832,4.5898,4.5944,4.5986,4.6066,4.6084,4.6007,4.6066,4.6075,4.6007,4.5997,4.6007,4.5997,4.5997,4.5997,0.0,4.5997,4.5997,4.5997,4.5997,4.5997,4.5997,4.5997,4.5997,4.5997,4.5997,4.5997,4.5997,4.5937,4.6363,4.7259,4.7126,4.75,4.8313,4.8179,4.8133,4.8133,4.8133,4.8133,4.8147,4.8341,4.8433,4.8448,4.8652,4.8738,4.8876,4.9716,4.9481,4.8896,4.9755,5.0087,5.0243,5.1082,5.1375,5.1394,5.1394,5.1394,5.1394,5.1394,5.1394,5.1394,5.1394,5.1394,5.1394,5.1394,5.1394,5.1394,5.1394,5.1394,5.1394,5.1394,5.1394,5.1394,5.1394,5.1394,5.1394,5.1394,5.1394,5.1394,5.1394,5.1394,5.1394,5.1394,5.1394,5.1394,5.1394,5.1394,5.1394,5.1394,5.1394,5.1394,5.1394,5.1394,5.1394,5.1394,5.1394,5.1394,5.1394,5.1394,5.1394,5.1394,5.1394,5.1394,4.3086,4.3583,4.4042,4.4103,4.4728,4.5332,4.5327,4.5514,4.5712,4.5752,4.5771,4.5757,4.58,4.5827,4.5854,4.5925,4.5949,4.5972,4.5997,4.5997,4.5997,4.5997,4.5972,0.0,0.0,0.0,0.0,4.5925,4.5925,4.5925,4.5925,4.5983,4.5975,4.5937,4.6448,4.67,4.6612,4.7148,4.7577,4.7913,4.7847,4.7986,4.8276,4.8227,4.8193,4.8193,4.8193,4.8292,4.8405,4.8458,4.8563,4.8639,4.8756,4.9157,4.9694,4.9981,5.0282,5.0575,5.0867,5.0965,5.1004,5.1297,5.1394,5.1394,5.1394,5.1394,5.1394,5.1394,5.1394,5.1394,5.1394,5.1394,5.1394,5.1394,5.1394,5.1394,5.1394,5.1394,5.1394,5.1394,5.1394,5.1394,5.1394,5.1882,5.2468,5.3034,5.2136,5.1394,5.1394,5.1394,5.1394,5.1394,5.1394,5.1394,5.1394,5.1394,5.1394,5.1394,5.1394,5.1394,5.1394,5.1394,5.1394,5.1394,5.1394,5.1394,5.1394,5.1394,5.1394,5.1394,5.1394,5.1394,4.3869,4.4366,4.4807,4.4855,4.5244,4.5635,4.5635,4.5601,4.5584,4.5618,4.5635,4.5632,4.57,4.5746,4.5776,4.5819,4.5887,4.5937,4.5972,4.5953,4.5953,4.5953,4.5887,4.5819,0.0,0.0,0.0,4.5819,4.5819,4.5819,4.5819,4.5867,4.6003,4.6245,4.6752,4.7133,4.7362,4.7869,4.8295,4.8603,4.8892,4.9008,4.9008,4.9008,4.9008,4.9026,4.908,4.9161,4.9296,4.9362,4.9443,4.9527,4.9617,5.0017,5.0524,5.0522,5.0903,5.1401,5.139,5.1394,5.1394,5.1394,5.1394,5.1394,5.1394,5.1394,5.1394,5.1394,5.1394,5.1394,5.1394,5.1394,5.1394,5.1394,5.1648,5.1863,5.1863,5.2117,5.2331,5.2331,5.2331,5.2331,5.2331,5.278,5.3346,5.3912,5.3053,5.2331,5.2331,5.2331,5.2331,5.2331,5.2331,5.2331,5.2331,5.2331,5.2331,5.2331,5.2038,5.1863,5.1863,5.157,5.1394,5.1394,5.1394,5.1394,5.1394,5.1394,5.1394,5.1394,5.1394,5.1394,4.5246,4.5495,4.5531,4.5651,4.5565,4.5495,4.5495,4.54,4.5338,4.5457,4.5495,4.5531,0.0,0.0,4.5819,4.5715,4.5848,4.5953,4.5906,4.5893,4.5893,0.0,0.0,0.0,0.0,0.0,0.0,4.5684,0.0,4.57,4.57,4.5738,4.6105,4.6879,4.6976,4.7422,4.8234,4.8164,4.8528,4.9374,5.0122,5.0486,5.0486,5.0486,5.0486,5.0507,5.0624,5.0696,5.0713,5.0921,5.099,5.1011,5.1161,5.1239,5.13,5.13,5.1349,5.14,5.1406,5.1394,5.1394,5.1394,5.1394,5.1394,5.1394,5.1394,5.1394,5.1394,5.1394,5.1414,5.1453,5.1472,5.1472,5.1511,5.2156,5.2761,5.2761,5.3424,5.401,5.401,5.401,5.401,5.4068,5.4068,5.4088,5.4127,5.4127,5.4108,5.401,5.401,5.401,5.401,5.401,5.401,5.401,5.401,5.401,5.401,5.321,5.2761,5.2761,5.196,5.1531,5.1531,5.1531,5.1531,5.1531,5.1492,5.1472,5.1472,5.1414,5.1394,4.5282,4.5339,4.536,4.54,4.538,4.5339,4.5339,4.5319,4.5317,4.5339,4.5339,4.536,0.0,0.0,0.0,4.5549,4.5599,0.0,4.5746,4.5746,0.0,0.0,0.0,4.5549,4.5549,4.5419,0.0,0.0,4.5495,4.5549,4.5549,4.621,4.6634,4.676,4.801,4.8759,4.8867,4.9436,4.9835,5.0046,5.0256,5.0352,5.0352,5.0352,5.0399,5.0507,5.0547,5.0699,5.0921,5.0971,5.1062,5.1152,5.118,5.122,5.1239,5.1342,5.1388,5.14,5.1406,5.1394,5.1394,5.1394,5.1394,5.1394,5.1394,5.1394,5.1394,5.1394,5.1394,5.155,5.2195,5.237,5.2526,5.3171,5.3502,5.3678,5.3678,5.3834,5.401,5.401,5.401,5.4205,5.4869,5.4966,5.5181,5.5845,5.5942,5.5474,5.4166,5.401,5.401,5.401,5.401,5.401,5.401,5.401,5.401,5.401,5.3795,5.3678,5.3678,5.3463,5.3346,5.3346,5.3346,5.3346,5.3346,5.2683,5.237,5.2351,5.1707,5.1394,4.5297,4.5297,4.5297,4.5297,4.5297,4.5297,4.5297,4.5297,4.5297,4.5297,4.5297,0.0,0.0,0.0,0.0,0.0,0.0,0.0,4.5618,4.5618,4.5618,0.0,4.5495,0.0,4.54,4.5339,4.5297,0.0,4.536,4.5572,4.5917,4.6436,4.7031,4.7738,4.8715,4.9341,4.9614,5.0073,5.0302,5.0302,5.0302,5.0302,5.0302,5.0374,5.0421,5.0507,0.0,5.068,5.0871,5.0871,5.0917,5.0995,5.1088,5.1113,5.1136,5.1248,5.1335,5.1356,5.1391,5.1406,5.1394,5.1394,5.1394,5.1394,5.1394,5.1394,5.1472,5.1863,5.196,5.2175,5.3034,5.3268,5.3385,5.3873,5.4283,5.4576,5.4576,5.4869,5.5142,5.5142,5.5142,5.5298,5.5786,5.5864,5.604,5.6528,5.6606,5.6255,5.5279,5.5142,5.5142,5.5142,5.5142,5.5142,5.5142,5.5142,5.5142,5.5142,5.4771,5.4576,5.4576,5.4205,5.401,5.401,5.401,5.401,5.401,5.3502,5.3268,5.3268,5.2761,5.2546,4.5297,4.5297,4.5297,4.5297,4.5297,4.5297,4.5297,4.5297,4.5297,4.5297,0.0,4.5297,4.5297,4.54,4.5438,4.5317,0.0,4.5618,4.5495,4.5476,4.5476,4.5476,4.538,4.5297,4.5297,4.5297,4.5297,4.5297,4.5392,4.5755,4.6462,4.6615,4.7474,4.9194,4.9251,4.9595,5.0283,5.0302,5.0302,5.0302,5.0302,5.0302,5.0302,5.0421,5.0486,5.0507,5.0605,5.0678,5.0696,5.0696,5.0696,5.0713,5.0887,5.0971,5.1015,5.1128,5.123,5.1308,5.1382,5.1391,5.1394,5.1394,5.1394,5.1394,5.1394,5.1472,5.1726,5.2487,5.278,5.3073,5.3951,5.4166,5.4205,5.4322,5.4927,5.5474,5.5474,5.6079,5.6606,5.6606,5.6606,5.6606,5.6606,5.6606,5.6606,5.6606,5.6606,5.6606,5.6606,5.6606,5.6606,5.6606,5.6606,5.6606,5.6606,5.6606,5.6606,5.6606,5.5884,5.5474,5.5474,5.4752,5.4342,5.4342,5.4342,5.4342,5.4342,5.4225,5.4166,5.4166,5.4049,5.401,4.5297,4.5297,4.5297,4.5297,4.5297,4.5297,4.5297,4.5297,0.0,0.0,4.5297,4.5297,4.5297,4.5317,4.5338,4.5317,0.0,0.0,0.0,0.0,4.5319,0.0,0.0,0.0,0.0,0.0,0.0,0.0,0.0,4.6347,4.65,4.7188,4.8353,5.0034,5.0092,5.0168,5.0302,5.0302,5.0302,5.0302,5.0302,5.0302,5.0302,5.0306,5.0418,5.0507,5.0508,0.0,5.0696,5.0696,5.0696,5.0696,5.075,5.0835,5.1,5.1037,5.1152,5.1308,5.1382,5.1391,5.1394,5.1394,5.1394,5.1394,5.1394,5.1902,5.2507,5.2663,5.321,5.3971,5.4849,5.5064,5.5259,5.5981,5.6255,5.6372,5.6372,5.6489,5.6606,5.6606,5.6606,5.6606,5.6606,5.6606,5.6606,5.6606,5.6606,5.6606,5.6606,5.6606,5.6606,5.6606,5.6606,5.6606,5.6606,5.6606,5.6606,5.6606,5.6469,5.6372,5.6372,5.6235,5.6157,5.6157,5.6157,5.6157,5.6157,5.5435,5.5064,5.5064,5.4342,5.401,4.5297,4.5297,4.5297,4.5297,4.5297,4.5297,4.5297,0.0,0.0,0.0,4.5297,4.5297,4.5297,4.5297,0.0,0.0,0.0,0.0,0.0,0.0,0.0,0.0,0.0,0.0,0.0,0.0,0.0,0.0,0.0,4.671,4.715,4.8411,4.948,5.0264,5.0302,5.0302,5.0302,5.0302,5.0302,5.0302,5.0302,5.0302,5.0302,5.0302,5.0348,5.0418,5.0418,5.0442,5.0507,5.0507,5.0507,5.0507,5.0567,5.0643,5.0752,5.0859,5.0953,5.1047,5.1132,5.1189,5.1238,5.1239,5.1308,5.1472,5.1941,5.237,5.2897,5.3795,5.4342,5.4888,5.5747,5.5981,5.6079,5.6508,5.6606,5.6606,5.6606,5.6606,5.6606,5.6606,5.6606,5.6606,5.6606,5.6606,5.6606,5.6606,5.6606,5.6606,5.6606,5.6606,5.6606,5.6606,5.6606,5.6606,5.6606,5.6606,5.6606,5.6606,5.6606,5.6606,5.6606,5.6606,5.6606,5.6606,5.6606,5.6606,5.6606,5.6177,5.5981,5.5962,5.5552,5.5357,4.5297,4.5297,4.5297,4.5297,4.5297,4.5297,4.5297,4.5297,0.0,0.0,4.5297,4.5297,4.5297,4.5297,4.5297,0.0,0.0,0.0,0.0,0.0,0.0,0.0,0.0,0.0,0.0,0.0,0.0,0.0,0.0,0.0,4.8028,4.95,5.0302,5.0302,5.0302,5.0302,5.0302,5.0302,5.0302,5.0302,5.0302,5.0302,5.0302,5.0302,5.0302,5.0302,5.0302,5.0302,5.0302,5.0302,5.0302,5.0325,5.0421,5.0466,5.0527,5.0677,5.0758,5.0805,5.0865,5.0959,5.1089,5.1249,5.1471,5.18,5.2487,5.2956,5.3541,5.4908,5.5435,5.5747,5.6411,5.6606,5.6606,5.6606,5.6606,5.6606,5.6606,5.6606,5.6606,5.6606,5.6606,5.6606,5.6606,5.6606,5.6606,5.6606,5.6606,5.6606,5.6606,5.6606,5.6606,5.6606,5.6606,5.6606,5.6606,5.6606,5.6606,5.6606,5.6606,5.6606,5.6606,5.6606,5.6606,5.6606,5.6606,5.6606,5.6606,5.6606,5.6606,5.6606,5.6606,5.6606,4.5297,4.5297,4.5297,4.5297,4.5297,4.5297,4.5297,0.0,0.0,4.5297,4.5297,4.5297,4.5297,4.5297,4.5297,0.0,4.5297,4.5297,0.0,0.0,0.0,0.0,0.0,0.0,0.0,0.0,0.0,0.0,0.0,0.0,4.8926,4.9824,5.0302,5.0302,5.0302,5.0302,5.0302,5.0302,5.0302,5.0302,5.0302,5.0302,5.0302,5.0302,5.0302,5.0302,5.0302,5.0302,0.0,5.0302,5.0302,5.0302,5.0325,5.0377,5.0507,5.0527,5.0641,5.079,5.0805,5.0865,5.1037,5.1773,5.2242,5.2517,5.2659,5.3815,5.5083,5.524,5.5864,5.6508,5.6586,5.6606,5.6606,5.6606,5.6606,5.6606,5.6606,5.6606,5.6606,5.6606,5.6606,5.6606,5.6606,5.6606,5.6606,5.6606,5.6606,5.6606,5.6606,5.6606,5.6606,5.6606,5.6606,5.6606,5.6606,5.6606,5.6606,5.6606,5.6606,5.6606,5.6606,5.6606,5.6606,5.6606,5.6606,5.6606,5.6606,5.6606,5.6606,5.6606,5.6606,5.6606,4.5297,4.5297,4.5297,4.5297,4.5297,4.5297,4.5297,0.0,4.5297,4.5297,4.5297,4.5297,4.5297,4.5297,4.5297,4.5297,4.5297,4.5297,4.5297,0.0,0.0,0.0,0.0,0.0,0.0,0.0,0.0,0.0,0.0,0.0,4.9748,5.013,5.0302,5.0302,5.0302,5.0302,5.0302,5.0302,5.0302,5.0302,5.0302,5.0302,5.0302,5.0302,5.0302,5.0302,5.0302,5.0302,0.0,5.0302,5.0302,5.0302,5.0302,5.0329,5.0396,5.0396,5.0423,5.0508,5.0508,5.0895,5.1506,5.1868,5.2821,5.3849,5.402,5.4566,5.5255,5.5894,5.6333,5.6606,5.6606,5.6606,5.6606,5.6606,5.6606,5.6606,5.6606,5.6606,5.6606,5.6606,5.6606,5.6606,5.6606,5.6606,5.6606,5.6606,5.6606,5.6606,5.6606,5.6606,5.6606,5.6606,5.6606,5.6606,5.6606,5.6606,5.6606,5.6606,5.6606,5.6606,5.6606,5.6606,5.6606,5.6606,5.6606,5.6606,5.6606,5.6606,5.6606,5.6606,5.6606,5.6606,4.5297,4.5297,4.5297,4.5297,4.5297,4.5297,0.0,4.5297,4.5297,4.5297,4.5297,4.5297,4.5297,4.5297,4.5297,4.5297,4.5297,4.5297,4.5297,0.0,0.0,0.0,0.0,0.0,0.0,0.0,0.0,0.0,0.0,0.0,4.9862,5.0168,5.0302,5.0302,5.0302,5.0302,5.0302,5.0302,5.0302,5.0302,5.0302,5.0302,5.0302,5.0302,5.0302,5.0302,5.0302,5.0302,0.0,5.0302,5.0302,5.0302,5.0302,5.0302,5.0302,5.0302,5.0302,5.034,5.0608,5.1159,5.1826,5.2372,5.3416,5.4553,5.5059,5.5248,5.5472,5.6276,5.6553,5.6582,5.6523,5.6548,5.6572,5.6572,5.6572,5.6553,5.6548,5.6567,5.6553,5.6548,5.6567,5.6572,5.6572,5.6582,5.6606,5.6606,5.6606,5.6606,5.6606,5.6606,5.6606,5.6606,5.6606,5.6606,5.6606,5.6606,5.6606,5.6606,5.6606,5.6606,5.6606,5.6606,5.6606,5.6606,5.6606,5.6606,5.6606,5.6606,5.6606,5.6606,5.6606,5.6606,4.5297,4.5297,4.5297,4.5297,4.5297,4.5297,0.0,4.5297,4.5297,4.5297,4.5297,4.5297,4.5297,4.5297,4.5297,4.5297,4.5297,4.5297,4.5297,4.5297,0.0,0.0,0.0,0.0,0.0,0.0,0.0,0.0,0.0,0.0,4.906,4.9862,5.0302,5.0302,5.0302,5.0302,5.0302,5.0302,5.0302,5.0302,5.0302,5.0302,5.0302,5.0302,5.0302,5.0302,5.0302,5.0302,0.0,5.0302,5.0302,5.0302,5.0302,5.0302,5.0302,5.0302,5.0302,5.0417,5.1295,5.1601,5.1888,5.3531,5.4085,5.4293,5.5378,5.5842,5.6029,5.6241,5.6452,5.6553,5.6347,5.6402,5.6504,5.6504,5.6504,5.6471,5.6422,5.6457,5.6471,5.6414,5.6457,5.6504,5.6504,5.6567,5.6606,5.6606,5.6606,5.6606,5.6606,5.6606,5.6606,5.6606,5.6606,5.6606,5.6606,5.6606,5.6606,5.6606,5.6606,5.6606,5.6606,5.6606,5.6606,5.6606,5.6606,5.6606,5.6606,5.6606,5.6606,5.6606,5.6606,5.6606,4.5297,4.5297,4.5297,4.5297,4.5297,4.5297,4.5297,4.5297,4.5297,4.5297,4.5297,4.5297,4.5297,4.5297,4.5297,4.5297,4.5297,4.5297,4.5297,0.0,0.0,0.0,0.0,0.0,0.0,0.0,0.0,0.0,0.0,4.8181,4.9041,4.9862,5.0302,5.0302,5.0302,5.0302,5.0302,5.0302,5.0302,5.0302,5.0302,5.0302,5.0302,5.0302,5.0302,5.0302,5.0302,5.0302,5.0302,5.0302,5.0302,5.0302,5.0302,5.0302,5.0302,5.0302,5.0302,5.0417,5.1314,5.1964,5.2614,5.3722,5.4505,5.5065,5.5394,5.5645,5.5843,5.6049,5.6129,5.6185,5.6104,5.6185,5.629,5.629,5.6357,5.6422,5.6394,5.6422,5.6422,5.6394,5.6457,5.6504,5.6504,5.6567,5.6606,5.6606,5.6606,5.6606,5.6606,5.6606,5.6606,5.6606,5.6606,5.6606,5.6606,5.6606,5.6606,5.6606,5.6606,5.6606,5.6606,5.6606,5.6606,5.6606,5.6606,5.6606,5.6606,5.6606,5.6606,5.6606,5.6606,5.6606,4.5297,4.5297,4.5297,4.5297,4.5297,4.5297,4.5297,4.5297,4.5297,4.5297,4.5297,4.5297,4.5297,4.5297,4.5297,4.5297,4.5297,4.5297,4.5297,0.0,0.0,0.0,0.0,0.0,0.0,0.0,0.0,0.0,0.0,4.8048,4.8582,4.9671,5.0302,5.0302,5.0302,5.0302,5.0302,5.0302,5.0302,5.0302,5.0302,5.0302,5.0302,5.0302,5.0302,5.0302,5.0302,5.0302,0.0,5.0302,5.0302,5.0302,5.0302,5.0302,5.0302,5.0302,5.0512,5.0913,5.1754,5.2594,5.3435,5.4314,5.4963,5.5403,5.5403,5.5527,5.5711,5.577,5.5877,5.599,5.591,5.5994,5.6082,5.6082,5.6155,5.6224,5.6236,5.6236,5.6247,5.633,5.6377,5.6402,5.6498,5.6567,5.6577,5.6503,5.6553,5.6553,5.6391,5.6432,5.6485,5.6485,5.6459,5.6478,5.6567,5.6582,5.6606,5.6606,5.6606,5.6606,5.6606,5.6606,5.6606,5.6606,5.6606,5.6606,5.6606,5.6606,5.6606,5.6606,5.6606,5.6606,0.0,4.5297,4.5297,4.5297,4.5297,4.5297,4.5297,4.5297,0.0,4.5297,4.5297,4.5297,4.5297,4.5297,4.5297,4.5297,4.5297,4.5297,4.5297,0.0,0.0,0.0,0.0,0.0,0.0,0.0,0.0,0.0,4.6806,4.7742,4.7799,4.9347,5.0245,5.0302,5.0302,5.0302,5.0302,5.0302,5.0302,5.0302,5.0302,5.0302,5.0302,5.0302,5.0302,0.0,5.0302,5.0302,5.0302,5.0302,5.0302,5.0302,5.0302,5.0302,5.0302,5.0378,5.0913,5.1735,5.2594,5.3416,5.4237,5.5116,5.5403,5.5403,5.5403,5.5547,5.5645,5.544,5.5668,5.591,5.573,5.577,5.588,5.588,5.5898,5.5915,5.5968,5.5932,5.5982,5.6212,5.6224,5.6258,5.643,5.6517,5.6497,5.6316,5.6439,5.6425,5.6045,5.6158,5.6281,5.6281,5.6208,5.6269,5.6464,5.6542,5.6582,5.6582,5.6582,5.6582,5.6582,5.6606,5.6606,5.6606,5.6606,5.6606,5.6606,5.6606,5.6606,5.6606,5.6665,5.6684,4.5297,0.0,4.5297,4.5297,4.5297,4.5297,0.0,4.5297,4.5297,4.5297,0.0,4.5297,4.5297,4.5297,4.5297,4.5297,4.5297,4.5297,4.5297,0.0,0.0,0.0,0.0,0.0,0.0,0.0,0.0,4.5297,4.6233,4.7111,4.7761,4.8812,4.9652,5.0283,5.0302,5.0302,5.0302,5.0302,5.0302,5.0302,5.0302,5.0302,5.0302,5.0302,5.0302,5.0302,5.0302,5.0302,5.0302,5.0302,5.0302,5.0302,5.0302,5.0302,5.0378,5.1047,5.1429,5.1811,5.3282,5.3932,5.4237,5.5116,5.5403,5.5403,5.5403,5.5434,5.5465,5.5409,5.5465,5.5523,5.547,5.5573,5.5686,5.5686,5.5749,5.5827,5.5845,5.5827,5.5864,5.5971,5.6017,5.6078,5.6168,5.6161,5.6146,5.6146,5.6142,5.6117,5.6005,5.6044,5.6077,5.6077,5.6049,5.6123,5.6269,5.6386,5.6457,5.6457,5.6504,5.6517,5.6517,5.6577,5.6606,5.6606,5.6606,5.6606,5.6606,5.6606,5.6606,5.6606,5.7231,5.7523,4.5297,4.5297,4.5297,4.5297,4.5297,4.5297,4.5297,4.5297,0.0,0.0,0.0,4.5297,4.5297,4.5297,4.5297,4.5297,4.5297,4.5297,0.0,0.0,0.0,0.0,0.0,0.0,0.0,0.0,4.5297,4.5297,4.6042,4.671,4.7188,4.8411,4.9289,4.9729,5.0111,5.0302,5.0302,5.0302,5.0302,5.0302,5.0302,5.0302,5.0302,5.0302,5.0302,5.0302,5.0302,5.0302,5.0302,5.0302,5.0302,5.0302,5.0302,5.0302,5.0417,5.1295,5.183,5.2346,5.3645,5.4352,5.4772,5.525,5.5403,5.5403,5.5403,5.5403,5.5403,5.5403,5.5403,5.5403,5.5403,5.544,5.5495,5.5495,5.557,5.5621,5.5688,5.5665,5.5665,5.5845,5.5882,5.5898,5.6029,5.602,5.5981,5.5936,5.5971,5.5924,5.5749,5.5824,5.5859,5.5859,5.5843,5.5879,5.6054,5.6155,5.6278,5.6386,5.6464,5.6504,5.6504,5.6553,5.6606,5.6606,5.6606,5.6606,5.6606,5.6977,5.7153,5.7172,5.8011,5.8402,4.5297,4.5297,4.5297,4.5297,4.5297,4.5297,4.5297,0.0,0.0,0.0,0.0,0.0,0.0,0.0,0.0,0.0,0.0,0.0,0.0,0.0,0.0,0.0,0.0,0.0,0.0,4.5297,4.5297,4.5297,4.5927,4.6366,4.65,4.8028,4.8945,4.9098,4.9882,5.0302,5.0302,5.0302,5.0302,5.0302,5.0302,5.0302,5.0302,5.0302,5.0302,5.0302,0.0,0.0,5.0302,5.0302,5.0302,5.0302,5.0302,5.0378,5.0608,5.1467,5.2308,5.311,5.4008,5.4791,5.5403,5.5403,5.5403,5.5403,5.5403,5.5403,5.5403,5.5403,5.5403,5.5403,5.5403,5.5403,5.5403,5.5403,5.5403,5.5434,5.5547,5.549,5.547,5.577,5.573,5.5711,5.5894,5.5927,5.584,5.5692,5.5824,5.5788,5.5437,5.5558,5.5647,5.5647,5.5599,5.5643,5.5844,5.5935,5.6073,5.633,5.643,5.6498,5.6511,5.6572,5.6665,5.6782,5.6782,5.686,5.6977,5.768,5.7992,5.8011,5.889,5.93,4.5297,4.5297,4.5297,4.5297,4.5297,4.5297,4.5297,0.0,0.0,0.0,0.0,0.0,0.0,0.0,0.0,0.0,0.0,0.0,0.0,0.0,0.0,0.0,0.0,0.0,4.5297,4.5297,4.5297,4.5297,4.5411,4.5774,4.6462,4.7455,4.8334,4.9079,4.9882,5.0302,5.0302,5.0302,5.0302,5.0302,5.0302,5.0302,5.0302,5.0302,5.0302,5.0302,0.0,5.0302,5.0302,5.0302,5.0302,5.0302,5.0302,5.076,5.1505,5.2327,5.3148,5.4027,5.4906,5.5288,5.5403,5.5403,5.5403,5.5403,5.5403,5.5403,5.5403,5.5403,5.5403,5.5403,5.5403,5.5403,5.5403,5.5403,5.5403,5.5403,5.5409,5.5409,5.5409,5.5461,5.5461,5.5485,5.5558,5.5535,5.5512,5.5531,5.5523,5.5451,5.5408,5.5421,5.546,5.546,5.5434,5.549,5.5621,5.5769,5.5915,5.6129,5.632,5.6464,5.6577,5.6582,5.6918,5.7601,5.7621,5.7972,5.8714,5.8831,5.8909,5.8929,5.9788,6.0198,4.5297,4.5297,4.5297,4.5297,4.5297,4.5297,4.5297,0.0,0.0,0.0,0.0,0.0,0.0,0.0,0.0,0.0,0.0,0.0,0.0,0.0,0.0,0.0,0.0,0.0,4.5297,4.5297,4.5297,4.5297,4.5297,4.564,4.6462,4.7341,4.82,4.906,4.9882,5.0302,5.0302,5.0302,5.0302,5.0302,5.0302,5.0302,5.0302,5.0302,5.0302,5.0302,0.0,5.0302,5.0302,5.0302,5.0302,5.0359,5.0818,5.1257,5.1754,5.3034,5.4046,5.4868,5.5269,5.5403,5.5403,5.5403,5.5403,5.5403,5.5403,5.5403,5.5403,5.5403,5.5403,5.5403,5.5403,5.5403,5.5403,5.5403,5.5403,5.5403,5.5403,5.5403,5.5403,5.539,5.5415,5.5415,5.544,5.5415,5.5415,5.544,5.5409,5.5384,5.539,5.5409,5.5403,5.5403,5.5403,5.544,5.5573,5.5729,5.5932,5.6247,5.6377,5.6699,5.7231,5.725,5.7641,5.8499,5.8499,5.8695,5.9104,5.9573,5.9807,5.9827,6.0705,6.1095,4.5173,4.5173,4.5194,4.5297,0.0,4.5297,4.5297,0.0,0.0,0.0,0.0,0.0,0.0,0.0,0.0,0.0,0.0,0.0,0.0,0.0,0.0,0.0,0.0,4.5297,4.5297,4.5297,4.5297,4.5297,4.5297,4.564,4.6462,4.7341,4.82,4.906,4.9882,5.0302,5.0302,5.0302,5.0302,5.0302,5.0302,5.0302,5.0302,5.0302,5.0302,5.0302,5.0302,5.0302,5.0302,5.0302,5.0302,5.0397,5.1257,5.1849,5.2365,5.3855,5.483,5.5403,5.5403,5.5403,5.5403,5.5403,5.5403,5.5403,5.5403,5.5403,5.5403,5.5403,5.5403,5.5403,5.5403,5.5403,5.5403,5.5403,5.5403,5.5403,5.5403,5.5403,5.5403,5.5403,5.5403,5.5403,5.5403,5.5403,5.5403,5.5403,5.5403,5.5403,5.5403,5.5403,5.5403,5.5403,5.5403,5.5561,5.591,5.6058,5.6385,5.6981,5.6881,5.7211,5.807,5.8109,5.8519,5.9397,5.9397,5.9495,5.971,6.0373,6.0705,6.0725,6.1388,6.1701,4.4843,4.4843,4.491,4.5235,4.5297,0.0,4.5297,0.0,0.0,0.0,0.0,0.0,0.0,0.0,0.0,0.0,0.0,0.0,0.0,0.0,0.0,0.0,4.5297,4.5297,4.5297,4.5297,4.5297,4.5297,4.5297,4.564,4.6462,4.7341,4.82,4.906,4.9882,5.0302,5.0302,5.0302,5.0302,5.0302,5.0302,5.0302,5.0302,5.0302,5.0302,5.0302,5.0302,5.0302,5.0302,5.0302,5.0302,5.0397,5.1257,5.2556,5.4027,5.4963,5.5345,5.5403,5.5403,5.5403,5.5403,5.5403,5.5403,5.5403,5.5403,5.5403,5.5403,5.5403,5.5403,5.5403,5.5403,5.5403,5.5403,5.5403,5.5403,5.5403,5.5403,5.5403,5.5403,5.5403,5.5403,5.5403,5.5403,5.5403,5.5403,5.5403,5.5403,5.5403,5.5403,5.5403,5.5403,5.5403,5.5403,5.582,5.6906,5.7061,5.7591,5.8734,5.8116,5.8109,5.8968,5.9007,5.9417,6.0295,6.0315,6.0705,6.1505,6.1583,6.1603,6.1603,6.1681,6.1701,4.4776,4.4701,4.4676,4.4934,4.4838,0.0,0.0,0.0,0.0,0.0,0.0,0.0,0.0,0.0,0.0,0.0,0.0,0.0,0.0,0.0,4.5297,4.5297,4.5297,4.5297,4.5297,4.5297,4.5297,4.5297,4.5755,4.6424,4.7264,4.8124,4.8984,4.9824,5.0149,5.0302,5.0302,5.0302,5.0302,5.0302,5.0302,5.0302,5.0302,5.0302,5.0302,5.0302,5.0302,5.0302,5.0302,5.0302,5.0627,5.1238,5.2614,5.3874,5.4963,5.5288,5.5403,5.5403,5.5403,5.5403,5.5403,5.5403,5.5403,5.5403,5.5403,5.5403,5.5403,5.5403,5.5403,5.5403,5.5403,5.5403,5.5403,5.5403,5.5403,5.5403,5.5403,5.5403,5.5403,5.5403,5.5403,5.5403,5.5403,5.5403,5.5403,5.5403,5.5403,5.5403,5.5403,5.5403,5.5403,5.5403,5.5905,5.6452,5.6876,5.7659,5.8552,5.9497,5.8916,5.8953,5.9866,5.9905,6.0315,6.1193,6.1213,6.1369,6.1701,6.1701,6.1701,6.1701,6.1701,6.1701,4.4474,4.4493,4.4519,4.4726,0.0,0.0,0.0,0.0,0.0,0.0,0.0,0.0,0.0,0.0,0.0,0.0,0.0,0.0,0.0,4.5297,4.5297,4.5297,4.5297,4.5297,4.5297,4.5297,4.5411,4.566,4.6194,4.6997,4.8162,4.8774,4.9461,5.0264,5.0302,5.0302,5.0302,5.0302,5.0302,5.0302,5.0302,5.0302,5.0302,5.0302,5.0302,5.0302,5.0302,5.0302,5.0302,5.0302,5.0971,5.2117,5.355,5.4639,5.5403,5.5403,5.5403,5.5403,5.5403,5.5403,5.5403,5.5403,5.5403,5.5403,5.5403,5.5403,5.5403,5.5403,5.5403,5.5403,5.5403,5.5403,5.5403,5.5403,5.5403,5.5403,5.5403,5.5403,5.5403,5.5403,5.5403,5.5403,5.5403,5.5403,5.5403,5.5403,5.5403,5.5403,5.5403,5.5403,5.5498,5.5747,5.6351,5.6985,5.7551,5.8413,5.9295,6.0192,5.9904,6.0016,6.0748,6.0798,6.1095,6.1701,6.1701,6.1701,6.1701,6.1701,6.1701,6.1701,6.1701,6.1701,4.3823,4.4095,4.4457,4.4669,0.0,0.0,0.0,0.0,0.0,0.0,0.0,0.0,0.0,0.0,0.0,0.0,0.0,0.0,4.5297,4.5297,4.5297,4.5297,4.5297,4.5297,4.5297,4.5297,4.5621,4.6443,4.6519,4.7264,4.9003,4.9098,4.948,5.0264,5.0302,5.0302,5.0302,5.0302,5.0302,5.0302,5.0302,5.0302,5.0302,5.0302,5.0302,5.0302,5.0302,5.0302,5.0302,5.0321,5.1314,5.29,5.376,5.4639,5.5403,5.5403,5.5403,5.5403,5.5403,5.5403,5.5403,5.5403,5.5403,5.5403,5.5403,5.5403,5.5403,5.5403,5.5403,5.5403,5.5403,5.5403,5.5403,5.5403,5.5403,5.5403,5.5403,5.5403,5.5403,5.5403,5.5403,5.5403,5.5403,5.5403,5.5403,5.5403,5.5403,5.5403,5.5403,5.5422,5.5728,5.6511,5.6606,5.7373,5.924,5.9418,5.9865,6.0925,6.1106,6.1318,6.1588,6.1666,6.1701,6.1701,6.1701,6.1701,6.1701,6.1701,6.1701,6.1701,6.1701,6.1701,4.4042,4.4132,0.0,0.0,0.0,0.0,0.0,0.0,0.0,0.0,0.0,0.0,0.0,0.0,0.0,0.0,0.0,0.0,4.5297,4.5297,4.5297,4.5297,4.5297,4.5297,4.5297,4.5297,4.5621,4.6443,4.7073,4.7914,4.9041,4.9633,5.0054,5.0283,5.0302,5.0302,5.0302,5.0302,5.0302,5.0302,5.0302,5.0302,5.0302,5.0302,5.0302,5.0302,5.0302,5.0302,5.0397,5.1563,5.2709,5.3798,5.4677,5.5174,5.5403,5.5403,5.5403,5.5403,5.5403,5.5403,5.5403,5.5403,5.5403,5.5403,5.5403,5.5403,5.5403,5.5403,5.5403,5.5403,5.5403,5.5403,5.5403,5.5403,5.5403,5.5403,5.5403,5.5403,5.5403,5.5403,5.5403,5.5403,5.5403,5.5403,5.5403,5.5403,5.5403,5.5403,5.5403,5.588,5.6339,5.6568,5.7657,5.8582,5.9133,5.9843,6.0388,6.0712,6.1019,6.1291,6.1442,6.1568,6.164,6.1701,6.1701,6.1701,6.1701,6.1701,6.1701,6.1701,6.1701,6.1701,4.3905,0.0,0.0,0.0,0.0,0.0,0.0,0.0,0.0,0.0,0.0,0.0,0.0,0.0,0.0,0.0,0.0,4.5297,4.5297,4.5297,4.5297,4.5297,4.5297,4.5297,4.5297,4.5583,4.6118,4.6959,4.7818,4.8697,4.9519,5.0034,5.0302,5.0302,5.0302,5.0302,5.0302,5.0302,5.0302,5.0302,5.0302,5.0302,5.0302,5.0302,5.0302,5.0302,5.0302,5.0512,5.0932,5.2251,5.3301,5.4199,5.5059,5.5403,5.5403,5.5403,5.5403,5.5403,5.5403,5.5403,5.5403,5.5403,5.5403,5.5403,5.5403,5.5403,5.5403,5.5403,5.5403,5.5403,5.5403,5.5403,5.5403,5.5403,5.5403,5.5403,5.5403,5.5403,5.5403,5.5403,5.5403,5.5403,5.5403,5.5403,5.5403,5.5403,5.5403,5.5517,5.5842,5.6301,5.6855,5.7523,5.8498,5.9243,5.9587,6.0181,6.0501,6.0501,6.0781,6.1053,6.1225,6.1452,6.1588,6.1666,6.1666,6.1671,6.1701,6.1701,6.1701,6.1701,6.1701,6.1701,4.3513,0.0,0.0,0.0,0.0,0.0,0.0,0.0,0.0,0.0,0.0,0.0,0.0,0.0,0.0,4.5275,4.5297,4.5297,4.5297,4.5297,4.5297,4.5297,4.5297,4.5297,4.5297,4.6023,4.6863,4.7742,4.8602,4.9442,5.0264,5.0302,5.0302,5.0302,5.0302,5.0302,5.0302,5.0302,5.0302,5.0302,5.0302,5.0302,5.0302,5.0302,5.0302,5.0302,5.0302,5.0837,5.1773,5.2499,5.3359,5.4295,5.5097,5.5403,5.5403,5.5403,5.5403,5.5403,5.5403,5.5403,5.5403,5.5403,5.5403,5.5403,5.5403,5.5403,5.5403,5.5403,5.5403,5.5403,5.5403,5.5403,5.5403,5.5403,5.5403,5.5403,5.5403,5.5403,5.5403,5.5403,5.5403,5.5403,5.5403,5.5403,5.5403,5.5403,5.546,5.5766,5.6511,5.6721,5.7409,5.8937,5.9185,5.9548,6.0332,6.0389,6.0389,6.0389,6.0527,6.0712,6.0964,6.1285,6.15,6.1595,6.1595,6.1634,6.1701,6.1701,6.1701,6.1701,6.1701,6.1701,0.0,0.0,0.0,0.0,0.0,0.0,0.0,0.0,0.0,0.0,0.0,0.0,0.0,0.0,4.5275,4.5297,4.5297,4.5297,4.5297,4.5297,4.5297,4.5297,4.5297,4.5297,4.5297,4.6023,4.6863,4.7742,4.8602,4.9442,5.0264,5.0302,5.0302,5.0302,5.0302,5.0302,5.0302,5.0302,5.0302,5.0302,5.0302,5.0302,5.0302,5.0302,5.0302,5.0302,5.0302,5.1142,5.2556,5.2728,5.3722,5.5135,5.5326,5.5403,5.5403,5.5403,5.5403,5.5403,5.5403,5.5403,5.5403,5.5403,5.5403,5.5403,5.5403,5.5403,5.5403,5.5403,5.5403,5.5403,5.5403,5.5403,5.5403,5.5403,5.5403,5.5403,5.5403,5.5403,5.5403,5.5403,5.5403,5.5403,5.5403,5.5403,5.5403,5.5403,5.5938,5.6396,5.6568,5.7753,5.8708,5.9071,5.9701,6.0198,6.037,6.0389,6.0389,6.0389,6.0527,6.0638,6.0666,6.1053,6.1367,6.1595,6.1595,6.1634,6.1701,6.1701,6.1701,6.1701,6.1701,6.1701,0.0,0.0,0.0,0.0,0.0,0.0,0.0,0.0,0.0,0.0,0.0,0.0,0.0,4.5045,4.5087,4.5192,4.5275,4.5275,4.5213,4.5275,4.5297,4.5297,4.5297,4.5449,4.5831,4.6634,4.7474,4.8353,4.9194,4.9862,5.0283,5.0302,5.0302,5.0302,5.0302,5.0302,5.0302,5.0302,5.0302,5.0302,5.0302,5.0302,5.0302,5.0302,5.0302,5.0321,5.0741,5.1639,5.2824,5.3244,5.4199,5.5403,5.5403,5.5403,5.5403,5.5403,5.5403,5.5403,5.5403,5.5403,5.5403,5.5403,5.5403,5.5403,5.5403,5.5403,5.5403,5.5403,5.5403,5.5403,5.5403,5.5403,5.5403,5.5403,5.5403,5.5403,5.5403,5.5403,5.5403,5.5403,5.5403,5.5403,5.5403,5.5403,5.5536,5.5919,5.632,5.6893,5.7695,5.8555,5.9262,5.9682,6.0122,6.0389,6.0389,6.0389,6.0389,6.0389,6.046,6.0527,6.0589,6.0803,6.107,6.139,6.149,6.1584,6.164,6.1621,6.1634,6.1701,6.1666,6.1666,0.0,0.0,0.0,0.0,0.0,0.0,0.0,0.0,0.0,0.0,0.0,0.0,4.4624,4.477,4.491,4.5061,4.5192,4.5235,4.5148,4.5213,4.5297,4.5297,4.5297,4.5621,4.6424,4.7302,4.8162,4.9022,4.982,5.0278,5.0302,5.0278,5.0278,5.0302,5.0302,5.0302,5.0302,5.0302,5.0302,5.0302,5.0302,5.0302,5.0302,5.0302,5.0302,5.0359,5.1219,5.2059,5.2862,5.3741,5.4619,5.5403,5.5403,5.5403,5.5403,5.5403,5.5403,5.5403,5.5403,5.5403,5.5403,5.5403,5.5403,5.5403,5.5403,5.5403,5.5403,5.5403,5.5403,5.5403,5.5403,5.5403,5.5403,5.5403,5.5403,5.5403,5.5403,5.5403,5.5403,5.5403,5.5403,5.5403,5.5403,5.5403,5.567,5.6473,5.6721,5.7371,5.8899,5.9243,5.9606,6.0313,6.0389,6.0389,6.0389,6.0389,6.0389,6.0389,6.0389,6.0433,6.0559,6.0584,6.0757,6.109,6.1336,6.1479,6.1588,6.1528,6.1564,6.1666,6.1621,6.1602,0.0,0.0,0.0,0.0,0.0,0.0,0.0,0.0,0.0,0.0,0.0,4.4346,4.4493,4.4814,4.5061,4.5103,4.5125,4.517,4.5275,4.5297,4.5297,4.5297,4.5297,4.5621,4.6424,4.7302,4.8162,4.9022,4.9749,5.0182,5.0302,5.0182,5.0182,5.0302,5.0302,5.0302,5.0302,5.0302,5.0302,5.0302,5.0302,5.0302,5.0302,5.0302,5.0302,5.0359,5.1219,5.2059,5.2862,5.3741,5.4619,5.5403,5.5403,5.5403,5.5403,5.5403,5.5403,5.5403,5.5403,5.5403,5.5403,5.5403,5.5403,5.5403,5.5403,5.5403,5.5403,5.5403,5.5403,5.5403,5.5403,5.5403,5.5403,5.5403,5.5403,5.5403,5.5403,5.5403,5.5403,5.5403,5.5403,5.5403,5.5403,5.5403,5.567,5.6473,5.7237,5.8058,5.8994,5.9759,6.0255,6.0389,6.0389,6.0389,6.0389,6.0389,6.0389,6.0389,6.0389,6.0417,6.0425,6.0553,6.0638,6.0666,6.1055,6.1337,6.15,6.149,6.1519,6.1528,6.1519,6.1519,0.0,0.0,0.0,0.0,0.0,0.0,0.0,0.0,0.0,0.0,4.3575,4.4095,4.4136,4.4519,4.4857,4.4967,4.5057,4.5125,4.517,4.5235,4.5297,4.5297,4.5633,4.618,4.7018,4.7786,4.8618,4.9474,4.9822,5.0057,5.0182,5.0133,5.0158,5.0302,5.0302,5.0302,5.0302,5.0302,5.0302,5.0302,5.0302,5.0302,5.0302,5.0302,5.0569,5.1066,5.1907,5.2747,5.3588,5.4467,5.5059,5.5403,5.5403,5.5403,5.5403,5.5403,5.5403,5.5403,5.5403,5.5403,5.5403,5.5403,5.5403,5.5403,5.5403,5.5403,5.5403,5.5403,5.5403,5.5403,5.5403,5.5403,5.5403,5.5403,5.5403,5.5403,5.5403,5.5403,5.5403,5.5403,5.5403,5.5403,5.5403,5.5766,5.6358,5.7199,5.8039,5.888,5.972,6.016,6.0389,6.0389,6.0389,6.0389,6.0389,6.0389,6.0389,6.0389,6.0389,6.0389,6.0389,6.046,6.0527,6.0589,6.0964,6.1205,6.1331,6.1401,6.1468,6.151,6.15,6.15,0.0,0.0,0.0,0.0,0.0,0.0,0.0,0.0,4.2882,0.0,4.3422,4.3881,4.3754,4.4213,4.4662,4.4821,4.4943,4.5057,4.5103,4.5192,4.5254,4.5254,4.5849,4.6573,4.7471,4.8188,4.8969,4.9822,4.9871,4.9898,5.0057,5.0031,5.0082,5.0255,5.0255,5.0255,5.0302,5.0302,5.0302,5.0302,5.0302,5.0302,5.0302,5.0302,5.0894,5.1945,5.2537,5.3282,5.418,5.504,5.5403,5.5403,5.5403,5.5403,5.5403,5.5403,5.5403,5.5403,5.5403,5.5403,5.5403,5.5403,5.5403,5.5403,5.5403,5.5403,5.5403,5.5403,5.5403,5.5403,5.5403,5.5403,5.5403,5.5403,5.5403,5.5403,5.5403,5.5403,5.5403,5.5403,5.5403,5.5403,5.5403,5.6071,5.6893,5.7772,5.8574,5.9415,6.0274,6.0389,6.0389,6.0389,6.0389,6.0389,6.0389,6.0389,6.0389,6.0389,6.0389,6.0389,6.0389,6.0389,6.0453,6.0553,6.0822,6.1039,6.1174,6.1264,6.1389,6.147,6.1464,6.1464,0.0,0.0,0.0,0.0,0.0,0.0,0.0,0.0,0.0,4.2882,4.3422,4.3786,4.3389,4.4072,4.4712,4.4712,4.4821,4.4943,4.508,4.5103,4.5125,4.5125,4.5713,4.6449,4.7346,4.8136,4.8969,4.9822,4.9788,4.9778,4.9879,4.9788,4.9843,5.0108,5.0108,5.0182,5.0302,5.0302,5.0302,5.0302,5.0302,5.0302,5.0302,5.0302,5.1181,5.2728,5.2785,5.3282,5.418,5.504,5.5403,5.5403,5.5403,5.5403,5.5403,5.5403,5.5403,5.5403,5.5403,5.5403,5.5403,5.5403,5.5403,5.5403,5.5403,5.5403,5.5403,5.5403,5.5403,5.5403,5.5403,5.5403,5.5403,5.5403,5.5403,5.5403,5.5403,5.5403,5.5403,5.5403,5.5403,5.5403,5.5403,5.6071,5.6893,5.7772,5.8574,5.9415,6.0274,6.0389,6.0389,6.0389,6.0389,6.0389,6.0389,6.0389,6.0389,6.0389,6.0389,6.0389,6.0389,6.0389,6.0389,6.0417,6.0553,6.0779,6.1111,6.1111,6.1217,6.1414,6.14,6.14,0.0,0.0,0.0,0.0,0.0,0.0,0.0,4.2882,4.2882,4.2882,4.3213,4.3493,4.3338,4.3931,4.4476,4.4557,4.453,4.4655,4.5038,4.5033,4.4967,4.4967,4.6057,4.6944,4.7246,4.8419,4.9332,4.9634,4.9593,4.9623,4.9759,4.9816,4.9925,5.0108,5.0182,5.0255,5.0302,5.0302,5.0302,5.0302,5.0302,5.0302,5.0321,5.0875,5.1735,5.2824,5.3397,5.4123,5.4963,5.5269,5.5403,5.5403,5.5403,5.5403,5.5403,5.5403,5.5403,5.5403,5.5403,5.5403,5.5403,5.5403,5.5403,5.5403,5.5403,5.5403,5.5403,5.5403,5.5403,5.5403,5.5403,5.5403,5.5403,5.5403,5.5403,5.5403,5.5403,5.5403,5.5403,5.5403,5.5403,5.5556,5.6071,5.6874,5.7714,5.8555,5.9396,6.0045,6.0351,6.0389,6.0389,6.0389,6.0389,6.0389,6.0389,6.0389,6.0389,6.0389,6.0389,6.0389,6.0389,6.0389,6.0389,6.0389,6.0453,6.0578,6.0779,6.0904,6.1003,6.1079,6.1167,6.12,0.0,0.0,0.0,0.0,0.0,4.2882,4.2882,0.0,4.2882,4.2882,4.3124,4.3267,4.3196,4.3609,4.4004,4.4213,4.4289,4.443,4.4783,4.4827,4.4821,4.4821,4.6183,4.7137,4.7137,4.8574,4.9509,4.9509,4.9509,4.9551,4.9692,4.9788,4.9925,5.0108,5.0231,5.0302,5.0302,5.0302,5.0302,5.0302,5.0302,5.0302,5.034,5.12,5.204,5.2843,5.3722,5.46,5.5403,5.5403,5.5403,5.5403,5.5403,5.5403,5.5403,5.5403,5.5403,5.5403,5.5403,5.5403,5.5403,5.5403,5.5403,5.5403,5.5403,5.5403,5.5403,5.5403,5.5403,5.5403,5.5403,5.5403,5.5403,5.5403,5.5403,5.5403,5.5403,5.5403,5.5403,5.5403,5.5632,5.5976,5.6511,5.7542,5.8479,5.9033,5.9835,6.0389,6.0389,6.0389,6.0389,6.0389,6.0389,6.0389,6.0389,6.0389,6.0389,6.0389,6.0389,6.0389,6.0389,6.0389,6.0389,6.0389,6.0389,6.0433,6.0527,6.0704,6.0839,6.0882,6.1003,6.1021,0.0,0.0,0.0,0.0,0.0,0.0,4.2882,0.0,4.2882,4.2882,4.3105,4.3196,4.2957,4.3087,4.3373,4.3646,4.3992,4.426,4.4289,4.4541,4.4685,4.4685,4.6064,4.7012,4.7012,4.8514,4.9509,4.9509,4.9509,4.9551,4.9692,4.9692,4.9816,5.0108,5.0231,5.0302,5.0302,5.0302,5.0302,5.0302,5.0302,5.0302,5.0378,5.1238,5.2079,5.2881,5.376,5.4619,5.5403,5.5403,5.5403,5.5403,5.5403,5.5403,5.5403,5.5403,5.5403,5.5403,5.5403,5.5403,5.5403,5.5403,5.5403,5.5403,5.5403,5.5403,5.5403,5.5403,5.5403,5.5403,5.5403,5.5403,5.5403,5.5403,5.5403,5.5403,5.5403,5.5422,5.5441,5.5403,5.6052,5.6606,5.6625,5.802,5.9109,5.9147,5.9854,6.0389,6.0389,6.0389,6.0389,6.0389,6.0389,6.0389,6.0389,6.0389,6.0389,6.0389,6.0389,6.0389,6.0389,6.0389,6.0389,6.0389,6.0389,6.0389,6.0389,6.0527,6.0685,6.0901,6.0901,6.0882,4.2882,0.0,0.0,0.0,0.0,0.0,4.2882,4.2882,4.2882,4.2882,4.2957,4.2995,4.292,4.2957,4.3032,4.3087,4.3389,4.374,4.4231,4.4298,4.4345,4.4524,4.6008,4.7012,4.7012,4.8514,4.9509,4.9509,4.9509,4.9539,4.9551,4.975,4.9978,5.0231,5.0278,5.0302,5.0302,5.0302,5.0302,5.0302,5.0302,5.0627,5.1276,5.2098,5.2919,5.3798,5.4658,5.5193,5.5403,5.5403,5.5403,5.5403,5.5403,5.5403,5.5403,5.5403,5.5403,5.5403,5.5403,5.5403,5.5403,5.5403,5.5403,5.5403,5.5403,5.5403,5.5403,5.5403,5.5403,5.5403,5.5403,5.5403,5.5403,5.5403,5.5403,5.5403,5.5403,5.5861,5.6091,5.5517,5.6052,5.6797,5.7428,5.8421,5.9319,5.995,6.0236,6.0389,6.0389,6.0389,6.0389,6.0389,6.0389,6.0389,6.0389,6.0389,6.0389,6.0389,6.0389,6.0389,6.0389,6.0389,6.0389,6.0389,6.0389,6.0389,6.0389,6.0453,6.0487,6.054,6.0652,6.0773,0.0,0.0,0.0,0.0,0.0,0.0,4.2882,4.2882,4.2882,4.2882,4.2882,4.2882,4.2882,4.2882,4.2882,4.2882,4.3032,4.332,4.3804,4.4011,4.4281,4.4774,4.6127,4.7143,4.7481,4.8701,4.9509,4.9509,4.9509,4.9521,4.9582,4.9843,5.0057,5.0207,5.0278,5.0302,5.0302,5.0302,5.0302,5.0302,5.0302,5.076,5.1639,5.2422,5.3282,5.4142,5.5021,5.5403,5.5403,5.5403,5.5403,5.5403,5.5403,5.5403,5.5403,5.5403,5.5403,5.5403,5.5403,5.5403,5.5403,5.5403,5.5403,5.5403,5.5403,5.5403,5.5403,5.5403,5.5403,5.5403,5.5403,5.5403,5.5403,5.5403,5.5403,5.5498,5.5823,5.6262,5.6454,5.5995,5.6836,5.781,5.8307,5.909,5.9816,6.0313,6.0389,6.0389,6.0389,6.0389,6.0389,6.0389,6.0389,6.0389,6.0389,6.0389,6.0389,6.0389,6.0389,6.0389,6.0389,6.0389,6.0389,6.0389,6.0389,6.0389,6.0389,6.0389,6.0389,6.0389,6.0487,6.0578,0.0,0.0,0.0,0.0,0.0,0.0,4.2882,4.2882,4.2882,4.2882,4.2882,4.2882,4.2882,4.2882,4.2882,4.2882,4.2882,4.2995,4.3267,4.3693,4.4327,4.5208,4.627,4.7282,4.8119,4.8983,4.9509,4.9509,4.9509,4.9582,4.9721,4.9952,5.0082,5.0133,5.0231,5.0302,5.0302,5.0302,5.0302,5.0302,5.0397,5.0894,5.1773,5.2575,5.3416,5.4295,5.5059,5.5403,5.5403,5.5403,5.5403,5.5403,5.5403,5.5403,5.5403,5.5403,5.5403,5.5403,5.5403,5.5403,5.5403,5.5403,5.5403,5.5403,5.5403,5.5403,5.5403,5.5403,5.5403,5.5403,5.5403,5.5403,5.5422,5.5517,5.5536,5.5766,5.6568,5.6797,5.6874,5.6874,5.8077,5.9109,5.9109,5.9816,6.0389,6.0389,6.0389,6.0389,6.0389,6.0389,6.0389,6.0389,6.0389,6.0389,6.0389,6.0389,6.0389,6.0389,6.0389,6.0389,6.0389,6.0389,6.0389,6.0389,6.0389,6.0389,6.0389,6.0389,6.0389,6.0389,6.0389,6.0389,0.0,0.0,0.0,0.0,0.0,0.0,4.2882,4.2882,4.2882,4.2882,4.2882,4.2882,4.2882,4.2882,4.2882,4.2882,4.2882,4.2995,4.3267,4.3408,4.3889,4.5146,4.6128,4.7062,4.8119,4.8983,4.9509,4.9509,4.9509,4.9593,4.9843,4.9925,5.0057,5.0255,5.0278,5.0302,5.0302,5.0302,5.0302,5.0302,5.1009,5.1773,5.2594,5.3454,5.4314,5.5154,5.5326,5.5403,5.5403,5.5403,5.5403,5.5403,5.5403,5.5403,5.5403,5.5403,5.5403,5.5403,5.5403,5.5403,5.5403,5.5403,5.5403,5.5403,5.5403,5.5403,5.5403,5.5403,5.5403,5.5403,5.5403,5.5403,5.5556,5.6205,5.6358,5.6587,5.7466,5.8154,5.8612,5.8612,5.888,5.9109,5.9109,5.9816,6.0389,6.0389,6.0389,6.0389,6.0389,6.0389,6.0389,6.0389,6.0389,6.0389,6.0389,6.0389,6.0389,6.0389,6.0389,6.0389,6.0389,6.0389,6.0389,6.0389,6.0389,6.0389,6.0389,6.0389,6.0389,6.0389,6.0389,6.0389,0.0,0.0,0.0,4.2882,0.0,0.0,0.0,4.2882,4.2882,4.2882,4.2882,4.2882,4.2882,4.2882,4.2882,4.2882,4.2882,4.2957,4.3087,4.3196,4.3848,4.5358,4.6178,4.7117,4.8477,4.9165,4.9509,4.9509,4.9509,4.9551,4.9692,4.9759,4.9898,5.0089,5.0089,5.0163,5.0302,5.0231,5.0231,5.0302,5.1181,5.2021,5.2824,5.3702,5.4581,5.5403,5.5403,5.5403,5.5403,5.5403,5.5403,5.5403,5.5403,5.5403,5.5403,5.5403,5.5403,5.5403,5.5403,5.5403,5.5403,5.5403,5.5403,5.5403,5.5403,5.5403,5.5403,5.5403,5.5403,5.5498,5.588,5.5995,5.6205,5.7046,5.7237,5.7485,5.8326,5.8822,5.9243,5.9663,5.9759,5.9759,5.9759,6.0102,6.0389,6.0389,6.0389,6.0389,6.0389,6.0389,6.0389,6.0389,6.0389,6.0389,6.0389,6.0389,6.0389,6.0389,6.0389,6.0389,6.0389,6.0389,6.0389,6.0389,6.0389,6.0389,6.0389,6.0389,6.0389,6.0389,6.0389,6.0389,0.0,0.0,0.0,0.0,0.0,4.2882,0.0,0.0,0.0,4.2882,4.2882,4.2882,4.2882,4.2882,4.2882,4.2882,4.2882,4.2882,4.2882,4.3105,4.3834,4.5389,4.6144,4.7113,4.8636,4.9201,4.9509,4.9509,4.9509,4.949,4.9551,4.9653,4.9759,4.9898,4.9898,5.0031,5.0255,5.0158,5.0234,5.0569,5.1429,5.227,5.3072,5.3951,5.4734,5.5403,5.5403,5.5403,5.5403,5.5403,5.5403,5.5403,5.5403,5.5403,5.5403,5.5403,5.5403,5.5403,5.5403,5.5403,5.5403,5.5403,5.5403,5.5403,5.5403,5.5403,5.5403,5.5403,5.5517,5.5785,5.6434,5.6721,5.7065,5.7925,5.8135,5.8364,5.9166,5.9357,5.9568,6.0255,6.0389,6.0389,6.0389,6.0389,6.0389,6.0389,6.0389,6.0389,6.0389,6.0389,6.0389,6.0389,6.0389,6.0389,6.0389,6.0389,6.0389,6.0389,6.0389,6.0389,6.0389,6.0389,6.0389,6.0389,6.0389,6.0389,6.0389,6.0389,6.0389,6.0389,6.0389,6.0389,0.0,0.0,0.0,0.0,4.2882,0.0,0.0,0.0,4.2882,4.2882,0.0,4.2882,0.0,0.0,0.0,4.2882,4.2882,4.2882,4.2882,4.292,4.3377,4.4602,4.5639,4.6691,4.7835,4.8864,4.9509,4.9509,4.9509,4.9551,4.9663,4.9692,4.9759,4.9898,4.9898,4.9978,5.0133,5.0108,5.0558,5.1467,5.2289,5.311,5.397,5.4849,5.5307,5.5403,5.5403,5.5403,5.5403,5.5403,5.5403,5.5403,5.5403,5.5403,5.5403,5.5403,5.5403,5.5403,5.5403,5.5403,5.5403,5.5403,5.5403,5.5403,5.5403,5.5403,5.5403,5.5403,5.5919,5.6473,5.6568,5.716,5.7963,5.8784,5.8975,5.9205,6.0064,6.0236,6.0274,6.037,6.0389,6.0389,6.0389,6.0389,6.0389,6.0389,6.0389,6.0389,6.0389,6.0389,6.0389,6.0389,6.0389,6.0389,6.0389,6.0389,6.0389,6.0389,6.0389,6.0389,6.0389,6.0389,6.0389,6.0389,6.0389,6.0389,6.0389,6.0389,6.0389,6.0389,6.0389,6.0389,0.0,0.0,0.0,0.0,0.0,0.0,4.2882,0.0,4.2882,0.0,0.0,0.0,0.0,0.0,0.0,0.0,4.2882,4.2882,4.2882,4.2882,4.3266,4.4196,4.5297,4.6631,4.8342,4.9108,4.9509,4.9509,4.9509,4.9521,4.9582,4.9653,4.9721,4.9788,4.9788,4.9871,5.0108,5.0487,5.1002,5.162,5.2938,5.3741,5.4123,5.5002,5.5403,5.5403,5.5403,5.5403,5.5403,5.5403,5.5403,5.5403,5.5403,5.5403,5.5403,5.5403,5.5403,5.5403,5.5403,5.5403,5.5403,5.5403,5.5403,5.5403,5.5403,5.5728,5.6091,5.6091,5.6702,5.7466,5.7925,5.8326,5.8803,5.9644,5.9854,5.995,6.0313,6.0389,6.0389,6.0389,6.0389,6.0389,6.0389,6.0389,6.0389,6.0389,6.0389,6.0389,6.0389,6.0389,6.0389,6.0389,6.0389,6.0389,6.0389,6.0389,6.0389,6.0389,6.0389,6.0389,6.0389,6.0389,6.0389,6.0389,6.0389,6.0389,6.0389,6.0389,6.0389,6.0389,6.0389,6.0389,4.2882,0.0,0.0,0.0,0.0,0.0,0.0,0.0,0.0,0.0,0.0,0.0,0.0,0.0,0.0,0.0,0.0,4.2882,4.2882,4.2882,4.3118,4.3697,4.4965,4.6599,4.8688,4.9113,4.9262,4.9345,4.9377,4.9409,4.9509,4.9593,4.9653,4.9653,4.9653,4.975,4.9978,5.0721,5.1361,5.1896,5.3391,5.4237,5.4486,5.5116,5.5403,5.5403,5.5403,5.5403,5.5403,5.5403,5.5403,5.5403,5.5403,5.5403,5.5403,5.5403,5.5403,5.5403,5.5403,5.5403,5.5403,5.5403,5.5403,5.5441,5.567,5.6129,5.6645,5.6893,5.7562,5.8364,5.8956,5.9281,5.9625,6.0236,6.0389,6.0389,6.0389,6.0389,6.0389,6.0389,6.0389,6.0389,6.0389,6.0389,6.0389,6.0389,6.0389,6.0389,6.0389,6.0389,6.0389,6.0389,6.0389,6.0389,6.0389,6.0389,6.0389,6.0389,6.0389,6.0389,6.0389,6.0389,6.0389,6.0389,6.0389,6.0389,6.0389,6.0389,6.0389,6.0389,6.0389,6.0389,0.0,0.0,0.0,4.2882,0.0,0.0,0.0,0.0,4.2882,0.0,0.0,0.0,0.0,0.0,0.0,0.0,4.2882,0.0,0.0,4.2882,4.29,4.2918,4.4637,4.6526,4.8439,4.8623,4.8731,4.8993,4.9027,4.9146,4.9459,4.949,4.9509,4.9509,4.9509,4.9563,4.9721,5.0638,5.1592,5.2589,5.3614,5.4543,5.5365,5.5403,5.5403,5.5403,5.5403,5.5403,5.5403,5.5403,5.5403,5.5403,5.5403,5.5403,5.5403,5.5403,5.5403,5.5403,5.5403,5.5403,5.5403,5.5403,5.5403,5.5556,5.632,5.6568,5.6778,5.7619,5.844,5.9071,5.909,5.9739,6.037,6.0389,6.0389,6.0389,6.0389,6.0389,6.0389,6.0389,6.0389,6.0389,6.0389,6.0389,6.0389,6.0389,6.0389,6.0389,6.0389,6.0389,6.0389,6.0389,6.0389,6.0389,6.0389,6.0389,6.0389,6.0389,6.0389,6.0389,6.0389,6.0389,6.0389,6.0389,6.0389,6.0389,6.0389,6.0389,6.0389,6.0389,6.0389,6.0389,0.0,0.0,4.2882,4.2882,0.0,0.0,0.0,0.0,0.0,0.0,0.0,0.0,0.0,0.0,0.0,0.0,4.2882,4.2882,0.0,4.2882,4.3281,4.4349,4.5257,0.0,4.8104,4.8641,4.8906,4.8974,4.923,4.9377,4.949,4.9563,4.9593,4.949,4.9612,4.9956,5.0638,5.1528,5.252,5.3588,5.4518,5.5116,5.5403,5.5403,5.5403,5.5403,5.5403,5.5403,5.5403,5.5403,5.5403,5.5403,5.5403,5.5403,5.5403,5.5403,5.5403,5.5403,5.5403,5.5403,5.5403,5.5403,5.5766,5.6243,5.6511,5.7371,5.8326,5.8612,5.9319,5.995,5.995,6.0179,6.0389,6.0389,6.0389,6.0389,6.0389,6.0389,6.0389,6.0389,6.0389,6.0389,6.0389,6.0389,6.0389,6.0389,6.0389,6.0389,6.0389,6.0389,6.0389,6.0389,6.0389,6.0389,6.0389,6.0389,6.0389,6.0389,6.0389,6.0389,6.0389,6.0389,6.0389,6.0389,6.0389,6.0389,6.0389,6.0389,6.0389,6.0389,6.0389,6.0389,4.2882,4.2882,4.2882,4.2882,4.2882,0.0,4.2882,0.0,0.0,0.0,0.0,0.0,0.0,0.0,0.0,4.2882,4.2882,4.2882,0.0,4.2882,4.3498,4.511,4.5488,0.0,0.0,4.8326,4.8623,4.8837,4.9046,4.9262,4.9509,4.9563,4.9593,4.9563,4.9593,5.0088,5.1008,5.1935,5.291,5.3937,5.4931,5.5403,5.5403,5.5403,5.5403,5.5403,5.5403,5.5403,5.5403,5.5403,5.5403,5.5403,5.5403,5.5403,5.5403,5.5403,5.5403,5.5403,5.5403,5.5403,5.546,5.5728,5.6186,5.6702,5.7313,5.8249,5.9166,5.9491,5.9969,6.0389,6.0389,6.0389,6.0389,6.0389,6.0389,6.0389,6.0389,6.0389,6.0389,6.0389,6.0389,6.0389,6.0389,6.0389,6.0389,6.0389,6.0389,6.0389,6.0389,6.0389,6.0389,6.0389,6.0389,6.0389,6.0389,6.0656,6.0828,6.0828,6.1115,6.1287,6.1287,6.1287,6.1134,6.0828,6.0828,6.0676,6.0389,6.0389,6.0389,6.0389,6.0389,6.0389]},{"header":{"parameterUnit":"m.s-1","parameterCategory":1,"la1":30.6,"la2":29.2853,"lo1":-89.7004,"lo2":-87.6739,"dy":0.0162,"dx":0.0183,"nx":112,"ny":82,"refTime":"2023-11-13T06:00:00:Z","depth":0,"parameterNumber":3,"parameterNumberName":"V-component_of_WINDS"},"data":[0.0,0.0,0.0,0.0,0.0,0.0,0.0,0.0,0.0,0.0,0.0,0.0,0.0,0.0,0.0,0.0,0.0,0.0,0.0,0.0,0.0,0.0,0.0,0.0,0.0,0.0,0.0,0.0,0.0,0.0,0.0,0.0,0.0,0.0,0.0,0.0,0.0,0.0,0.0,0.0,0.0,0.0,0.0,0.0,0.0,0.0,0.0,0.0,0.0,0.0,0.0,0.0,0.0,0.0,0.0,0.0,0.0,0.0,0.0,0.0,0.0,0.0,0.0,0.0,0.0,0.0,0.0,0.0,0.0,0.0,0.0,0.0,0.0,0.0,0.0,0.0,0.0,0.0,0.0,0.0,0.0,0.0,0.0,0.0,0.0,0.0,0.0,0.0,0.0,0.0,0.0,0.1617,0.1617,0.1617,0.1617,0.1617,0.1617,0.1617,0.0,0.0,0.0,0.0,0.0,0.0,0.0,0.0,0.0,0.0,0.0,0.0,0.0,0.0,0.0,0.0,0.0,0.0,0.0,0.0,0.0,0.0,0.0,0.0,0.0,0.0,0.0,0.0,0.0,0.0,0.0,0.0,0.0,0.0,0.0,0.0,0.0,0.0,0.0,0.0,0.0,0.0,0.0,0.0,0.0,0.0,0.0,0.0,0.0,0.0,0.0,0.0,0.0,0.0,0.0,0.0,0.0,0.0,0.0,0.0,0.0,0.0,0.0,0.0,0.0,0.0,0.0,0.0,0.0,0.0,0.0,0.0,0.0,0.0,0.0,0.0,0.0,0.0,0.0,0.0,0.0,0.0,0.0,0.0,0.0,0.0,0.0,0.0,0.0,0.0,0.0,0.0,0.0,0.0,0.0,0.0,0.0,0.0,0.0,0.0,0.0,0.0,0.0,0.0,0.1617,0.1617,0.1617,0.1617,0.1617,0.1617,0.1617,0.1617,0.0,0.0,0.0,0.0,0.0,0.0,0.0,0.0,0.0,0.0,0.0,0.0,0.0,0.0,0.0,0.0,0.0,0.0,0.0,0.0,0.0,0.0,0.0,0.0,0.0,0.0,0.0,0.0,0.0,0.0,0.0,0.0,0.0,0.0,0.0,0.0,0.0,0.0,0.0,0.0,0.0,0.0,0.0,0.0,0.0,0.0,0.0,0.0,0.0,0.0,0.0,0.0,0.0,0.0,0.0,0.0,0.0,0.0,0.0,0.0,0.0,0.0,0.0,0.0,0.0,0.0,0.0,0.0,0.0,0.0,0.0,0.0,0.0,0.0,0.0,0.0,0.0,0.0,0.0,0.0,0.0,0.0,0.0,0.0,0.0,0.0,0.0,0.0,0.0,0.0,0.0,0.0,0.0,0.0,0.0,0.0,0.0,0.0,0.0,0.0,0.0,0.0,0.0,0.1617,0.1617,0.1617,0.1617,0.1617,0.1617,0.1617,0.1617,0.1617,0.1617,0.0,0.0,0.0,0.0,0.0,0.0,0.0,0.0,0.0,0.0,0.0,0.0,0.0,0.0,0.0,0.0,0.0,0.0,0.0,0.0,0.0,0.0,0.0,0.0,0.0,0.0,0.0,0.0,0.0,0.0,0.0,0.0,0.0,0.0,0.0,0.0,0.0,0.0,0.0,0.0,0.0,0.0,0.0,0.0,0.0,0.0,0.0,0.0,0.0,0.0,0.0,0.0,0.0,0.0,0.0,0.0,0.0,0.0,0.0,0.0,0.0,0.0,0.0,0.0,0.0,0.0,0.0,0.0,0.0,0.0,0.0,0.0,0.0,0.0,0.0,0.0,0.0,0.0,0.0,0.0,0.0,0.0,0.0,0.0,0.0,0.0,0.0,0.0,0.0,0.0,0.0,0.0,0.0,0.0,0.0,0.0,0.0,0.0,0.0,0.0,0.0,0.0,0.1617,0.1617,0.1617,0.1617,0.1617,0.1617,0.1617,0.1617,0.1617,0.1617,0.0,0.0,0.0,0.0,0.0,0.0,0.0,0.0,0.0,0.0,0.0,0.0,0.0,0.0,0.0,0.0,0.0,0.0,0.0,0.0,0.0,0.0,0.0,0.0,0.0,0.0,0.0,0.0,0.0,0.0,0.0,0.0,0.0,0.0,0.0,0.0,0.0,0.0,0.0,0.0,0.0,0.0,0.0,0.0,0.0,0.0,0.0,0.0,0.0,0.0,0.0,0.0,0.0,0.0,0.0,0.0,0.0,0.0,0.0,0.0,0.0,0.0,0.0,0.0,0.0,0.0,0.0,0.0,0.0,0.0,0.0,0.0,0.0,0.0,0.0,0.0,0.0,0.0,0.0,0.0,0.0,0.0,0.0,0.0,0.0,0.0,0.0,0.0,0.0,0.0,0.0,0.0,0.0,0.0,0.0,0.0,0.0,0.0,0.0,0.0,0.0,0.0,0.1617,0.1617,0.1617,0.1617,0.1617,0.1617,0.1617,0.1617,0.1617,0.1617,0.0,0.0,0.0,0.0,0.0,0.0,0.0,0.0,0.0,0.0,0.0,0.0,0.0,0.0,0.0,0.0,0.0,0.0,0.0,0.0,0.0,0.0,0.0,0.0,0.0,0.0,0.0,0.0,0.0,0.0,0.0,0.0,0.0,0.0,0.0,0.0,0.0,0.0,0.0,0.0,0.0,0.0,0.0,0.0,0.0,0.0,0.0,0.0,0.0,0.0,0.0,0.0,0.0,0.0,0.0,0.0,0.0,0.0,0.0,0.0,0.0,0.0,0.0,0.0,0.0,0.0,0.0,0.0,0.0,0.0,0.0,0.0,0.0,0.0,0.0,0.0,0.0,0.0,0.0,0.0,0.0,0.0,0.0,0.0,0.0,0.0,0.0,0.0,0.0,0.0,0.0,0.0,0.0,0.0,0.0,0.0,0.0,0.0,0.0,0.0,0.0,0.0,0.1617,0.1617,0.0,0.1617,0.1617,0.1617,0.1617,0.1617,0.1617,0.0,0.0,0.0,0.0,0.0,0.0,0.0,0.0,0.0,0.0,0.0,0.0,0.0,0.0,0.0,0.0,0.0,0.0,0.0,0.0,0.0,0.0,0.0,0.0,0.0,0.0,0.0,0.0,0.0,0.0,0.0,0.0,0.0,0.0,0.0,0.0,0.0,0.0,0.0,0.0,0.0,0.0,0.0,0.0,0.0,0.0,0.0,0.0,0.0,0.0,0.0,0.0,0.0,0.0,0.0,0.0,0.0,0.0,0.0,0.0,0.0,0.0,0.0,0.0,0.0,0.0,0.0,0.0,0.0,0.0,0.0,0.0,0.0,0.0,0.0,0.0,0.0,0.0,0.0,0.0,0.0,0.0,0.0,0.0,0.0,0.0,0.0,0.0,0.0,0.0,0.0,0.0,0.0,0.0,0.0,0.0,0.0,0.0,0.0,0.0,0.0,0.0,0.1617,0.1617,0.1617,0.0,0.1617,0.1617,0.1617,0.1617,0.1617,0.1617,0.0,0.0,0.0,0.0,0.0,0.0,0.0,0.0,0.0,0.0,0.0,0.0,0.0,0.0,0.0,0.0,0.0,0.0,0.0,0.0,0.0,0.0,0.0,0.0,0.0,0.0,0.0,0.0,0.0,0.0,0.0,0.0,0.0,0.0,0.0,0.0,0.0,0.0,0.0,0.0,0.0,0.0,0.0,0.0,0.0,0.0,0.0,0.0,0.0,0.0,0.0,0.0,0.0,0.0,0.0,0.0,0.0,0.0,0.0,0.0,0.0,0.0,0.0,0.0,0.0,0.0,0.0,0.0,0.0,0.0,0.0,0.0,0.0,0.0,0.0,0.0,0.0,0.0,0.0,0.0,0.0,0.0,0.0,0.0,0.0,0.0,0.0,0.0,0.0,0.0,0.0,0.0,0.0,0.0,0.0,0.0,0.0,0.0,0.0,0.0,0.0,0.0,0.1617,0.1617,0.1617,0.1617,0.1617,0.1617,0.1617,0.1617,0.1617,0.0,0.0,0.0,0.0,0.0,0.0,0.0,0.0,0.0,0.0,0.0,0.0,0.0,0.0,0.0,0.0,0.0,0.0,0.0,0.0,0.0,0.0,0.0,0.0,0.0,0.0,0.0,0.0,0.0,0.0,0.0,0.0,0.0,0.0,0.0,0.0,0.0,0.0,0.0,0.0,0.0,0.0,0.0,0.0,0.0,0.0,0.0,0.0,0.0,0.0,0.0,0.0,0.0,0.0,0.0,0.0,0.0,0.0,0.0,0.0,0.0,0.0,0.0,0.0,0.0,0.0,0.0,0.0,0.0,0.0,0.0,0.0,0.0,0.0,0.0,0.0,0.0,0.0,0.0,0.0,0.0,0.0,0.0,0.0,0.0,0.0,0.0,0.0,0.0,0.0,0.0,0.0,0.0,0.0,0.0,0.0,0.0,0.0,0.0,0.0,0.0,0.0,0.0,0.1617,0.1617,0.1617,0.1617,0.1617,0.1617,0.1617,0.1617,0.1617,0.1617,0.0,0.0,0.0,0.0,0.0,0.0,0.0,0.0,0.0,0.0,0.0,0.0,0.0,0.0,0.0,0.0,0.0,0.0,0.0,0.0,0.0,0.0,0.0,0.0,0.0,0.0,0.0,0.0,0.0,0.0,0.0,0.0,0.0,0.0,0.0,0.0,0.0,0.0,0.0,0.0,0.0,0.0,0.0,0.0,0.0,0.0,0.0,0.0,0.0,0.0,0.0,0.0,0.0,0.0,0.0,0.0,0.0,0.0,0.0,0.0,0.0,0.0,0.0,0.0,0.0,0.0,0.0,0.0,0.0,0.0,0.0,0.0,0.0,0.0,0.0,0.0,0.0,0.0,0.0,0.0,0.0,0.0,0.0,0.0,0.0,0.0,0.0,0.0,0.0,0.0,0.0,0.0,0.0,0.0,0.0,0.0,0.0,0.0,0.0,0.0,0.0,0.0,0.1617,0.1617,0.1617,0.1617,0.1617,0.1617,0.1617,0.1617,0.1617,0.1617,0.0,0.0,0.0,0.0,0.0,0.0,0.0,0.0,0.0,0.0,0.0,0.0,0.0,0.0,0.0,0.0,0.0,0.0,0.0,0.0,0.0,0.0,0.0,0.0,0.0,0.0,0.0,0.0,0.0,0.0,0.0,0.0,0.0,0.0,0.0,0.0,0.0,0.0,0.0,0.0,0.0,0.0,0.0,0.0,0.0,0.0,0.0,0.0,0.0,0.0,0.0,0.0,0.0,0.0,0.0,0.0,0.0,0.0,0.0,0.0,0.0,0.0,0.0,0.0,0.0,0.0,0.0,0.0,0.0,0.0,0.0,0.0,0.0,0.0,0.0,0.0,0.0,0.0,0.0,0.0,0.0,0.0,0.0,0.0,0.0,0.0,0.0,0.0,0.0,0.0,0.0,0.0,0.0,0.0,0.0,0.0,0.0,0.0,0.0,0.0,0.0,0.0,0.1617,0.1617,0.1617,0.1617,0.1617,0.1617,0.1617,0.1617,0.1617,0.1617,0.0,0.0,0.0,0.0,0.0,0.0,0.0,0.0,0.0,0.0,0.0,0.0,0.0,0.0,0.0,0.0,0.0,0.0,0.0,0.0,0.0,0.0,0.0,0.0,0.0,0.0,0.0,0.0,0.0,0.0,0.0,0.0,0.0,0.0,0.0,0.0,0.0,0.0,0.0,0.0,0.0,0.0,0.0,0.0,0.0,0.0,0.0,0.0,0.0,0.0,0.0,0.0,0.0,0.0,0.0,0.0,0.0,0.0,0.0,0.0,0.116,0.0,0.0,0.0,0.0,0.0,0.0,0.0,0.0,0.0,0.0,0.0,0.0,0.0,0.0,0.0,0.0,0.0,0.0,0.0,0.0,0.0,0.0,0.0,0.0,0.0,0.0,0.0,0.0,0.0,0.0,0.0,0.0,0.0,0.0,0.0,0.0,0.0,0.0,0.0,0.0,0.0,0.1617,0.1617,0.1617,0.1617,0.1617,0.1617,0.1617,0.1617,0.1617,0.1617,0.1617,0.0,0.0,0.0,0.0,0.0,0.0,0.0,0.0,0.0,0.0,0.0,0.0,0.0,0.0,0.0,0.0,0.0,0.0,0.0,0.0,0.0,0.0,0.0,0.0,0.0,0.0,0.0,0.0,0.0,0.0,0.0,0.0,0.0,0.0,0.0,0.0,0.0,0.0,0.0,0.0,0.0,0.0,0.0,0.0,0.0,0.0,0.0,0.0,0.0,0.0,0.0,0.0,0.0,0.0,0.0,0.0,0.0,0.0,0.0,0.0,0.0882,0.0,0.0,0.0,0.0,0.0,0.0,0.0,0.0,0.0,0.0,0.0,0.0,0.0,0.0,0.0,0.0,0.0,0.0,0.0,0.0,0.0,0.0,0.0,0.0,0.0,0.0,0.0,0.0,0.0,0.0,0.0,0.0,0.0,0.0,0.0,0.0,0.0,0.0,0.0,0.0,0.1617,0.1617,0.1617,0.1617,0.1617,0.1617,0.1617,0.1617,0.1617,0.1617,0.1617,0.0,0.0,0.0,0.0,0.0,0.0,0.0,0.0,0.0,0.0,0.0,0.0,0.0,0.0,0.0,0.0,0.0,0.0,0.0,0.0,0.0,0.0,0.0,0.0,0.0,0.0,0.0,0.0,0.0,0.0,0.0,0.0,0.0,0.0,0.0,0.0,0.0,0.0,0.0,0.0,0.0,0.0,0.0,0.0,0.0,0.0,0.0,0.0,0.0,0.0,0.0,0.0,0.0,0.0909,0.0606,0.0606,0.0606,0.0606,0.0606,-0.0101,0.0404,0.1516,0.0909,0.0,0.0,0.0,0.0,0.0,0.0,0.0,0.0,0.0,0.0,0.0,0.0,0.0,0.0,0.0,0.0,0.0,0.0,0.0,0.0,0.0,0.0,0.0,0.0,-0.1109,-0.1008,-0.2422,0.0,0.0,0.0,0.0,0.0,0.0,0.0,0.0,0.0,0.0,0.0,0.1617,0.1617,0.1617,0.1617,0.1617,0.1617,0.1617,0.1617,0.1617,0.1617,0.1617,0.1617,0.0,0.0,0.0,0.0,0.0,0.0,0.0,0.0,0.0,0.0,0.0,0.0,0.0,0.0,0.0,0.0,0.0,0.0,0.0,0.0,0.0,0.0,0.0,0.0,0.0,0.0,0.0,0.0,0.0,0.0,0.0,0.0,0.1427,0.1434,0.0,0.0,0.0,0.0,0.0,0.0,0.0,0.0,0.0,0.0,0.0,0.0,0.0,0.1607,0.1611,0.1611,0.1613,0.1617,0.1516,0.1415,0.1415,0.1415,0.1415,0.1415,0.1313,0.0,0.1617,0.1516,0.0,0.0,0.0,0.0,0.0,0.0,0.0,0.0,0.0,0.0,0.0,0.0,0.0,0.0,0.0,0.0,0.0,0.0,0.0,0.0,0.0,0.0,0.0909,0.0202,0.0202,-0.0,0.0,-0.1008,-0.0706,-0.0101,0.0202,0.0,0.0,0.0,0.0,0.0,0.0,0.0,0.1617,0.1617,0.1617,0.1617,0.1617,0.1617,0.1617,0.1617,0.1617,0.1617,0.1617,0.1617,0.1617,0.1617,0.0,0.0,0.0,0.0,0.0,0.0,0.0,0.0,0.0,0.0,0.0,0.0,0.0,0.0,0.0,0.0,0.0,0.0,0.0,0.0,0.0,0.0,0.0,0.0,0.0,0.0,0.0,0.0,0.0,0.1408,0.1436,0.1436,0.1451,0.1461,0.0,0.0,0.0,0.0,0.0,0.0,0.0,0.0,0.0,0.1597,0.161,0.1617,0.1617,0.1617,0.1617,0.1617,0.1617,0.1617,0.1617,0.1617,0.1617,0.1617,0.1617,0.1617,0.1617,0.1617,0.1617,0.1617,0.0,0.0,0.0,0.0,0.1617,0.1617,0.1617,0.1617,0.1617,0.1617,0.0,0.0,0.0,0.0,0.0,0.0,0.0,0.0,0.0,0.0,0.0808,0.0505,0.0707,0.0808,0.0,0.0202,0.0404,0.0,0.0101,0.0505,0.0909,0.0,0.0,0.0,0.0,0.1617,0.1617,0.1617,0.1617,0.1617,0.1617,0.1617,0.1617,0.1617,0.1617,0.1617,0.1617,0.1617,0.1617,0.1617,0.1617,0.0,0.0,0.0,0.0,0.0,0.0,0.0,0.0,0.0,0.0,0.0,0.0,0.0,0.0,0.0,0.0,0.0,0.0,0.0,0.0,0.0,0.0,0.0,0.0,0.0,0.0,0.0,0.0,0.1421,0.1438,0.1446,0.1467,0.1484,0.0,0.0,0.0,0.0,0.0,0.0,0.1583,0.1704,0.1717,0.1617,0.1717,0.1717,0.1617,0.1617,0.1617,0.1617,0.1617,0.1617,0.1617,0.1617,0.1617,0.1617,0.1617,0.1617,0.1617,0.1617,0.1617,0.1617,0.1617,0.1617,0.1617,0.1617,0.1617,0.1617,0.1617,0.1617,0.1617,0.1617,0.1617,0.1617,0.1617,0.0,0.0,0.0,0.0,0.0808,0.1415,0.1111,0.0707,0.0707,0.1212,0.1415,0.0808,0.1212,0.1212,0.0,0.0303,0.0707,0.0707,0.0,0.0,0.0,0.0,0.1617,0.1617,0.1617,0.1617,0.1617,0.1617,0.1617,0.1617,0.1617,0.1617,0.1617,0.1617,0.1617,0.1617,0.1617,0.1617,0.1617,0.0,0.0,0.0,0.0,0.0,0.0,0.0,0.0,0.0,0.0,0.0,0.0,0.0,0.0,0.0,0.0,0.0,0.0,0.0,0.0,0.0,0.0,0.0,0.0,0.0,0.0,0.0,0.0,0.0,0.1475,0.148,0.0,0.0,0.0,0.0,0.1569,0.1597,0.1614,0.1614,0.2119,0.2119,0.1617,0.212,0.212,0.1617,0.1617,0.1617,0.1617,0.1617,0.1617,0.1617,0.1617,0.1617,0.1617,0.1617,0.1617,0.1617,0.1617,0.1617,0.1617,0.1617,0.1617,0.1617,0.1617,0.1617,0.1617,0.1617,0.1617,0.1617,0.1617,0.1617,0.1617,0.1617,0.1617,0.0,0.0,0.1617,0.1516,0.1617,0.1617,0.1516,0.1516,0.1617,0.1617,0.1516,0.1617,0.1617,0.0,0.1516,0.1516,0.1516,0.0,0.1516,0.1617,0.1617,0.1617,0.1617,0.1617,0.1617,0.1617,0.1617,0.1617,0.1617,0.1617,0.1617,0.1617,0.1617,0.1617,0.1617,0.1617,0.1617,0.1617,0.1617,0.0,0.0,0.0,0.0,0.0,0.0,0.0,0.0,0.0,0.0,0.0,0.0,0.0,0.0,0.0,0.0,0.0,0.0,0.0,0.0,0.0,0.0,0.0,0.0,0.0,0.0,0.0,0.0,0.1479,0.1515,0.0,0.1554,0.1583,0.16,0.16,0.1611,0.1617,0.1617,0.1818,0.1818,0.1617,0.1818,0.1818,0.1617,0.1919,0.212,0.212,0.212,0.212,0.212,0.1717,0.1617,0.1617,0.1617,0.1617,0.1617,0.1617,0.1617,0.1617,0.1617,0.1617,0.1617,0.1617,0.1617,0.1617,0.1617,0.1617,0.1617,0.1617,0.1617,0.1617,0.1617,0.1617,0.1617,0.1617,0.1617,0.1617,0.1617,0.1617,0.1617,0.1617,0.1617,0.1617,0.1617,0.1617,0.1617,0.1617,0.1617,0.1617,0.1617,0.1617,0.1617,0.1617,0.1617,0.1617,0.1617,0.1617,0.1617,0.1617,0.1617,0.1617,0.1617,0.1617,0.1617,0.1617,0.1617,0.1617,0.1617,0.1617,0.1617,0.1617,0.1617,0.1617,0.0,0.0,0.0,0.0,0.0,0.0,0.0,0.0,0.0,0.0,0.0,0.0,0.0,0.0,0.0,0.0,0.0,0.0,0.0,0.0,0.0,0.0,0.0,0.0,0.0,0.0,0.1489,0.1509,0.1547,0.1576,0.1585,0.1605,0.1617,0.1617,0.1617,0.1718,0.1818,0.202,0.2122,0.2122,0.2322,0.2322,0.2122,0.2321,0.2422,0.2422,0.222,0.2119,0.212,0.1717,0.1617,0.1617,0.1617,0.1617,0.1617,0.1617,0.1617,0.1617,0.1617,0.1617,0.1617,0.1617,0.1617,0.1617,0.1617,0.1617,0.1617,0.1617,0.1617,0.1617,0.1617,0.1617,0.1617,0.1617,0.1617,0.1617,0.1617,0.1617,0.1617,0.1617,0.1617,0.1617,0.1617,0.1617,0.1617,0.1617,0.1617,0.1617,0.1617,0.1617,0.162,0.163,0.1624,0.1624,0.1643,0.1638,0.1636,0.1645,0.1646,0.1646,0.1646,0.1646,0.1642,0.1633,0.1633,0.1628,0.1617,0.1617,0.1617,0.1617,0.1617,0.1617,0.1617,0.0,0.0,0.0,0.0,0.0,0.0,0.0,0.0,0.0,0.0,0.0,0.0,0.0,0.0,0.0,0.0,0.0,0.0,0.0,0.0,0.0,0.0,0.0,0.1482,0.1483,0.1506,0.1564,0.1572,0.1584,0.1614,0.1617,0.1617,0.1617,0.1617,0.1818,0.2422,0.2927,0.323,0.323,0.3732,0.3731,0.323,0.2724,0.2422,0.2422,0.1919,0.1718,0.1718,0.1617,0.1617,0.1617,0.1617,0.1617,0.1617,0.1617,0.1617,0.1617,0.1617,0.1617,0.1617,0.1617,0.1617,0.1617,0.1617,0.1617,0.1617,0.1617,0.1617,0.1617,0.1617,0.1617,0.1617,0.1617,0.1617,0.1617,0.1617,0.1617,0.1617,0.1618,0.1618,0.1619,0.162,0.162,0.162,0.162,0.162,0.162,0.1618,0.1619,0.1629,0.1659,0.1639,0.0,0.1697,0.168,0.1674,0.1701,0.1704,0.1704,0.1704,0.1704,0.1692,0.1665,0.1664,0.165,0.1621,0.162,0.162,0.1618,0.1617,0.1617,0.1617,0.0,0.0,0.0,0.0,0.0,0.0,0.0,0.0,0.0,0.0,0.0,0.0,0.0,0.0,0.0,0.0,0.0,0.0,0.0,0.0,0.0,0.0,0.1513,0.1513,0.1533,0.1553,0.1569,0.1591,0.1608,0.1616,0.1617,0.1717,0.212,0.2221,0.2423,0.2927,0.313,0.323,0.323,0.2925,0.2925,0.323,0.3029,0.3128,0.353,0.3429,0.3328,0.333,0.2928,0.2524,0.2221,0.2221,0.1919,0.1617,0.1617,0.1617,0.1617,0.1617,0.1617,0.1617,0.1617,0.1617,0.1617,0.1617,0.1617,0.1617,0.1617,0.1617,0.1617,0.1617,0.1617,0.1617,0.1617,0.1617,0.1617,0.1617,0.1617,0.1622,0.1645,0.165,0.1655,0.1676,0.168,0.168,0.168,0.168,0.1674,0.1653,0.1667,0.1683,0.1691,0.1686,0.0,0.1702,0.1697,0.1695,0.1703,0.1704,0.1704,0.1704,0.1704,0.1701,0.1693,0.1692,0.1689,0.168,0.168,0.1671,0.165,0.1628,0.1617,0.0,0.0,0.0,0.0,0.0,0.0,0.0,0.0,0.0,0.0,0.0,0.0,0.0,0.0,0.0,0.0,0.0,0.0,0.0,0.0,0.0,0.0,0.1534,0.1646,0.1854,0.1764,0.1577,0.1589,0.1606,0.1718,0.1919,0.1919,0.212,0.2724,0.2725,0.2927,0.3531,0.3531,0.3632,0.3833,0.3528,0.3528,0.3833,0.3632,0.3732,0.4033,0.3732,0.3632,0.3632,0.3331,0.2927,0.2422,0.2422,0.212,0.1617,0.1617,0.1617,0.0,0.0,0.0,0.0,0.0,0.1617,0.1617,0.1617,0.1617,0.1617,0.1617,0.1617,0.1617,0.1617,0.1617,0.162,0.1633,0.1636,0.1639,0.165,0.1654,0.1658,0.1675,0.168,0.1684,0.1701,0.1704,0.1704,0.1704,0.1714,0.0,0.1702,0.1702,0.1708,0.1721,0.1712,0.1713,0.1739,0.1731,0.1728,0.1741,0.1742,0.1742,0.1742,0.1742,0.0,0.0,0.0,0.1718,0.1705,0.1704,0.0,0.0,0.0,0.1654,0.1654,0.1641,0.0,0.0,0.1623,0.1617,0.0,0.0,0.0,0.0,0.0,0.0,0.0,0.0,0.0,0.0,0.0,0.0,0.0,0.0,0.0,0.0,0.1673,0.1883,0.2215,0.199,0.1784,0.1815,0.1718,0.1919,0.2422,0.2522,0.2725,0.323,0.3331,0.3531,0.4033,0.0,0.0,0.0,0.0,0.4734,0.4834,0.4234,0.4033,0.4133,0.3632,0.3331,0.3331,0.3331,0.3027,0.2623,0.2422,0.2119,0.1718,0.1617,0.1617,0.1617,0.1617,0.1617,0.1617,0.1617,0.1617,0.1617,0.1617,0.0,0.0,0.1617,0.162,0.1622,0.1622,0.1624,0.1633,0.166,0.1667,0.1673,0.1697,0.1704,0.1705,0.1708,0.171,0.171,0.1714,0.1714,0.1714,0.1714,0.1736,0.1755,0.1755,0.1733,0.1724,0.175,0.1732,0.1734,0.1788,0.1771,0.1765,0.1792,0.0,0.0,0.1795,0.1795,0.1783,0.1757,0.1755,0.1742,0.1716,0.1711,0.171,0.171,0.1706,0.1704,0.1704,0.1679,0.1667,0.1666,0.1633,0.1617,0.0,0.0,0.0,0.0,0.0,0.0,0.0,0.0,0.0,0.0,0.0,0.0,0.0,0.0,0.0,0.157,0.1988,0.2111,0.1817,0.2416,0.2916,0.2927,0.2523,0.2422,0.3027,0.3029,0.3229,0.3831,0.3833,0.4033,0.4634,0.4634,0.4734,0.4834,0.4332,0.4332,0.4834,0.4234,0.4234,0.4634,0.0,0.0,0.4433,0.4033,0.3831,0.363,0.2825,0.2321,0.222,0.1818,0.1617,0.1617,0.1617,0.1617,0.1617,0.1617,0.1617,0.1617,0.1617,0.1617,0.1617,0.1617,0.1634,0.1654,0.1654,0.1669,0.0,0.1695,0.1696,0.1697,0.1703,0.1704,0.171,0.1735,0.1741,0.1748,0.1772,0.1778,0.1778,0.1778,0.1782,0.1787,0.1787,0.1781,0.1779,0.1785,0.1781,0.1782,0.1793,0.179,0.1789,0.1794,0.1795,0.1795,0.1795,0.1795,0.1793,0.1787,0.1787,0.1783,0.1778,0.1754,0.1741,0.1741,0.1717,0.1704,0.1704,0.1699,0.1696,0.1695,0.1641,0.1617,0.0,0.0,0.0,0.0,0.0,0.0,0.0,0.0,0.0,0.0,0.0,0.1721,0.2219,0.0,0.209,0.239,0.2407,0.2522,0.2725,0.2826,0.2826,0.2826,0.2826,0.3027,0.3531,0.3632,0.3831,0.4334,0.4433,0.4535,0.4834,0.4834,0.4834,0.4834,0.4533,0.4533,0.4834,0.4533,0.4533,0.4834,0.4834,0.4834,0.4834,0.4533,0.4234,0.3932,0.3429,0.3026,0.2725,0.2221,0.1818,0.1617,0.1617,0.1617,0.1617,0.1617,0.1617,0.1617,0.1617,0.1627,0.1639,0.1639,0.166,0.1683,0.1683,0.1693,0.1707,0.1722,0.1727,0.1731,0.1746,0.175,0.1753,0.1769,0.1772,0.1776,0.1792,0.1795,0.1795,0.1795,0.1795,0.1795,0.1795,0.1795,0.1795,0.1795,0.1795,0.1795,0.1795,0.1795,0.1795,0.1795,0.1795,0.1795,0.1795,0.1795,0.1795,0.1795,0.1795,0.1795,0.1795,0.178,0.1772,0.1772,0.1757,0.175,0.175,0.1734,0.1727,0.1726,0.1681,0.166,0.0,0.0,0.0,0.0,0.0,0.0,0.0,0.0,0.1956,0.2339,0.2113,0.2064,0.2661,0.2496,0.2623,0.313,0.2826,0.2825,0.3732,0.3327,0.2823,0.2724,0.3128,0.3531,0.4133,0.4133,0.4334,0.4734,0.4834,0.4834,0.4834,0.4834,0.4834,0.4834,0.4834,0.4834,0.4834,0.4834,0.4834,0.4834,0.4834,0.4834,0.4834,0.4734,0.4433,0.4133,0.4033,0.3732,0.313,0.2623,0.212,0.1717,0.1617,0.1617,0.1617,0.1617,0.1617,0.1618,0.1624,0.1641,0.1663,0.1669,0.169,0.1713,0.1713,0.1717,0.1727,0.1751,0.1759,0.1764,0.1789,0.1795,0.1795,0.1795,0.1795,0.1795,0.1795,0.1795,0.1795,0.1795,0.1795,0.1795,0.1795,0.1795,0.1795,0.1795,0.1795,0.1795,0.1795,0.1795,0.1795,0.1795,0.1795,0.1795,0.1795,0.1795,0.1795,0.1795,0.1795,0.1795,0.1795,0.1795,0.1795,0.1795,0.1795,0.1795,0.1795,0.177,0.1759,0.1758,0.1733,0.1715,0.3136,0.2957,0.0,0.2868,0.2907,0.2764,0.0,0.0,0.2959,0.3109,0.3033,0.3155,0.3709,0.3021,0.2623,0.313,0.313,0.313,0.323,0.4033,0.4332,0.3831,0.3831,0.4133,0.4634,0.4734,0.4734,0.4834,0.4834,0.4834,0.4834,0.4834,0.4834,0.4834,0.4834,0.4834,0.4834,0.4834,0.4834,0.4834,0.4834,0.4834,0.4734,0.4334,0.4334,0.4734,0.4234,0.3732,0.313,0.2623,0.2321,0.222,0.1818,0.1617,0.1617,0.1617,0.1617,0.1621,0.1648,0.166,0.1667,0.1691,0.172,0.1744,0.1744,0.1763,0.1785,0.1789,0.179,0.1791,0.1794,0.1795,0.1795,0.1795,0.1795,0.1795,0.1795,0.1795,0.1795,0.1795,0.1795,0.1795,0.1795,0.1795,0.1795,0.1795,0.1795,0.1795,0.1795,0.1795,0.1795,0.1795,0.1795,0.1795,0.1795,0.1795,0.1795,0.1795,0.1795,0.1795,0.1795,0.1795,0.1795,0.1795,0.1795,0.1795,0.1795,0.1791,0.179,0.179,0.1786,0.1756,0.3762,0.0,0.0,0.0,0.3429,0.3479,0.3197,0.3153,0.3206,0.3523,0.3365,0.34,0.3927,0.363,0.353,0.0,0.3833,0.3732,0.4133,0.4234,0.4332,0.4433,0.4433,0.4533,0.4734,0.4834,0.4834,0.4834,0.4834,0.4834,0.4834,0.4834,0.4834,0.4834,0.4834,0.4834,0.4834,0.4834,0.4834,0.4834,0.4834,0.4834,0.4834,0.4533,0.4634,0.4834,0.4533,0.4033,0.323,0.2927,0.2523,0.1919,0.1718,0.1628,0.1643,0.1643,0.1643,0.1647,0.1677,0.1698,0.1715,0.1727,0.1751,0.1776,0.1776,0.1785,0.1795,0.1795,0.1795,0.1795,0.1795,0.1795,0.1795,0.1795,0.1795,0.1795,0.1795,0.1795,0.1795,0.1795,0.1795,0.1795,0.1795,0.1795,0.1795,0.1795,0.1795,0.1795,0.1795,0.1795,0.1795,0.1795,0.1795,0.1795,0.1795,0.1795,0.1795,0.1795,0.1795,0.1795,0.1795,0.1795,0.1795,0.1795,0.1795,0.1795,0.1795,0.1795,0.1795,0.1795,0.1795,0.1781,0.4727,0.0,0.0,0.4103,0.4161,0.4411,0.4218,0.4283,0.4345,0.4245,0.4093,0.4034,0.4234,0.4133,0.4133,0.4734,0.4334,0.4234,0.4734,0.4433,0.4332,0.4734,0.4834,0.4834,0.4834,0.4834,0.4834,0.4834,0.4834,0.4834,0.4834,0.4834,0.4834,0.4834,0.4834,0.4834,0.4834,0.5035,0.5048,0.4873,0.5073,0.5187,0.5213,0.5519,0.562,0.562,0.562,0.5213,0.44,0.3993,0.3277,0.2458,0.2051,0.1758,0.1675,0.1683,0.1681,0.1678,0.1707,0.1731,0.1751,0.1759,0.1777,0.1795,0.1795,0.1795,0.1795,0.1795,0.1795,0.1795,0.1795,0.1795,0.1795,0.1795,0.1795,0.1795,0.1795,0.1795,0.1795,0.1795,0.1795,0.1795,0.1795,0.1795,0.1795,0.1795,0.1795,0.1795,0.1795,0.1795,0.1795,0.1795,0.1795,0.1795,0.1795,0.1795,0.1795,0.1795,0.1795,0.1795,0.1795,0.1795,0.1795,0.1795,0.1795,0.1795,0.1795,0.1795,0.1795,0.1795,0.1795,0.1795,0.5943,0.0,0.5603,0.4757,0.5211,0.5672,0.5176,0.6142,0.6728,0.5425,0.5534,0.5641,0.4935,0.4334,0.4133,0.4734,0.4334,0.4234,0.4734,0.4834,0.4734,0.4834,0.4834,0.4834,0.0,0.4834,0.4834,0.4834,0.4834,0.4834,0.4834,0.4834,0.4834,0.4834,0.4834,0.4834,0.4834,0.5539,0.559,0.4967,0.5786,0.6254,0.6361,0.7308,0.7731,0.7731,0.7731,0.7731,0.7518,0.615,0.5197,0.4452,0.3082,0.2234,0.1707,0.1736,0.1728,0.1707,0.1737,0.1749,0.1755,0.1784,0.1794,0.1795,0.1795,0.1795,0.1795,0.1795,0.1795,0.1795,0.1795,0.1795,0.1795,0.1795,0.1795,0.1795,0.1795,0.1795,0.1795,0.1795,0.1795,0.1795,0.1795,0.1795,0.1795,0.1795,0.1795,0.1795,0.1795,0.1795,0.1795,0.1795,0.1795,0.1795,0.1795,0.1795,0.1795,0.1795,0.1795,0.1795,0.1795,0.1795,0.1795,0.1795,0.1795,0.1795,0.1795,0.1795,0.1795,0.1795,0.1795,0.1795,0.6632,0.6611,0.6582,0.6296,0.6485,0.6674,0.6572,0.6904,0.7036,0.6634,0.6637,0.6736,0.6437,0.6237,0.6037,0.5639,0.5438,0.5238,0.4834,0.4834,0.4834,0.4834,0.5238,0.0,0.0,0.0,0.0,0.5639,0.5639,0.5639,0.5639,0.5138,0.5035,0.5539,0.5703,0.6045,0.6551,0.6941,0.711,0.684,0.7151,0.7279,0.7323,0.7638,0.7849,0.7849,0.7849,0.7217,0.6265,0.5843,0.489,0.3828,0.2982,0.2469,0.2278,0.1964,0.1756,0.1766,0.1776,0.178,0.1781,0.1791,0.1795,0.1795,0.1795,0.1795,0.1795,0.1795,0.1795,0.1795,0.1795,0.1795,0.1795,0.1795,0.1795,0.1795,0.1795,0.1795,0.1795,0.1795,0.1795,0.1795,0.1795,0.1812,0.1832,0.1852,0.1821,0.1795,0.1795,0.1795,0.1795,0.1795,0.1795,0.1795,0.1795,0.1795,0.1795,0.1795,0.1795,0.1795,0.1795,0.1795,0.1795,0.1795,0.1795,0.1795,0.1795,0.1795,0.1795,0.1795,0.1795,0.1795,0.7538,0.7524,0.7498,0.7205,0.7368,0.7637,0.7637,0.7836,0.7935,0.7736,0.7637,0.7534,0.7238,0.6939,0.6739,0.6439,0.5939,0.5539,0.5238,0.5236,0.5236,0.5236,0.5939,0.6439,0.0,0.0,0.0,0.6439,0.6439,0.6439,0.6439,0.5937,0.5954,0.6499,0.6675,0.7044,0.7607,0.8011,0.819,0.8242,0.8291,0.8421,0.8421,0.8421,0.8421,0.8314,0.7993,0.7347,0.6381,0.617,0.5306,0.4224,0.3578,0.3169,0.2869,0.2537,0.2334,0.2132,0.1907,0.1795,0.1795,0.1795,0.1795,0.1795,0.1795,0.1795,0.1795,0.1795,0.1795,0.1795,0.1795,0.1795,0.1795,0.1795,0.1804,0.1811,0.1811,0.182,0.1827,0.1827,0.1827,0.1827,0.1827,0.1843,0.1863,0.1883,0.1853,0.1827,0.1827,0.1827,0.1827,0.1827,0.1827,0.1827,0.1827,0.1827,0.1827,0.1827,0.1817,0.1811,0.1811,0.1801,0.1795,0.1795,0.1795,0.1795,0.1795,0.1795,0.1795,0.1795,0.1795,0.1795,0.859,0.8432,0.8233,0.7537,0.7932,0.8432,0.8432,0.9031,0.943,0.863,0.8432,0.8233,0.0,0.0,0.6439,0.7138,0.5934,0.5236,0.5942,0.6042,0.6042,0.0,0.0,0.0,0.0,0.0,0.0,0.7338,0.0,0.7238,0.7238,0.7244,0.7302,0.753,0.7545,0.7723,0.7963,0.8709,0.9104,0.9151,0.9403,0.9471,0.9471,0.9471,0.9471,0.9361,0.8472,0.8029,0.7919,0.7043,0.6374,0.5699,0.4814,0.4145,0.3587,0.3587,0.3141,0.2581,0.202,0.1795,0.1795,0.1795,0.1795,0.1795,0.1795,0.1795,0.1795,0.1795,0.1795,0.1795,0.1797,0.1797,0.1797,0.1799,0.1821,0.1842,0.1842,0.1866,0.1886,0.1886,0.1886,0.1886,0.1888,0.1888,0.1889,0.189,0.189,0.1889,0.1886,0.1886,0.1886,0.1886,0.1886,0.1886,0.1886,0.1886,0.1886,0.1886,0.1858,0.1842,0.1842,0.1814,0.18,0.18,0.18,0.18,0.18,0.1798,0.1797,0.1797,0.1795,0.1795,0.9316,0.9327,0.9229,0.9031,0.913,0.9327,0.9327,0.9426,0.9529,0.9327,0.9327,0.9229,0.0,0.0,0.0,0.8134,0.7733,0.0,0.6939,0.6939,0.0,0.0,0.0,0.8134,0.8134,0.8829,0.0,0.0,0.8432,0.8134,0.8134,0.7629,0.7699,0.835,0.8682,0.9037,0.972,1.0058,1.0252,1.0296,1.0339,1.0359,1.0359,1.0359,1.0025,0.9361,0.914,0.8257,0.7043,0.6824,0.627,0.5489,0.4815,0.4369,0.4145,0.3253,0.2806,0.2581,0.202,0.1795,0.1795,0.1795,0.1795,0.1795,0.1795,0.1795,0.1795,0.1795,0.1795,0.18,0.1823,0.1829,0.1834,0.1857,0.1868,0.1874,0.1874,0.188,0.1886,0.1886,0.1886,0.1893,0.1916,0.1919,0.1927,0.195,0.1954,0.1937,0.1892,0.1886,0.1886,0.1886,0.1886,0.1886,0.1886,0.1886,0.1886,0.1886,0.1879,0.1874,0.1874,0.1867,0.1863,0.1863,0.1863,0.1863,0.1863,0.184,0.1829,0.1828,0.1806,0.1795,0.9628,0.9628,0.9628,0.9628,0.9628,0.9628,0.9628,0.9628,0.9628,0.9628,0.9628,0.0,0.0,0.0,0.0,0.0,0.0,0.0,0.7736,0.7736,0.7736,0.0,0.8432,0.0,0.8928,0.9327,0.9628,0.0,0.9229,0.8962,0.9029,0.8711,0.8823,0.9387,0.958,1.0038,1.0546,1.0643,1.0692,1.0692,1.0692,1.0692,1.0692,1.0249,0.9915,0.9361,0.0,0.8254,0.7263,0.7263,0.693,0.6487,0.5708,0.5485,0.5262,0.4033,0.3365,0.3029,0.2356,0.202,0.1795,0.1795,0.1795,0.1795,0.1795,0.1795,0.1797,0.1811,0.1814,0.1822,0.1852,0.186,0.1864,0.1881,0.1896,0.1906,0.1906,0.1916,0.1926,0.1926,0.1926,0.1931,0.1948,0.1951,0.1957,0.1974,0.1977,0.1964,0.193,0.1926,0.1926,0.1926,0.1926,0.1926,0.1926,0.1926,0.1926,0.1926,0.1913,0.1906,0.1906,0.1893,0.1886,0.1886,0.1886,0.1886,0.1886,0.1868,0.186,0.186,0.1842,0.1835,0.9628,0.9628,0.9628,0.9628,0.9628,0.9628,0.9628,0.9628,0.9628,0.9628,0.0,0.9628,0.9628,0.9031,0.8832,0.9529,0.0,0.7736,0.8432,0.8531,0.8531,0.8531,0.913,0.9628,0.9628,0.9628,0.9628,0.9628,0.9648,0.9726,0.9876,0.9908,1.0091,1.0456,1.0469,1.0542,1.0688,1.0692,1.0692,1.0692,1.0692,1.0692,1.0692,0.9915,0.9471,0.9361,0.8582,0.814,0.8029,0.8029,0.8029,0.7919,0.7152,0.6824,0.649,0.5148,0.4257,0.3475,0.2918,0.2356,0.1795,0.1795,0.1795,0.1795,0.1795,0.1797,0.1806,0.1833,0.1843,0.1853,0.1884,0.1892,0.1893,0.1897,0.1918,0.1937,0.1937,0.1958,0.1977,0.1977,0.1977,0.1977,0.1977,0.1977,0.1977,0.1977,0.1977,0.1977,0.1977,0.1977,0.1977,0.1977,0.1977,0.1977,0.1977,0.1977,0.1977,0.1977,0.1952,0.1937,0.1937,0.1912,0.1898,0.1898,0.1898,0.1898,0.1898,0.1894,0.1892,0.1892,0.1887,0.1886,0.9628,0.9628,0.9628,0.9628,0.9628,0.9628,0.9628,0.9628,0.0,0.0,0.9628,0.9628,0.9628,0.9529,0.943,0.9529,0.0,0.0,0.0,0.0,0.9426,0.0,0.0,0.0,0.0,0.0,0.0,0.0,0.0,0.9851,0.9884,1.003,1.0278,1.0635,1.0647,1.0664,1.0692,1.0692,1.0692,1.0692,1.0692,1.0692,1.0692,1.0578,1.0029,0.9361,0.9247,0.0,0.8029,0.8029,0.8029,0.8029,0.7811,0.7371,0.6601,0.5815,0.47,0.3475,0.2918,0.2356,0.1795,0.1795,0.1795,0.1795,0.1795,0.1812,0.1834,0.1839,0.1858,0.1885,0.1915,0.1923,0.193,0.1955,0.1964,0.1969,0.1969,0.1973,0.1977,0.1977,0.1977,0.1977,0.1977,0.1977,0.1977,0.1977,0.1977,0.1977,0.1977,0.1977,0.1977,0.1977,0.1977,0.1977,0.1977,0.1977,0.1977,0.1977,0.1972,0.1969,0.1969,0.1964,0.1961,0.1961,0.1961,0.1961,0.1961,0.1936,0.1923,0.1923,0.1898,0.1886,0.9628,0.9628,0.9628,0.9628,0.9628,0.9628,0.9628,0.0,0.0,0.0,0.9628,0.9628,0.9628,0.9628,0.0,0.0,0.0,0.0,0.0,0.0,0.0,0.0,0.0,0.0,0.0,0.0,0.0,0.0,0.0,0.9929,1.0022,1.029,1.0517,1.0684,1.0692,1.0692,1.0692,1.0692,1.0692,1.0692,1.0692,1.0692,1.0692,1.0692,1.0472,1.0029,1.0029,0.9805,0.9361,0.9361,0.9361,0.9361,0.8916,0.8475,0.7925,0.6922,0.6031,0.5365,0.4698,0.4029,0.3358,0.3022,0.2464,0.1797,0.1814,0.1829,0.1847,0.1879,0.1898,0.1917,0.1947,0.1955,0.1958,0.1973,0.1977,0.1977,0.1977,0.1977,0.1977,0.1977,0.1977,0.1977,0.1977,0.1977,0.1977,0.1977,0.1977,0.1977,0.1977,0.1977,0.1977,0.1977,0.1977,0.1977,0.1977,0.1977,0.1977,0.1977,0.1977,0.1977,0.1977,0.1977,0.1977,0.1977,0.1977,0.1977,0.1977,0.1962,0.1955,0.1954,0.194,0.1933,0.9628,0.9628,0.9628,0.9628,0.9628,0.9628,0.9628,0.9628,0.0,0.0,0.9628,0.9628,0.9628,0.9628,0.9628,0.0,0.0,0.0,0.0,0.0,0.0,0.0,0.0,0.0,0.0,0.0,0.0,0.0,0.0,0.0,1.0209,1.0521,1.0692,1.0692,1.0692,1.0692,1.0692,1.0692,1.0692,1.0692,1.0692,1.0692,1.0692,1.0692,1.0692,1.0692,1.0692,1.0692,1.0692,1.0692,1.0692,1.0582,0.9915,0.9581,0.9251,0.8026,0.736,0.7027,0.6584,0.5806,0.5144,0.4709,0.3374,0.1922,0.1833,0.1849,0.187,0.1917,0.1936,0.1947,0.197,0.1977,0.1977,0.1977,0.1977,0.1977,0.1977,0.1977,0.1977,0.1977,0.1977,0.1977,0.1977,0.1977,0.1977,0.1977,0.1977,0.1977,0.1977,0.1977,0.1977,0.1977,0.1977,0.1977,0.1977,0.1977,0.1977,0.1977,0.1977,0.1977,0.1977,0.1977,0.1977,0.1977,0.1977,0.1977,0.1977,0.1977,0.1977,0.1977,0.1977,0.1977,0.9628,0.9628,0.9628,0.9628,0.9628,0.9628,0.9628,0.0,0.0,0.9628,0.9628,0.9628,0.9628,0.9628,0.9628,0.0,0.9628,0.9628,0.0,0.0,0.0,0.0,0.0,0.0,0.0,0.0,0.0,0.0,0.0,0.0,1.04,1.059,1.0692,1.0692,1.0692,1.0692,1.0692,1.0692,1.0692,1.0692,1.0692,1.0692,1.0692,1.0692,1.0692,1.0692,1.0692,1.0692,0.0,1.0692,1.0692,1.0692,1.0582,1.0135,0.9361,0.9251,0.8247,0.7138,0.7027,0.6584,0.6154,0.6242,0.4571,0.2523,0.1954,0.1879,0.1924,0.1929,0.1951,0.1973,0.1976,0.1977,0.1977,0.1977,0.1977,0.1977,0.1977,0.1977,0.1977,0.1977,0.1977,0.1977,0.1977,0.1977,0.1977,0.1977,0.1977,0.1977,0.1977,0.1977,0.1977,0.1977,0.1977,0.1977,0.1977,0.1977,0.1977,0.1977,0.1977,0.1977,0.1977,0.1977,0.1977,0.1977,0.1977,0.1977,0.1977,0.1977,0.1977,0.1977,0.1977,0.1977,0.9628,0.9628,0.9628,0.9628,0.9628,0.9628,0.9628,0.0,0.9628,0.9628,0.9628,0.9628,0.9628,0.9628,0.9628,0.9628,0.9628,0.9628,0.9628,0.0,0.0,0.0,0.0,0.0,0.0,0.0,0.0,0.0,0.0,0.0,1.0574,1.0655,1.0692,1.0692,1.0692,1.0692,1.0692,1.0692,1.0692,1.0692,1.0692,1.0692,1.0692,1.0692,1.0692,1.0692,1.0692,1.0692,0.0,1.0692,1.0692,1.0692,1.0692,1.0468,1.0139,1.0139,0.9801,0.9247,0.9247,0.886,0.8158,0.7867,0.6837,0.5422,0.3896,0.3337,0.3259,0.2196,0.1967,0.1977,0.1977,0.1977,0.1977,0.1977,0.1977,0.1977,0.1977,0.1977,0.1977,0.1977,0.1977,0.1977,0.1977,0.1977,0.1977,0.1977,0.1977,0.1977,0.1977,0.1977,0.1977,0.1977,0.1977,0.1977,0.1977,0.1977,0.1977,0.1977,0.1977,0.1977,0.1977,0.1977,0.1977,0.1977,0.1977,0.1977,0.1977,0.1977,0.1977,0.1977,0.1977,0.1977,0.9628,0.9628,0.9628,0.9628,0.9628,0.9628,0.0,0.9628,0.9628,0.9628,0.9628,0.9628,0.9628,0.9628,0.9628,0.9628,0.9628,0.9628,0.9628,0.0,0.0,0.0,0.0,0.0,0.0,0.0,0.0,0.0,0.0,0.0,1.0599,1.0664,1.0692,1.0692,1.0692,1.0692,1.0692,1.0692,1.0692,1.0692,1.0692,1.0692,1.0692,1.0692,1.0692,1.0692,1.0692,1.0692,0.0,1.0692,1.0692,1.0692,1.0692,1.0692,1.0692,1.0692,1.0692,1.07,1.0757,1.0408,0.9957,0.9588,0.9179,0.8396,0.6395,0.5563,0.4853,0.3196,0.2346,0.2099,0.2591,0.2469,0.2346,0.2346,0.2346,0.2346,0.2469,0.247,0.2346,0.2469,0.247,0.2346,0.2346,0.2099,0.1977,0.1977,0.1977,0.1977,0.1977,0.1977,0.1977,0.1977,0.1977,0.1977,0.1977,0.1977,0.1977,0.1977,0.1977,0.1977,0.1977,0.1977,0.1977,0.1977,0.1977,0.1977,0.1977,0.1977,0.1977,0.1977,0.1977,0.1977,0.9628,0.9628,0.9628,0.9628,0.9628,0.9628,0.0,0.9628,0.9628,0.9628,0.9628,0.9628,0.9628,0.9628,0.9628,0.9628,0.9628,0.9628,0.9628,0.9628,0.0,0.0,0.0,0.0,0.0,0.0,0.0,0.0,0.0,0.0,1.0428,1.0599,1.0692,1.0692,1.0692,1.0692,1.0692,1.0692,1.0692,1.0692,1.0692,1.0692,1.0692,1.0692,1.0692,1.0692,1.0692,1.0692,0.0,1.0692,1.0692,1.0692,1.0692,1.0692,1.0692,1.0692,1.0692,1.0716,1.0903,1.0968,1.1029,1.1378,1.1496,1.1169,0.964,0.8097,0.6508,0.4797,0.3206,0.2346,0.394,0.3697,0.2961,0.2961,0.2961,0.3207,0.3698,0.3453,0.3207,0.3821,0.3453,0.2961,0.2961,0.247,0.1977,0.1977,0.1977,0.1977,0.1977,0.1977,0.1977,0.1977,0.1977,0.1977,0.1977,0.1977,0.1977,0.1977,0.1977,0.1977,0.1977,0.1977,0.1977,0.1977,0.1977,0.1977,0.1977,0.1977,0.1977,0.1977,0.1977,0.1977,0.9628,0.9628,0.9628,0.9628,0.9628,0.9628,0.9628,0.9628,0.9628,0.9628,0.9628,0.9628,0.9628,0.9628,0.9628,0.9628,0.9628,0.9628,0.9628,0.0,0.0,0.0,0.0,0.0,0.0,0.0,0.0,0.0,0.0,1.0241,1.0424,1.0599,1.0692,1.0692,1.0692,1.0692,1.0692,1.0692,1.0692,1.0692,1.0692,1.0692,1.0692,1.0692,1.0692,1.0692,1.0692,1.0692,1.0692,1.0692,1.0692,1.0692,1.0692,1.0692,1.0692,1.0692,1.0692,1.0716,1.0907,1.1045,1.1183,1.1419,1.1585,1.1579,1.1144,0.9812,0.8221,0.651,0.5776,0.541,0.602,0.541,0.4677,0.4677,0.4064,0.3698,0.382,0.3698,0.3698,0.382,0.3453,0.2961,0.2961,0.247,0.1977,0.1977,0.1977,0.1977,0.1977,0.1977,0.1977,0.1977,0.1977,0.1977,0.1977,0.1977,0.1977,0.1977,0.1977,0.1977,0.1977,0.1977,0.1977,0.1977,0.1977,0.1977,0.1977,0.1977,0.1977,0.1977,0.1977,0.1977,0.9628,0.9628,0.9628,0.9628,0.9628,0.9628,0.9628,0.9628,0.9628,0.9628,0.9628,0.9628,0.9628,0.9628,0.9628,0.9628,0.9628,0.9628,0.9628,0.0,0.0,0.0,0.0,0.0,0.0,0.0,0.0,0.0,0.0,1.0213,1.0327,1.0558,1.0692,1.0692,1.0692,1.0692,1.0692,1.0692,1.0692,1.0692,1.0692,1.0692,1.0692,1.0692,1.0692,1.0692,1.0692,1.0692,0.0,1.0692,1.0692,1.0692,1.0692,1.0692,1.0692,1.0692,1.0737,1.0822,1.1001,1.1179,1.1358,1.1545,1.1683,1.1776,1.1776,1.0668,0.9198,0.8833,0.7853,0.6999,0.7609,0.7123,0.639,0.639,0.5902,0.5414,0.5291,0.5291,0.5168,0.4433,0.4066,0.3697,0.3085,0.247,0.2223,0.259,0.2346,0.2346,0.3573,0.3204,0.296,0.296,0.3082,0.3083,0.247,0.2099,0.1977,0.1977,0.1977,0.1977,0.1977,0.1977,0.1977,0.1977,0.1977,0.1977,0.1977,0.1977,0.1977,0.1977,0.1977,0.1977,0.0,0.9628,0.9628,0.9628,0.9628,0.9628,0.9628,0.9628,0.0,0.9628,0.9628,0.9628,0.9628,0.9628,0.9628,0.9628,0.9628,0.9628,0.9628,0.0,0.0,0.0,0.0,0.0,0.0,0.0,0.0,0.0,0.9949,1.0148,1.016,1.0489,1.068,1.0692,1.0692,1.0692,1.0692,1.0692,1.0692,1.0692,1.0692,1.0692,1.0692,1.0692,1.0692,0.0,1.0692,1.0692,1.0692,1.0692,1.0692,1.0692,1.0692,1.0692,1.0692,1.0708,1.0822,1.0997,1.1179,1.1354,1.1529,1.1715,1.1776,1.1776,1.1776,1.0671,0.9812,1.1405,0.9566,0.7609,0.9076,0.8833,0.8102,0.8102,0.798,0.7858,0.7617,0.7736,0.737,0.5536,0.5414,0.5046,0.3575,0.2715,0.2714,0.3815,0.3081,0.3328,0.6014,0.5284,0.4553,0.4553,0.5165,0.4923,0.333,0.2592,0.2099,0.2099,0.2099,0.2099,0.2099,0.1977,0.1977,0.1977,0.1977,0.1977,0.1977,0.1977,0.1977,0.1977,0.1979,0.1979,0.9628,0.0,0.9628,0.9628,0.9628,0.9628,0.0,0.9628,0.9628,0.9628,0.0,0.9628,0.9628,0.9628,0.9628,0.9628,0.9628,0.9628,0.9628,0.0,0.0,0.0,0.0,0.0,0.0,0.0,0.0,0.9628,0.9827,1.0014,1.0152,1.0375,1.0554,1.0688,1.0692,1.0692,1.0692,1.0692,1.0692,1.0692,1.0692,1.0692,1.0692,1.0692,1.0692,1.0692,1.0692,1.0692,1.0692,1.0692,1.0692,1.0692,1.0692,1.0692,1.0708,1.085,1.0932,1.1013,1.1325,1.1464,1.1529,1.1715,1.1776,1.1776,1.1776,1.153,1.1285,1.1651,1.1285,1.0793,1.116,1.0425,0.9694,0.9694,0.9204,0.8593,0.8471,0.8593,0.8349,0.7742,0.725,0.6761,0.6151,0.5655,0.5406,0.5406,0.5653,0.5898,0.6381,0.6385,0.6265,0.6265,0.651,0.6023,0.4923,0.3943,0.3453,0.3453,0.2961,0.2715,0.2715,0.2223,0.1977,0.1977,0.1977,0.1977,0.1977,0.1977,0.1977,0.1977,0.1999,0.2009,0.9628,0.9628,0.9628,0.9628,0.9628,0.9628,0.9628,0.9628,0.0,0.0,0.0,0.9628,0.9628,0.9628,0.9628,0.9628,0.9628,0.9628,0.0,0.0,0.0,0.0,0.0,0.0,0.0,0.0,0.9628,0.9628,0.9786,0.9929,1.003,1.029,1.0477,1.057,1.0651,1.0692,1.0692,1.0692,1.0692,1.0692,1.0692,1.0692,1.0692,1.0692,1.0692,1.0692,1.0692,1.0692,1.0692,1.0692,1.0692,1.0692,1.0692,1.0692,1.0716,1.0903,1.1017,1.1126,1.1403,1.1553,1.1642,1.1744,1.1776,1.1776,1.1776,1.1776,1.1776,1.1776,1.1776,1.1776,1.1776,1.1405,1.1039,1.1039,1.055,1.0058,0.9569,0.9815,0.9815,0.8471,0.8227,0.798,0.7004,0.6754,0.675,0.7116,0.6996,0.7362,0.8456,0.8218,0.7975,0.7975,0.8221,0.7978,0.6634,0.5902,0.5047,0.3943,0.333,0.2961,0.2961,0.2346,0.1977,0.1977,0.1977,0.1977,0.1977,0.199,0.1996,0.1996,0.2026,0.2039,0.9628,0.9628,0.9628,0.9628,0.9628,0.9628,0.9628,0.0,0.0,0.0,0.0,0.0,0.0,0.0,0.0,0.0,0.0,0.0,0.0,0.0,0.0,0.0,0.0,0.0,0.0,0.9628,0.9628,0.9628,0.9762,0.9855,0.9884,1.0209,1.0404,1.0436,1.0603,1.0692,1.0692,1.0692,1.0692,1.0692,1.0692,1.0692,1.0692,1.0692,1.0692,1.0692,0.0,0.0,1.0692,1.0692,1.0692,1.0692,1.0692,1.0708,1.0757,1.094,1.1118,1.1289,1.148,1.1646,1.1776,1.1776,1.1776,1.1776,1.1776,1.1776,1.1776,1.1776,1.1776,1.1776,1.1776,1.1776,1.1776,1.1776,1.1776,1.153,1.0671,1.1163,1.116,0.8833,0.9076,0.9198,0.7731,0.7487,0.7972,0.8945,0.8218,0.8587,1.1027,1.0297,0.9687,0.9687,1.0179,0.9937,0.8346,0.7861,0.6637,0.4433,0.3575,0.3085,0.2838,0.2346,0.1979,0.1983,0.1983,0.1986,0.199,0.2014,0.2025,0.2026,0.2056,0.2071,0.9628,0.9628,0.9628,0.9628,0.9628,0.9628,0.9628,0.0,0.0,0.0,0.0,0.0,0.0,0.0,0.0,0.0,0.0,0.0,0.0,0.0,0.0,0.0,0.0,0.0,0.9628,0.9628,0.9628,0.9628,0.9652,0.973,0.9876,1.0087,1.0274,1.0432,1.0603,1.0692,1.0692,1.0692,1.0692,1.0692,1.0692,1.0692,1.0692,1.0692,1.0692,1.0692,0.0,1.0692,1.0692,1.0692,1.0692,1.0692,1.0692,1.0789,1.0948,1.1122,1.1297,1.1484,1.1671,1.1752,1.1776,1.1776,1.1776,1.1776,1.1776,1.1776,1.1776,1.1776,1.1776,1.1776,1.1776,1.1776,1.1776,1.1776,1.1776,1.1776,1.1651,1.1651,1.1651,1.0906,1.0906,1.0785,1.0297,1.0418,1.0539,1.0543,1.0793,1.1156,1.1273,1.1402,1.1409,1.1409,1.153,1.1163,1.0058,0.9083,0.7858,0.6147,0.4556,0.333,0.2223,0.2099,0.1988,0.2011,0.2012,0.2024,0.205,0.2054,0.2057,0.2058,0.2088,0.2102,0.9628,0.9628,0.9628,0.9628,0.9628,0.9628,0.9628,0.0,0.0,0.0,0.0,0.0,0.0,0.0,0.0,0.0,0.0,0.0,0.0,0.0,0.0,0.0,0.0,0.0,0.9628,0.9628,0.9628,0.9628,0.9628,0.9701,0.9876,1.0063,1.0245,1.0428,1.0603,1.0692,1.0692,1.0692,1.0692,1.0692,1.0692,1.0692,1.0692,1.0692,1.0692,1.0692,0.0,1.0692,1.0692,1.0692,1.0692,1.0704,1.0802,1.0895,1.1001,1.1273,1.1488,1.1663,1.1748,1.1776,1.1776,1.1776,1.1776,1.1776,1.1776,1.1776,1.1776,1.1776,1.1776,1.1776,1.1776,1.1776,1.1776,1.1776,1.1776,1.1776,1.1776,1.1776,1.1776,1.1647,1.1526,1.1526,1.1405,1.1526,1.1526,1.1405,1.1651,1.1772,1.1647,1.1651,1.1776,1.1776,1.1776,1.1405,1.0425,0.9326,0.7736,0.5168,0.4066,0.2971,0.1999,0.1999,0.2013,0.2043,0.2043,0.205,0.2064,0.208,0.2089,0.2089,0.212,0.2133,1.0015,1.0015,0.9916,0.9628,0.0,0.9628,0.9628,0.0,0.0,0.0,0.0,0.0,0.0,0.0,0.0,0.0,0.0,0.0,0.0,0.0,0.0,0.0,0.0,0.9628,0.9628,0.9628,0.9628,0.9628,0.9628,0.9701,0.9876,1.0063,1.0245,1.0428,1.0603,1.0692,1.0692,1.0692,1.0692,1.0692,1.0692,1.0692,1.0692,1.0692,1.0692,1.0692,1.0692,1.0692,1.0692,1.0692,1.0692,1.0712,1.0895,1.1021,1.1131,1.1447,1.1654,1.1776,1.1776,1.1776,1.1776,1.1776,1.1776,1.1776,1.1776,1.1776,1.1776,1.1776,1.1776,1.1776,1.1776,1.1776,1.1776,1.1776,1.1776,1.1776,1.1776,1.1776,1.1776,1.1776,1.1776,1.1776,1.1776,1.1776,1.1776,1.1776,1.1776,1.1776,1.1776,1.1776,1.1776,1.1776,1.1776,1.1304,1.011,0.913,0.7298,0.4109,0.323,0.2498,0.2028,0.2029,0.2044,0.2074,0.2074,0.2078,0.2085,0.2108,0.212,0.2121,0.2144,0.2155,1.1077,1.1077,1.0886,0.9821,0.9628,0.0,0.9628,0.0,0.0,0.0,0.0,0.0,0.0,0.0,0.0,0.0,0.0,0.0,0.0,0.0,0.0,0.0,0.9628,0.9628,0.9628,0.9628,0.9628,0.9628,0.9628,0.9701,0.9876,1.0063,1.0245,1.0428,1.0603,1.0692,1.0692,1.0692,1.0692,1.0692,1.0692,1.0692,1.0692,1.0692,1.0692,1.0692,1.0692,1.0692,1.0692,1.0692,1.0692,1.0712,1.0895,1.1171,1.1484,1.1683,1.1764,1.1776,1.1776,1.1776,1.1776,1.1776,1.1776,1.1776,1.1776,1.1776,1.1776,1.1776,1.1776,1.1776,1.1776,1.1776,1.1776,1.1776,1.1776,1.1776,1.1776,1.1776,1.1776,1.1776,1.1776,1.1776,1.1776,1.1776,1.1776,1.1776,1.1776,1.1776,1.1776,1.1776,1.1776,1.1776,1.1776,1.1103,0.9268,0.8401,0.6944,0.4236,0.2792,0.2029,0.2059,0.2061,0.2075,0.2106,0.2106,0.212,0.2148,0.2151,0.2151,0.2151,0.2154,0.2155,1.1268,1.156,1.1658,1.0788,1.1179,0.0,0.0,0.0,0.0,0.0,0.0,0.0,0.0,0.0,0.0,0.0,0.0,0.0,0.0,0.0,0.9628,0.9628,0.9628,0.9628,0.9628,0.9628,0.9628,0.9628,0.9726,0.9868,1.0046,1.0229,1.0412,1.059,1.066,1.0692,1.0692,1.0692,1.0692,1.0692,1.0692,1.0692,1.0692,1.0692,1.0692,1.0692,1.0692,1.0692,1.0692,1.0692,1.0761,1.0891,1.1183,1.1451,1.1683,1.1752,1.1776,1.1776,1.1776,1.1776,1.1776,1.1776,1.1776,1.1776,1.1776,1.1776,1.1776,1.1776,1.1776,1.1776,1.1776,1.1776,1.1776,1.1776,1.1776,1.1776,1.1776,1.1776,1.1776,1.1776,1.1776,1.1776,1.1776,1.1776,1.1776,1.1776,1.1776,1.1776,1.1776,1.1776,1.1776,1.1776,1.1374,1.0718,1.0029,0.836,0.6801,0.586,0.3862,0.2445,0.2091,0.2092,0.2106,0.2137,0.2138,0.2143,0.2155,0.2155,0.2155,0.2155,0.2155,0.2155,1.2334,1.2339,1.2242,1.1463,0.0,0.0,0.0,0.0,0.0,0.0,0.0,0.0,0.0,0.0,0.0,0.0,0.0,0.0,0.0,0.9628,0.9628,0.9628,0.9628,0.9628,0.9628,0.9628,0.9652,0.9705,0.9819,0.9989,1.0237,1.0367,1.0513,1.0684,1.0692,1.0692,1.0692,1.0692,1.0692,1.0692,1.0692,1.0692,1.0692,1.0692,1.0692,1.0692,1.0692,1.0692,1.0692,1.0692,1.0834,1.1078,1.1382,1.1614,1.1776,1.1776,1.1776,1.1776,1.1776,1.1776,1.1776,1.1776,1.1776,1.1776,1.1776,1.1776,1.1776,1.1776,1.1776,1.1776,1.1776,1.1776,1.1776,1.1776,1.1776,1.1776,1.1776,1.1776,1.1776,1.1776,1.1776,1.1776,1.1776,1.1776,1.1776,1.1776,1.1776,1.1776,1.1776,1.1776,1.1797,1.1849,1.1337,1.0948,1.0796,0.9121,0.7938,0.7391,0.5504,0.3802,0.252,0.2256,0.2133,0.2155,0.2155,0.2155,0.2155,0.2155,0.2155,0.2155,0.2155,0.2155,1.4663,1.3692,1.2538,1.176,0.0,0.0,0.0,0.0,0.0,0.0,0.0,0.0,0.0,0.0,0.0,0.0,0.0,0.0,0.9628,0.9628,0.9628,0.9628,0.9628,0.9628,0.9628,0.9628,0.9697,0.9872,0.9888,1.0046,1.0416,1.0436,1.0517,1.0684,1.0692,1.0692,1.0692,1.0692,1.0692,1.0692,1.0692,1.0692,1.0692,1.0692,1.0692,1.0692,1.0692,1.0692,1.0692,1.0696,1.0907,1.1244,1.1427,1.1614,1.1776,1.1776,1.1776,1.1776,1.1776,1.1776,1.1776,1.1776,1.1776,1.1776,1.1776,1.1776,1.1776,1.1776,1.1776,1.1776,1.1776,1.1776,1.1776,1.1776,1.1776,1.1776,1.1776,1.1776,1.1776,1.1776,1.1776,1.1776,1.1776,1.1776,1.1776,1.1776,1.1776,1.1776,1.1776,1.178,1.1845,1.2012,1.2032,1.1803,1.1113,1.1012,1.0287,0.8698,0.7638,0.5904,0.3362,0.2558,0.2155,0.2155,0.2155,0.2155,0.2155,0.2155,0.2155,0.2155,0.2155,0.2155,1.3992,1.3703,0.0,0.0,0.0,0.0,0.0,0.0,0.0,0.0,0.0,0.0,0.0,0.0,0.0,0.0,0.0,0.0,0.9628,0.9628,0.9628,0.9628,0.9628,0.9628,0.9628,0.9628,0.9697,0.9872,1.0006,1.0184,1.0424,1.055,1.0639,1.0688,1.0692,1.0692,1.0692,1.0692,1.0692,1.0692,1.0692,1.0692,1.0692,1.0692,1.0692,1.0692,1.0692,1.0692,1.0712,1.096,1.1204,1.1435,1.1622,1.1727,1.1776,1.1776,1.1776,1.1776,1.1776,1.1776,1.1776,1.1776,1.1776,1.1776,1.1776,1.1776,1.1776,1.1776,1.1776,1.1776,1.1776,1.1776,1.1776,1.1776,1.1776,1.1776,1.1776,1.1776,1.1776,1.1776,1.1776,1.1776,1.1776,1.1776,1.1776,1.1776,1.1776,1.1776,1.1776,1.1878,1.1975,1.2024,1.2255,1.2318,1.2165,1.1497,1.092,1.0432,0.8304,0.6172,0.4431,0.3361,0.2691,0.2155,0.2155,0.2155,0.2155,0.2155,0.2155,0.2155,0.2155,0.2155,1.4478,0.0,0.0,0.0,0.0,0.0,0.0,0.0,0.0,0.0,0.0,0.0,0.0,0.0,0.0,0.0,0.0,0.9628,0.9628,0.9628,0.9628,0.9628,0.9628,0.9628,0.9628,0.9689,0.9803,0.9981,1.0164,1.0351,1.0526,1.0635,1.0692,1.0692,1.0692,1.0692,1.0692,1.0692,1.0692,1.0692,1.0692,1.0692,1.0692,1.0692,1.0692,1.0692,1.0692,1.0737,1.0826,1.1106,1.133,1.152,1.1703,1.1776,1.1776,1.1776,1.1776,1.1776,1.1776,1.1776,1.1776,1.1776,1.1776,1.1776,1.1776,1.1776,1.1776,1.1776,1.1776,1.1776,1.1776,1.1776,1.1776,1.1776,1.1776,1.1776,1.1776,1.1776,1.1776,1.1776,1.1776,1.1776,1.1776,1.1776,1.1776,1.1776,1.1776,1.1801,1.187,1.1967,1.2085,1.2227,1.2434,1.2592,1.2666,1.2107,1.1897,1.1897,0.9899,0.7902,0.6435,0.4567,0.3362,0.2558,0.2558,0.2423,0.2155,0.2155,0.2155,0.2155,0.2155,0.2155,1.573,0.0,0.0,0.0,0.0,0.0,0.0,0.0,0.0,0.0,0.0,0.0,0.0,0.0,0.0,0.9727,0.9628,0.9628,0.9628,0.9628,0.9628,0.9628,0.9628,0.9628,0.9628,0.9782,0.9961,1.0148,1.0331,1.0509,1.0684,1.0692,1.0692,1.0692,1.0692,1.0692,1.0692,1.0692,1.0692,1.0692,1.0692,1.0692,1.0692,1.0692,1.0692,1.0692,1.0692,1.0806,1.1005,1.1159,1.1342,1.1541,1.1711,1.1776,1.1776,1.1776,1.1776,1.1776,1.1776,1.1776,1.1776,1.1776,1.1776,1.1776,1.1776,1.1776,1.1776,1.1776,1.1776,1.1776,1.1776,1.1776,1.1776,1.1776,1.1776,1.1776,1.1776,1.1776,1.1776,1.1776,1.1776,1.1776,1.1776,1.1776,1.1776,1.1776,1.1788,1.1853,1.2012,1.2056,1.2203,1.2527,1.258,1.2657,1.2824,1.2836,1.2836,1.2836,1.1765,1.0432,0.8839,0.6036,0.4166,0.3228,0.3228,0.2826,0.2155,0.2155,0.2155,0.2155,0.2155,0.2155,0.0,0.0,0.0,0.0,0.0,0.0,0.0,0.0,0.0,0.0,0.0,0.0,0.0,0.0,0.9727,0.9628,0.9628,0.9628,0.9628,0.9628,0.9628,0.9628,0.9628,0.9628,0.9628,0.9782,0.9961,1.0148,1.0331,1.0509,1.0684,1.0692,1.0692,1.0692,1.0692,1.0692,1.0692,1.0692,1.0692,1.0692,1.0692,1.0692,1.0692,1.0692,1.0692,1.0692,1.0692,1.0871,1.1171,1.1208,1.1419,1.1719,1.176,1.1776,1.1776,1.1776,1.1776,1.1776,1.1776,1.1776,1.1776,1.1776,1.1776,1.1776,1.1776,1.1776,1.1776,1.1776,1.1776,1.1776,1.1776,1.1776,1.1776,1.1776,1.1776,1.1776,1.1776,1.1776,1.1776,1.1776,1.1776,1.1776,1.1776,1.1776,1.1776,1.1776,1.189,1.1987,1.2024,1.2276,1.2479,1.2556,1.269,1.2795,1.2832,1.2836,1.2836,1.2836,1.1765,1.0965,1.0697,0.7902,0.5369,0.3228,0.3228,0.2826,0.2155,0.2155,0.2155,0.2155,0.2155,0.2155,0.0,0.0,0.0,0.0,0.0,0.0,0.0,0.0,0.0,0.0,0.0,0.0,0.0,1.04,1.0306,1.0019,0.9727,0.9727,0.992,0.9727,0.9628,0.9628,0.9628,0.9661,0.9742,0.9912,1.0091,1.0278,1.0456,1.0599,1.0688,1.0692,1.0692,1.0692,1.0692,1.0692,1.0692,1.0692,1.0692,1.0692,1.0692,1.0692,1.0692,1.0692,1.0692,1.0696,1.0785,1.0976,1.1228,1.1317,1.152,1.1776,1.1776,1.1776,1.1776,1.1776,1.1776,1.1776,1.1776,1.1776,1.1776,1.1776,1.1776,1.1776,1.1776,1.1776,1.1776,1.1776,1.1776,1.1776,1.1776,1.1776,1.1776,1.1776,1.1776,1.1776,1.1776,1.1776,1.1776,1.1776,1.1776,1.1776,1.1776,1.1776,1.1805,1.1886,1.1971,1.2093,1.2264,1.2446,1.2596,1.2686,1.2779,1.2836,1.2836,1.2836,1.2836,1.2836,1.2301,1.1765,1.123,0.9766,0.7769,0.5101,0.457,0.3767,0.2691,0.3095,0.2826,0.2155,0.2558,0.2558,0.0,0.0,0.0,0.0,0.0,0.0,0.0,0.0,0.0,0.0,0.0,0.0,1.1853,1.137,1.0886,1.0507,1.0019,0.9821,1.0216,0.992,0.9628,0.9628,0.9628,0.9697,0.9868,1.0054,1.0237,1.042,1.0703,1.0802,1.0692,1.0802,1.0802,1.0692,1.0692,1.0692,1.0692,1.0692,1.0692,1.0692,1.0692,1.0692,1.0692,1.0692,1.0692,1.0704,1.0887,1.1066,1.1236,1.1423,1.161,1.1776,1.1776,1.1776,1.1776,1.1776,1.1776,1.1776,1.1776,1.1776,1.1776,1.1776,1.1776,1.1776,1.1776,1.1776,1.1776,1.1776,1.1776,1.1776,1.1776,1.1776,1.1776,1.1776,1.1776,1.1776,1.1776,1.1776,1.1776,1.1776,1.1776,1.1776,1.1776,1.1776,1.1833,1.2004,1.2056,1.2194,1.2519,1.2592,1.267,1.282,1.2836,1.2836,1.2836,1.2836,1.2836,1.2836,1.2836,1.2433,1.1497,1.1365,1.0167,0.7772,0.6311,0.4973,0.3362,0.4033,0.3765,0.2558,0.3095,0.3094,0.0,0.0,0.0,0.0,0.0,0.0,0.0,0.0,0.0,0.0,0.0,1.2926,1.2339,1.1277,1.0507,1.0413,1.0314,1.0117,0.9727,0.9628,0.9628,0.9628,0.9628,0.9697,0.9868,1.0054,1.0237,1.042,1.1029,1.124,1.0692,1.124,1.124,1.0692,1.0692,1.0692,1.0692,1.0692,1.0692,1.0692,1.0692,1.0692,1.0692,1.0692,1.0692,1.0704,1.0887,1.1066,1.1236,1.1423,1.161,1.1776,1.1776,1.1776,1.1776,1.1776,1.1776,1.1776,1.1776,1.1776,1.1776,1.1776,1.1776,1.1776,1.1776,1.1776,1.1776,1.1776,1.1776,1.1776,1.1776,1.1776,1.1776,1.1776,1.1776,1.1776,1.1776,1.1776,1.1776,1.1776,1.1776,1.1776,1.1776,1.1776,1.1833,1.2004,1.2166,1.2341,1.254,1.2702,1.2808,1.2836,1.2836,1.2836,1.2836,1.2836,1.2836,1.2836,1.2836,1.2704,1.2568,1.1633,1.0965,1.0697,0.8038,0.5906,0.4166,0.43,0.4167,0.4033,0.4167,0.4167,0.0,0.0,0.0,0.0,0.0,0.0,0.0,0.0,0.0,0.0,1.5324,1.3692,1.3494,1.2242,1.1184,1.09,1.0609,1.0314,1.0117,0.9821,0.9628,0.9628,1.0012,1.0344,1.0531,1.1032,1.1336,1.1536,1.1846,1.1787,1.124,1.1459,1.135,1.0692,1.0692,1.0692,1.0692,1.0692,1.0692,1.0692,1.0692,1.0692,1.0692,1.0692,1.0749,1.0854,1.1033,1.1212,1.139,1.1577,1.1703,1.1776,1.1776,1.1776,1.1776,1.1776,1.1776,1.1776,1.1776,1.1776,1.1776,1.1776,1.1776,1.1776,1.1776,1.1776,1.1776,1.1776,1.1776,1.1776,1.1776,1.1776,1.1776,1.1776,1.1776,1.1776,1.1776,1.1776,1.1776,1.1776,1.1776,1.1776,1.1776,1.1853,1.1979,1.2158,1.2337,1.2515,1.2694,1.2787,1.2836,1.2836,1.2836,1.2836,1.2836,1.2836,1.2836,1.2836,1.2836,1.2836,1.2836,1.2301,1.1765,1.123,0.8839,0.6973,0.577,0.5642,0.5108,0.4301,0.4705,0.4705,0.0,0.0,0.0,0.0,0.0,0.0,0.0,0.0,1.7326,0.0,1.5697,1.4364,1.4746,1.3307,1.1863,1.1487,1.0998,1.0609,1.0413,1.0019,0.9826,0.9826,1.048,1.1074,1.1178,1.1791,1.2209,1.2422,1.255,1.2441,1.1787,1.1896,1.1678,1.0911,1.0911,1.0911,1.0692,1.0692,1.0692,1.0692,1.0692,1.0692,1.0692,1.0692,1.0818,1.1041,1.1167,1.1325,1.1516,1.1699,1.1776,1.1776,1.1776,1.1776,1.1776,1.1776,1.1776,1.1776,1.1776,1.1776,1.1776,1.1776,1.1776,1.1776,1.1776,1.1776,1.1776,1.1776,1.1776,1.1776,1.1776,1.1776,1.1776,1.1776,1.1776,1.1776,1.1776,1.1776,1.1776,1.1776,1.1776,1.1776,1.1776,1.1918,1.2093,1.228,1.245,1.2629,1.2812,1.2836,1.2836,1.2836,1.2836,1.2836,1.2836,1.2836,1.2836,1.2836,1.2836,1.2836,1.2836,1.2836,1.2437,1.1633,0.9769,0.8307,0.724,0.698,0.6182,0.4838,0.5377,0.5377,0.0,0.0,0.0,0.0,0.0,0.0,0.0,0.0,0.0,1.7326,1.5697,1.4651,1.59,1.3896,1.198,1.198,1.1487,1.0998,1.0511,1.0413,1.0314,1.0314,1.0975,1.1581,1.1695,1.2002,1.2209,1.2422,1.2876,1.2989,1.2436,1.2876,1.2659,1.1568,1.1568,1.124,1.0692,1.0692,1.0692,1.0692,1.0692,1.0692,1.0692,1.0692,1.0879,1.1208,1.122,1.1325,1.1516,1.1699,1.1776,1.1776,1.1776,1.1776,1.1776,1.1776,1.1776,1.1776,1.1776,1.1776,1.1776,1.1776,1.1776,1.1776,1.1776,1.1776,1.1776,1.1776,1.1776,1.1776,1.1776,1.1776,1.1776,1.1776,1.1776,1.1776,1.1776,1.1776,1.1776,1.1776,1.1776,1.1776,1.1776,1.1918,1.2093,1.228,1.245,1.2629,1.2812,1.2836,1.2836,1.2836,1.2836,1.2836,1.2836,1.2836,1.2836,1.2836,1.2836,1.2836,1.2836,1.2836,1.2836,1.2704,1.1633,1.0035,0.791,0.791,0.7381,0.6319,0.6453,0.6453,0.0,0.0,0.0,0.0,0.0,0.0,0.0,1.7326,1.7326,1.7326,1.6372,1.5615,1.6096,1.4274,1.2543,1.2252,1.2349,1.1965,1.0605,1.0708,1.09,1.09,1.1697,1.225,1.2329,1.3087,1.3449,1.3532,1.3753,1.3645,1.2985,1.2767,1.2332,1.1568,1.124,1.0911,1.0692,1.0692,1.0692,1.0692,1.0692,1.0692,1.0696,1.0814,1.0997,1.1228,1.135,1.1504,1.1683,1.1748,1.1776,1.1776,1.1776,1.1776,1.1776,1.1776,1.1776,1.1776,1.1776,1.1776,1.1776,1.1776,1.1776,1.1776,1.1776,1.1776,1.1776,1.1776,1.1776,1.1776,1.1776,1.1776,1.1776,1.1776,1.1776,1.1776,1.1776,1.1776,1.1776,1.1776,1.1776,1.1809,1.1918,1.2089,1.2268,1.2446,1.2625,1.2763,1.2828,1.2836,1.2836,1.2836,1.2836,1.2836,1.2836,1.2836,1.2836,1.2836,1.2836,1.2836,1.2836,1.2836,1.2836,1.2836,1.2437,1.1501,1.0035,0.9374,0.8845,0.8448,0.7781,0.7514,0.0,0.0,0.0,0.0,0.0,1.7326,1.7326,0.0,1.7326,1.7326,1.6662,1.6285,1.6473,1.5229,1.398,1.3307,1.3119,1.2635,1.1477,1.1385,1.1487,1.1487,1.2375,1.2962,1.2962,1.3699,1.4196,1.4196,1.4196,1.3975,1.3315,1.2876,1.2332,1.1568,1.1021,1.0692,1.0692,1.0692,1.0692,1.0692,1.0692,1.0692,1.07,1.0883,1.1062,1.1232,1.1419,1.1606,1.1776,1.1776,1.1776,1.1776,1.1776,1.1776,1.1776,1.1776,1.1776,1.1776,1.1776,1.1776,1.1776,1.1776,1.1776,1.1776,1.1776,1.1776,1.1776,1.1776,1.1776,1.1776,1.1776,1.1776,1.1776,1.1776,1.1776,1.1776,1.1776,1.1776,1.1776,1.1776,1.1825,1.1898,1.2012,1.2231,1.243,1.2548,1.2718,1.2836,1.2836,1.2836,1.2836,1.2836,1.2836,1.2836,1.2836,1.2836,1.2836,1.2836,1.2836,1.2836,1.2836,1.2836,1.2836,1.2836,1.2836,1.2433,1.1765,1.0704,0.9908,0.9643,0.8845,0.8576,0.0,0.0,0.0,0.0,0.0,0.0,1.7326,0.0,1.7326,1.7326,1.6763,1.6473,1.7138,1.6756,1.6001,1.5242,1.4082,1.3216,1.3119,1.2457,1.2078,1.2078,1.2883,1.348,1.348,1.3911,1.4196,1.4196,1.4196,1.3975,1.3315,1.3315,1.2767,1.1568,1.1021,1.0692,1.0692,1.0692,1.0692,1.0692,1.0692,1.0692,1.0708,1.0891,1.107,1.124,1.1427,1.161,1.1776,1.1776,1.1776,1.1776,1.1776,1.1776,1.1776,1.1776,1.1776,1.1776,1.1776,1.1776,1.1776,1.1776,1.1776,1.1776,1.1776,1.1776,1.1776,1.1776,1.1776,1.1776,1.1776,1.1776,1.1776,1.1776,1.1776,1.1776,1.1776,1.178,1.1784,1.1776,1.1914,1.2032,1.2036,1.2333,1.2564,1.2572,1.2722,1.2836,1.2836,1.2836,1.2836,1.2836,1.2836,1.2836,1.2836,1.2836,1.2836,1.2836,1.2836,1.2836,1.2836,1.2836,1.2836,1.2836,1.2836,1.2836,1.2836,1.1765,1.07,0.9646,0.9646,0.9643,1.7326,0.0,0.0,0.0,0.0,0.0,1.7326,1.7326,1.7326,1.7326,1.7138,1.7044,1.7232,1.7138,1.6951,1.6756,1.59,1.4848,1.3312,1.3227,1.3136,1.2662,1.3084,1.348,1.348,1.3911,1.4196,1.4196,1.4196,1.4088,1.3975,1.3098,1.2114,1.1021,1.0802,1.0692,1.0692,1.0692,1.0692,1.0692,1.0692,1.0761,1.0899,1.1074,1.1248,1.1435,1.1618,1.1732,1.1776,1.1776,1.1776,1.1776,1.1776,1.1776,1.1776,1.1776,1.1776,1.1776,1.1776,1.1776,1.1776,1.1776,1.1776,1.1776,1.1776,1.1776,1.1776,1.1776,1.1776,1.1776,1.1776,1.1776,1.1776,1.1776,1.1776,1.1776,1.1776,1.1874,1.1922,1.1801,1.1914,1.2073,1.2207,1.2418,1.2609,1.2743,1.2804,1.2836,1.2836,1.2836,1.2836,1.2836,1.2836,1.2836,1.2836,1.2836,1.2836,1.2836,1.2836,1.2836,1.2836,1.2836,1.2836,1.2836,1.2836,1.2836,1.2836,1.2437,1.2169,1.1905,1.1104,1.0306,0.0,0.0,0.0,0.0,0.0,0.0,1.7326,1.7326,1.7326,1.7326,1.7326,1.7326,1.7326,1.7326,1.7326,1.7326,1.6951,1.6089,1.4657,1.4088,1.375,1.3475,1.3445,1.3518,1.3615,1.3965,1.4196,1.4196,1.4196,1.4083,1.3867,1.2659,1.1787,1.1131,1.0802,1.0692,1.0692,1.0692,1.0692,1.0692,1.0692,1.0789,1.0976,1.1143,1.1325,1.1508,1.1695,1.1776,1.1776,1.1776,1.1776,1.1776,1.1776,1.1776,1.1776,1.1776,1.1776,1.1776,1.1776,1.1776,1.1776,1.1776,1.1776,1.1776,1.1776,1.1776,1.1776,1.1776,1.1776,1.1776,1.1776,1.1776,1.1776,1.1776,1.1776,1.1797,1.1866,1.1959,1.2,1.1902,1.2081,1.2288,1.2393,1.256,1.2714,1.282,1.2836,1.2836,1.2836,1.2836,1.2836,1.2836,1.2836,1.2836,1.2836,1.2836,1.2836,1.2836,1.2836,1.2836,1.2836,1.2836,1.2836,1.2836,1.2836,1.2836,1.2836,1.2836,1.2836,1.2836,1.2169,1.1501,0.0,0.0,0.0,0.0,0.0,0.0,1.7326,1.7326,1.7326,1.7326,1.7326,1.7326,1.7326,1.7326,1.7326,1.7326,1.7326,1.7044,1.6285,1.5045,1.4189,1.4254,1.3926,1.367,1.3798,1.4046,1.4196,1.4196,1.4196,1.3867,1.3207,1.2223,1.1678,1.1459,1.1021,1.0692,1.0692,1.0692,1.0692,1.0692,1.0712,1.0818,1.1005,1.1175,1.1354,1.1541,1.1703,1.1776,1.1776,1.1776,1.1776,1.1776,1.1776,1.1776,1.1776,1.1776,1.1776,1.1776,1.1776,1.1776,1.1776,1.1776,1.1776,1.1776,1.1776,1.1776,1.1776,1.1776,1.1776,1.1776,1.1776,1.1776,1.178,1.1801,1.1805,1.1853,1.2024,1.2073,1.2089,1.2089,1.2345,1.2564,1.2564,1.2714,1.2836,1.2836,1.2836,1.2836,1.2836,1.2836,1.2836,1.2836,1.2836,1.2836,1.2836,1.2836,1.2836,1.2836,1.2836,1.2836,1.2836,1.2836,1.2836,1.2836,1.2836,1.2836,1.2836,1.2836,1.2836,1.2836,1.2836,1.2836,0.0,0.0,0.0,0.0,0.0,0.0,1.7326,1.7326,1.7326,1.7326,1.7326,1.7326,1.7326,1.7326,1.7326,1.7326,1.7326,1.7044,1.6285,1.5906,1.5434,1.4451,1.4323,1.4276,1.3798,1.4046,1.4196,1.4196,1.4196,1.3753,1.2659,1.2332,1.1787,1.0911,1.0802,1.0692,1.0692,1.0692,1.0692,1.0692,1.0842,1.1005,1.1179,1.1362,1.1545,1.1723,1.176,1.1776,1.1776,1.1776,1.1776,1.1776,1.1776,1.1776,1.1776,1.1776,1.1776,1.1776,1.1776,1.1776,1.1776,1.1776,1.1776,1.1776,1.1776,1.1776,1.1776,1.1776,1.1776,1.1776,1.1776,1.1776,1.1809,1.1947,1.1979,1.2028,1.2215,1.2361,1.2458,1.2458,1.2515,1.2564,1.2564,1.2714,1.2836,1.2836,1.2836,1.2836,1.2836,1.2836,1.2836,1.2836,1.2836,1.2836,1.2836,1.2836,1.2836,1.2836,1.2836,1.2836,1.2836,1.2836,1.2836,1.2836,1.2836,1.2836,1.2836,1.2836,1.2836,1.2836,1.2836,1.2836,0.0,0.0,0.0,1.7326,0.0,0.0,0.0,1.7326,1.7326,1.7326,1.7326,1.7326,1.7326,1.7326,1.7326,1.7326,1.7326,1.7138,1.6756,1.6473,1.6068,1.5729,1.5004,1.463,1.459,1.433,1.4196,1.4196,1.4196,1.3975,1.3315,1.2985,1.2441,1.1564,1.1564,1.1236,1.0692,1.1021,1.1021,1.0692,1.0879,1.1057,1.1228,1.1415,1.1602,1.1776,1.1776,1.1776,1.1776,1.1776,1.1776,1.1776,1.1776,1.1776,1.1776,1.1776,1.1776,1.1776,1.1776,1.1776,1.1776,1.1776,1.1776,1.1776,1.1776,1.1776,1.1776,1.1776,1.1776,1.1797,1.1878,1.1902,1.1947,1.2125,1.2166,1.2219,1.2398,1.2503,1.2592,1.2682,1.2702,1.2702,1.2702,1.2775,1.2836,1.2836,1.2836,1.2836,1.2836,1.2836,1.2836,1.2836,1.2836,1.2836,1.2836,1.2836,1.2836,1.2836,1.2836,1.2836,1.2836,1.2836,1.2836,1.2836,1.2836,1.2836,1.2836,1.2836,1.2836,1.2836,1.2836,1.2836,0.0,0.0,0.0,0.0,0.0,1.7326,0.0,0.0,0.0,1.7326,1.7326,1.7326,1.7326,1.7326,1.7326,1.7326,1.7326,1.7326,1.7326,1.6763,1.6498,1.6857,1.5664,1.4968,1.5335,1.4691,1.4196,1.4196,1.4196,1.4191,1.3975,1.3537,1.2985,1.2441,1.2441,1.1896,1.0911,1.135,1.1367,1.0749,1.0932,1.111,1.1281,1.1468,1.1634,1.1776,1.1776,1.1776,1.1776,1.1776,1.1776,1.1776,1.1776,1.1776,1.1776,1.1776,1.1776,1.1776,1.1776,1.1776,1.1776,1.1776,1.1776,1.1776,1.1776,1.1776,1.1776,1.1776,1.1801,1.1857,1.1996,1.2056,1.213,1.2312,1.2357,1.2406,1.2576,1.2617,1.2661,1.2808,1.2836,1.2836,1.2836,1.2836,1.2836,1.2836,1.2836,1.2836,1.2836,1.2836,1.2836,1.2836,1.2836,1.2836,1.2836,1.2836,1.2836,1.2836,1.2836,1.2836,1.2836,1.2836,1.2836,1.2836,1.2836,1.2836,1.2836,1.2836,1.2836,1.2836,1.2836,1.2836,0.0,0.0,0.0,0.0,1.7326,0.0,0.0,0.0,1.7326,1.7326,0.0,1.7326,0.0,0.0,0.0,1.7326,1.7326,1.7326,1.7326,1.7232,1.7087,1.6676,1.605,1.5509,1.5082,1.459,1.4196,1.4196,1.4196,1.3975,1.3423,1.3315,1.2985,1.2441,1.2441,1.2114,1.1459,1.1568,1.144,1.094,1.1114,1.1289,1.1472,1.1658,1.1756,1.1776,1.1776,1.1776,1.1776,1.1776,1.1776,1.1776,1.1776,1.1776,1.1776,1.1776,1.1776,1.1776,1.1776,1.1776,1.1776,1.1776,1.1776,1.1776,1.1776,1.1776,1.1776,1.1776,1.1886,1.2004,1.2024,1.215,1.232,1.2495,1.2536,1.2584,1.2767,1.2804,1.2812,1.2832,1.2836,1.2836,1.2836,1.2836,1.2836,1.2836,1.2836,1.2836,1.2836,1.2836,1.2836,1.2836,1.2836,1.2836,1.2836,1.2836,1.2836,1.2836,1.2836,1.2836,1.2836,1.2836,1.2836,1.2836,1.2836,1.2836,1.2836,1.2836,1.2836,1.2836,1.2836,1.2836,0.0,0.0,0.0,0.0,0.0,0.0,1.7326,0.0,1.7326,0.0,0.0,0.0,0.0,0.0,0.0,0.0,1.7326,1.7326,1.7326,1.7326,1.7261,1.7298,1.6823,1.617,1.5358,1.4663,1.4196,1.4196,1.4196,1.4083,1.3867,1.3537,1.3207,1.2876,1.2876,1.255,1.1568,1.2004,1.1775,1.0972,1.1252,1.1423,1.1504,1.1691,1.1776,1.1776,1.1776,1.1776,1.1776,1.1776,1.1776,1.1776,1.1776,1.1776,1.1776,1.1776,1.1776,1.1776,1.1776,1.1776,1.1776,1.1776,1.1776,1.1776,1.1776,1.1845,1.1922,1.1922,1.2052,1.2215,1.2312,1.2398,1.2499,1.2678,1.2722,1.2743,1.282,1.2836,1.2836,1.2836,1.2836,1.2836,1.2836,1.2836,1.2836,1.2836,1.2836,1.2836,1.2836,1.2836,1.2836,1.2836,1.2836,1.2836,1.2836,1.2836,1.2836,1.2836,1.2836,1.2836,1.2836,1.2836,1.2836,1.2836,1.2836,1.2836,1.2836,1.2836,1.2836,1.2836,1.2836,1.2836,1.7326,0.0,0.0,0.0,0.0,0.0,0.0,0.0,0.0,0.0,0.0,0.0,0.0,0.0,0.0,0.0,0.0,1.7326,1.7326,1.7326,1.7421,1.7655,1.726,1.6731,1.5937,1.525,1.4826,1.4617,1.4509,1.4401,1.4196,1.3753,1.3537,1.3537,1.3537,1.3098,1.2114,1.2529,1.2212,1.1268,1.147,1.1529,1.1581,1.1715,1.1776,1.1776,1.1776,1.1776,1.1776,1.1776,1.1776,1.1776,1.1776,1.1776,1.1776,1.1776,1.1776,1.1776,1.1776,1.1776,1.1776,1.1776,1.1776,1.1784,1.1833,1.1931,1.204,1.2093,1.2235,1.2406,1.2532,1.2601,1.2674,1.2804,1.2836,1.2836,1.2836,1.2836,1.2836,1.2836,1.2836,1.2836,1.2836,1.2836,1.2836,1.2836,1.2836,1.2836,1.2836,1.2836,1.2836,1.2836,1.2836,1.2836,1.2836,1.2836,1.2836,1.2836,1.2836,1.2836,1.2836,1.2836,1.2836,1.2836,1.2836,1.2836,1.2836,1.2836,1.2836,1.2836,1.2836,1.2836,0.0,0.0,0.0,1.7326,0.0,0.0,0.0,0.0,1.7326,0.0,0.0,0.0,0.0,0.0,0.0,0.0,1.7326,0.0,0.0,1.7326,1.7333,1.734,1.7134,1.6934,1.6679,1.6624,1.6305,1.5565,1.5458,1.5143,1.4299,1.4191,1.4196,1.4196,1.4196,1.3862,1.3207,1.2861,1.2505,1.202,1.1641,1.1593,1.1768,1.1776,1.1776,1.1776,1.1776,1.1776,1.1776,1.1776,1.1776,1.1776,1.1776,1.1776,1.1776,1.1776,1.1776,1.1776,1.1776,1.1776,1.1776,1.1776,1.1776,1.1809,1.1971,1.2024,1.2069,1.2247,1.2422,1.2556,1.256,1.2698,1.2832,1.2836,1.2836,1.2836,1.2836,1.2836,1.2836,1.2836,1.2836,1.2836,1.2836,1.2836,1.2836,1.2836,1.2836,1.2836,1.2836,1.2836,1.2836,1.2836,1.2836,1.2836,1.2836,1.2836,1.2836,1.2836,1.2836,1.2836,1.2836,1.2836,1.2836,1.2836,1.2836,1.2836,1.2836,1.2836,1.2836,1.2836,1.2836,1.2836,0.0,0.0,1.7326,1.7326,0.0,0.0,0.0,0.0,0.0,0.0,0.0,0.0,0.0,0.0,0.0,0.0,1.7326,1.7326,0.0,1.7326,1.7486,1.7918,1.7372,0.0,1.7508,1.6511,1.5773,1.5559,1.4934,1.4509,1.4191,1.3862,1.3753,1.4191,1.3759,1.3386,1.2861,1.2847,1.2488,1.1758,1.1712,1.1715,1.1776,1.1776,1.1776,1.1776,1.1776,1.1776,1.1776,1.1776,1.1776,1.1776,1.1776,1.1776,1.1776,1.1776,1.1776,1.1776,1.1776,1.1776,1.1776,1.1776,1.1853,1.1955,1.2012,1.2194,1.2398,1.2458,1.2609,1.2743,1.2743,1.2791,1.2836,1.2836,1.2836,1.2836,1.2836,1.2836,1.2836,1.2836,1.2836,1.2836,1.2836,1.2836,1.2836,1.2836,1.2836,1.2836,1.2836,1.2836,1.2836,1.2836,1.2836,1.2836,1.2836,1.2836,1.2836,1.2836,1.2836,1.2836,1.2836,1.2836,1.2836,1.2836,1.2836,1.2836,1.2836,1.2836,1.2836,1.2836,1.2836,1.2836,1.7326,1.7326,1.7326,1.7326,1.7326,0.0,1.7326,0.0,0.0,0.0,0.0,0.0,0.0,0.0,0.0,1.7326,1.7326,1.7326,0.0,1.7326,1.7574,1.8225,1.7803,0.0,0.0,1.747,1.6624,1.5986,1.5464,1.4826,1.4196,1.3862,1.3753,1.3862,1.3753,1.3421,1.3073,1.3069,1.2703,1.2081,1.1927,1.1776,1.1776,1.1776,1.1776,1.1776,1.1776,1.1776,1.1776,1.1776,1.1776,1.1776,1.1776,1.1776,1.1776,1.1776,1.1776,1.1776,1.1776,1.1776,1.1788,1.1845,1.1943,1.2052,1.2182,1.2381,1.2576,1.2645,1.2747,1.2836,1.2836,1.2836,1.2836,1.2836,1.2836,1.2836,1.2836,1.2836,1.2836,1.2836,1.2836,1.2836,1.2836,1.2836,1.2836,1.2836,1.2836,1.2836,1.2836,1.2836,1.2836,1.2836,1.2836,1.2836,1.2836,1.2893,1.2929,1.2929,1.299,1.3027,1.3027,1.3027,1.2994,1.2929,1.2929,1.2897,1.2836,1.2836,1.2836,1.2836,1.2836,1.2836]}]]